<?xml version="1.0" encoding="UTF-8" standalone="no" ?>
<gpx xmlns="http://www.topografix.com/GPX/1/1" xmlns:xsi="http://www.w3.org/2001/XMLSchema-instance" xsi:schemaLocation="http://www.topografix.com/GPX/1/1 http://www.topografix.com/GPX/1/1/gpx.xsd" version="1.1" creator="VisuGPX - https://www.visugpx.com">
  <metadata>
    <name>Chalindrey-Le Cognelot-Balesmes</name>
    <desc><![CDATA[Marche pèpère, une petite balade autour du Cognelot en Haute Marne chez les Sorciers de Chalindrey.]]></desc>
  </metadata>
  <trk>
    <name><![CDATA[Chalindrey-Le Cognelot-Balesmes]]></name>
    <trkseg>
      <trkpt lat="47.80443" lon="5.42294">
        <ele>346.6</ele>
        <time>2018-02-18T12:56:04Z</time>
      </trkpt>
      <trkpt lat="47.80439" lon="5.42299">
        <ele>349.5</ele>
        <time>2018-02-18T12:56:09Z</time>
      </trkpt>
      <trkpt lat="47.80445" lon="5.42299">
        <ele>347.6</ele>
        <time>2018-02-18T12:56:14Z</time>
      </trkpt>
      <trkpt lat="47.8045" lon="5.42295">
        <ele>347.7</ele>
        <time>2018-02-18T12:56:19Z</time>
      </trkpt>
      <trkpt lat="47.80454" lon="5.42289">
        <ele>346.2</ele>
        <time>2018-02-18T12:56:24Z</time>
      </trkpt>
      <trkpt lat="47.80455" lon="5.42282">
        <ele>345.2</ele>
        <time>2018-02-18T12:56:29Z</time>
      </trkpt>
      <trkpt lat="47.80452" lon="5.42278">
        <ele>347</ele>
        <time>2018-02-18T12:56:34Z</time>
      </trkpt>
      <trkpt lat="47.8045" lon="5.42274">
        <ele>347.4</ele>
        <time>2018-02-18T12:56:39Z</time>
      </trkpt>
      <trkpt lat="47.80449" lon="5.42271">
        <ele>349.2</ele>
        <time>2018-02-18T12:56:44Z</time>
      </trkpt>
      <trkpt lat="47.80447" lon="5.42268">
        <ele>349.7</ele>
        <time>2018-02-18T12:56:49Z</time>
      </trkpt>
      <trkpt lat="47.80446" lon="5.42264">
        <ele>349.4</ele>
        <time>2018-02-18T12:56:54Z</time>
      </trkpt>
      <trkpt lat="47.80444" lon="5.42257">
        <ele>349</ele>
        <time>2018-02-18T12:56:59Z</time>
      </trkpt>
      <trkpt lat="47.80442" lon="5.42252">
        <ele>349.4</ele>
        <time>2018-02-18T12:57:04Z</time>
      </trkpt>
      <trkpt lat="47.8044" lon="5.42247">
        <ele>348.3</ele>
        <time>2018-02-18T12:57:09Z</time>
      </trkpt>
      <trkpt lat="47.80439" lon="5.4224">
        <ele>348.6</ele>
        <time>2018-02-18T12:57:14Z</time>
      </trkpt>
      <trkpt lat="47.80436" lon="5.42233">
        <ele>349.5</ele>
        <time>2018-02-18T12:57:19Z</time>
      </trkpt>
      <trkpt lat="47.80436" lon="5.42232">
        <ele>348.7</ele>
        <time>2018-02-18T12:57:24Z</time>
      </trkpt>
      <trkpt lat="47.80435" lon="5.42228">
        <ele>349.9</ele>
        <time>2018-02-18T12:57:29Z</time>
      </trkpt>
      <trkpt lat="47.80433" lon="5.42222">
        <ele>350.2</ele>
        <time>2018-02-18T12:57:34Z</time>
      </trkpt>
      <trkpt lat="47.80432" lon="5.42219">
        <ele>350.8</ele>
        <time>2018-02-18T12:57:39Z</time>
      </trkpt>
      <trkpt lat="47.8043" lon="5.42214">
        <ele>350.4</ele>
        <time>2018-02-18T12:57:44Z</time>
      </trkpt>
      <trkpt lat="47.80428" lon="5.42208">
        <ele>350.7</ele>
        <time>2018-02-18T12:57:49Z</time>
      </trkpt>
      <trkpt lat="47.80426" lon="5.42201">
        <ele>350.9</ele>
        <time>2018-02-18T12:57:54Z</time>
      </trkpt>
      <trkpt lat="47.80424" lon="5.42194">
        <ele>351.2</ele>
        <time>2018-02-18T12:57:59Z</time>
      </trkpt>
      <trkpt lat="47.80426" lon="5.42186">
        <ele>350.9</ele>
        <time>2018-02-18T12:58:04Z</time>
      </trkpt>
      <trkpt lat="47.80429" lon="5.42181">
        <ele>350.1</ele>
        <time>2018-02-18T12:58:09Z</time>
      </trkpt>
      <trkpt lat="47.80432" lon="5.42176">
        <ele>350</ele>
        <time>2018-02-18T12:58:14Z</time>
      </trkpt>
      <trkpt lat="47.8043" lon="5.42168">
        <ele>350.9</ele>
        <time>2018-02-18T12:58:19Z</time>
      </trkpt>
      <trkpt lat="47.80427" lon="5.42162">
        <ele>350.5</ele>
        <time>2018-02-18T12:58:24Z</time>
      </trkpt>
      <trkpt lat="47.80425" lon="5.42155">
        <ele>351.4</ele>
        <time>2018-02-18T12:58:29Z</time>
      </trkpt>
      <trkpt lat="47.80422" lon="5.42148">
        <ele>351.6</ele>
        <time>2018-02-18T12:58:34Z</time>
      </trkpt>
      <trkpt lat="47.8042" lon="5.42141">
        <ele>351.2</ele>
        <time>2018-02-18T12:58:39Z</time>
      </trkpt>
      <trkpt lat="47.80418" lon="5.42133">
        <ele>351.4</ele>
        <time>2018-02-18T12:58:44Z</time>
      </trkpt>
      <trkpt lat="47.80417" lon="5.42126">
        <ele>351.7</ele>
        <time>2018-02-18T12:58:49Z</time>
      </trkpt>
      <trkpt lat="47.80415" lon="5.42119">
        <ele>351.2</ele>
        <time>2018-02-18T12:58:54Z</time>
      </trkpt>
      <trkpt lat="47.80412" lon="5.42111">
        <ele>350.7</ele>
        <time>2018-02-18T12:58:59Z</time>
      </trkpt>
      <trkpt lat="47.80409" lon="5.42105">
        <ele>351</ele>
        <time>2018-02-18T12:59:04Z</time>
      </trkpt>
      <trkpt lat="47.80407" lon="5.42097">
        <ele>350.4</ele>
        <time>2018-02-18T12:59:09Z</time>
      </trkpt>
      <trkpt lat="47.80405" lon="5.4209">
        <ele>350</ele>
        <time>2018-02-18T12:59:14Z</time>
      </trkpt>
      <trkpt lat="47.80403" lon="5.42083">
        <ele>349.5</ele>
        <time>2018-02-18T12:59:19Z</time>
      </trkpt>
      <trkpt lat="47.80401" lon="5.42077">
        <ele>349.1</ele>
        <time>2018-02-18T12:59:24Z</time>
      </trkpt>
      <trkpt lat="47.80398" lon="5.42068">
        <ele>349.9</ele>
        <time>2018-02-18T12:59:29Z</time>
      </trkpt>
      <trkpt lat="47.80395" lon="5.42063">
        <ele>350.2</ele>
        <time>2018-02-18T12:59:34Z</time>
      </trkpt>
      <trkpt lat="47.80393" lon="5.42056">
        <ele>349.7</ele>
        <time>2018-02-18T12:59:39Z</time>
      </trkpt>
      <trkpt lat="47.8039" lon="5.42049">
        <ele>350</ele>
        <time>2018-02-18T12:59:44Z</time>
      </trkpt>
      <trkpt lat="47.80389" lon="5.42043">
        <ele>350.3</ele>
        <time>2018-02-18T12:59:49Z</time>
      </trkpt>
      <trkpt lat="47.80386" lon="5.42036">
        <ele>349.8</ele>
        <time>2018-02-18T12:59:54Z</time>
      </trkpt>
      <trkpt lat="47.80384" lon="5.42028">
        <ele>350</ele>
        <time>2018-02-18T12:59:59Z</time>
      </trkpt>
      <trkpt lat="47.80381" lon="5.42019">
        <ele>350.9</ele>
        <time>2018-02-18T13:00:04Z</time>
      </trkpt>
      <trkpt lat="47.80379" lon="5.42011">
        <ele>350.3</ele>
        <time>2018-02-18T13:00:09Z</time>
      </trkpt>
      <trkpt lat="47.80376" lon="5.42003">
        <ele>350.5</ele>
        <time>2018-02-18T13:00:14Z</time>
      </trkpt>
      <trkpt lat="47.80374" lon="5.41996">
        <ele>350.7</ele>
        <time>2018-02-18T13:00:19Z</time>
      </trkpt>
      <trkpt lat="47.80372" lon="5.41986">
        <ele>349.4</ele>
        <time>2018-02-18T13:00:24Z</time>
      </trkpt>
      <trkpt lat="47.8037" lon="5.41978">
        <ele>350.3</ele>
        <time>2018-02-18T13:00:29Z</time>
      </trkpt>
      <trkpt lat="47.80368" lon="5.41968">
        <ele>350.5</ele>
        <time>2018-02-18T13:00:34Z</time>
      </trkpt>
      <trkpt lat="47.80367" lon="5.41962">
        <ele>350.7</ele>
        <time>2018-02-18T13:00:39Z</time>
      </trkpt>
      <trkpt lat="47.80366" lon="5.41952">
        <ele>351.6</ele>
        <time>2018-02-18T13:00:44Z</time>
      </trkpt>
      <trkpt lat="47.80364" lon="5.41944">
        <ele>352.5</ele>
        <time>2018-02-18T13:00:49Z</time>
      </trkpt>
      <trkpt lat="47.80363" lon="5.41934">
        <ele>353.4</ele>
        <time>2018-02-18T13:00:54Z</time>
      </trkpt>
      <trkpt lat="47.80362" lon="5.41926">
        <ele>354.4</ele>
        <time>2018-02-18T13:00:59Z</time>
      </trkpt>
      <trkpt lat="47.80361" lon="5.41918">
        <ele>353.9</ele>
        <time>2018-02-18T13:01:04Z</time>
      </trkpt>
      <trkpt lat="47.80359" lon="5.4191">
        <ele>354.1</ele>
        <time>2018-02-18T13:01:09Z</time>
      </trkpt>
      <trkpt lat="47.80358" lon="5.41901">
        <ele>354.4</ele>
        <time>2018-02-18T13:01:14Z</time>
      </trkpt>
      <trkpt lat="47.80356" lon="5.41893">
        <ele>355.2</ele>
        <time>2018-02-18T13:01:19Z</time>
      </trkpt>
      <trkpt lat="47.80355" lon="5.41887">
        <ele>356.3</ele>
        <time>2018-02-18T13:01:24Z</time>
      </trkpt>
      <trkpt lat="47.80355" lon="5.41888">
        <ele>355.7</ele>
        <time>2018-02-18T13:01:29Z</time>
      </trkpt>
      <trkpt lat="47.80355" lon="5.41888">
        <ele>355.7</ele>
        <time>2018-02-18T13:01:34Z</time>
      </trkpt>
      <trkpt lat="47.80354" lon="5.41884">
        <ele>354</ele>
        <time>2018-02-18T13:01:39Z</time>
      </trkpt>
      <trkpt lat="47.80354" lon="5.41885">
        <ele>354</ele>
        <time>2018-02-18T13:01:44Z</time>
      </trkpt>
      <trkpt lat="47.80354" lon="5.41885">
        <ele>354</ele>
        <time>2018-02-18T13:01:49Z</time>
      </trkpt>
      <trkpt lat="47.80353" lon="5.41878">
        <ele>353.7</ele>
        <time>2018-02-18T13:01:54Z</time>
      </trkpt>
      <trkpt lat="47.80352" lon="5.41869">
        <ele>352.4</ele>
        <time>2018-02-18T13:01:59Z</time>
      </trkpt>
      <trkpt lat="47.8035" lon="5.41862">
        <ele>351.9</ele>
        <time>2018-02-18T13:02:04Z</time>
      </trkpt>
      <trkpt lat="47.80347" lon="5.41853">
        <ele>352.8</ele>
        <time>2018-02-18T13:02:09Z</time>
      </trkpt>
      <trkpt lat="47.80345" lon="5.41845">
        <ele>352.3</ele>
        <time>2018-02-18T13:02:14Z</time>
      </trkpt>
      <trkpt lat="47.80344" lon="5.41837">
        <ele>352.5</ele>
        <time>2018-02-18T13:02:19Z</time>
      </trkpt>
      <trkpt lat="47.80342" lon="5.41829">
        <ele>352.7</ele>
        <time>2018-02-18T13:02:24Z</time>
      </trkpt>
      <trkpt lat="47.8034" lon="5.41822">
        <ele>352.3</ele>
        <time>2018-02-18T13:02:29Z</time>
      </trkpt>
      <trkpt lat="47.80336" lon="5.41816">
        <ele>351.8</ele>
        <time>2018-02-18T13:02:34Z</time>
      </trkpt>
      <trkpt lat="47.80331" lon="5.41812">
        <ele>351.3</ele>
        <time>2018-02-18T13:02:39Z</time>
      </trkpt>
      <trkpt lat="47.80327" lon="5.41806">
        <ele>351.5</ele>
        <time>2018-02-18T13:02:44Z</time>
      </trkpt>
      <trkpt lat="47.80326" lon="5.41796">
        <ele>350.3</ele>
        <time>2018-02-18T13:02:49Z</time>
      </trkpt>
      <trkpt lat="47.80324" lon="5.41788">
        <ele>350.5</ele>
        <time>2018-02-18T13:02:54Z</time>
      </trkpt>
      <trkpt lat="47.80322" lon="5.4178">
        <ele>351.4</ele>
        <time>2018-02-18T13:02:59Z</time>
      </trkpt>
      <trkpt lat="47.80322" lon="5.4178">
        <ele>351.4</ele>
        <time>2018-02-18T13:03:04Z</time>
      </trkpt>
      <trkpt lat="47.80323" lon="5.4178">
        <ele>350</ele>
        <time>2018-02-18T13:03:09Z</time>
      </trkpt>
      <trkpt lat="47.8032" lon="5.41773">
        <ele>352.3</ele>
        <time>2018-02-18T13:03:14Z</time>
      </trkpt>
      <trkpt lat="47.80318" lon="5.41763">
        <ele>352.5</ele>
        <time>2018-02-18T13:03:19Z</time>
      </trkpt>
      <trkpt lat="47.80317" lon="5.41754">
        <ele>352.6</ele>
        <time>2018-02-18T13:03:24Z</time>
      </trkpt>
      <trkpt lat="47.80315" lon="5.41746">
        <ele>352.1</ele>
        <time>2018-02-18T13:03:29Z</time>
      </trkpt>
      <trkpt lat="47.80312" lon="5.41736">
        <ele>352.9</ele>
        <time>2018-02-18T13:03:34Z</time>
      </trkpt>
      <trkpt lat="47.80312" lon="5.41728">
        <ele>352.5</ele>
        <time>2018-02-18T13:03:39Z</time>
      </trkpt>
      <trkpt lat="47.8031" lon="5.4172">
        <ele>352.7</ele>
        <time>2018-02-18T13:03:44Z</time>
      </trkpt>
      <trkpt lat="47.8031" lon="5.41714">
        <ele>351.7</ele>
        <time>2018-02-18T13:03:49Z</time>
      </trkpt>
      <trkpt lat="47.80307" lon="5.41706">
        <ele>351.2</ele>
        <time>2018-02-18T13:03:54Z</time>
      </trkpt>
      <trkpt lat="47.80305" lon="5.41695">
        <ele>351.9</ele>
        <time>2018-02-18T13:03:59Z</time>
      </trkpt>
      <trkpt lat="47.80304" lon="5.41685">
        <ele>352.1</ele>
        <time>2018-02-18T13:04:04Z</time>
      </trkpt>
      <trkpt lat="47.80302" lon="5.41676">
        <ele>352.2</ele>
        <time>2018-02-18T13:04:09Z</time>
      </trkpt>
      <trkpt lat="47.80301" lon="5.41668">
        <ele>352.4</ele>
        <time>2018-02-18T13:04:14Z</time>
      </trkpt>
      <trkpt lat="47.80299" lon="5.41658">
        <ele>352.6</ele>
        <time>2018-02-18T13:04:19Z</time>
      </trkpt>
      <trkpt lat="47.803" lon="5.4165">
        <ele>351.5</ele>
        <time>2018-02-18T13:04:24Z</time>
      </trkpt>
      <trkpt lat="47.80301" lon="5.41641">
        <ele>350.4</ele>
        <time>2018-02-18T13:04:29Z</time>
      </trkpt>
      <trkpt lat="47.80303" lon="5.41633">
        <ele>350.1</ele>
        <time>2018-02-18T13:04:34Z</time>
      </trkpt>
      <trkpt lat="47.80304" lon="5.41624">
        <ele>349.7</ele>
        <time>2018-02-18T13:04:39Z</time>
      </trkpt>
      <trkpt lat="47.80305" lon="5.41615">
        <ele>349.3</ele>
        <time>2018-02-18T13:04:44Z</time>
      </trkpt>
      <trkpt lat="47.80306" lon="5.41605">
        <ele>349.6</ele>
        <time>2018-02-18T13:04:49Z</time>
      </trkpt>
      <trkpt lat="47.80308" lon="5.41598">
        <ele>349.3</ele>
        <time>2018-02-18T13:04:54Z</time>
      </trkpt>
      <trkpt lat="47.8031" lon="5.41588">
        <ele>349.7</ele>
        <time>2018-02-18T13:04:59Z</time>
      </trkpt>
      <trkpt lat="47.80312" lon="5.41579">
        <ele>349.3</ele>
        <time>2018-02-18T13:05:04Z</time>
      </trkpt>
      <trkpt lat="47.80314" lon="5.4157">
        <ele>349.7</ele>
        <time>2018-02-18T13:05:09Z</time>
      </trkpt>
      <trkpt lat="47.80316" lon="5.41562">
        <ele>350.8</ele>
        <time>2018-02-18T13:05:14Z</time>
      </trkpt>
      <trkpt lat="47.80319" lon="5.41553">
        <ele>350.5</ele>
        <time>2018-02-18T13:05:19Z</time>
      </trkpt>
      <trkpt lat="47.80321" lon="5.41545">
        <ele>350.9</ele>
        <time>2018-02-18T13:05:24Z</time>
      </trkpt>
      <trkpt lat="47.80324" lon="5.41536">
        <ele>352</ele>
        <time>2018-02-18T13:05:29Z</time>
      </trkpt>
      <trkpt lat="47.80326" lon="5.41528">
        <ele>352.4</ele>
        <time>2018-02-18T13:05:34Z</time>
      </trkpt>
      <trkpt lat="47.80329" lon="5.4152">
        <ele>352.9</ele>
        <time>2018-02-18T13:05:39Z</time>
      </trkpt>
      <trkpt lat="47.80333" lon="5.41511">
        <ele>352.6</ele>
        <time>2018-02-18T13:05:44Z</time>
      </trkpt>
      <trkpt lat="47.80336" lon="5.41504">
        <ele>353.1</ele>
        <time>2018-02-18T13:05:49Z</time>
      </trkpt>
      <trkpt lat="47.80339" lon="5.41495">
        <ele>352.8</ele>
        <time>2018-02-18T13:05:54Z</time>
      </trkpt>
      <trkpt lat="47.80341" lon="5.41487">
        <ele>353.3</ele>
        <time>2018-02-18T13:05:59Z</time>
      </trkpt>
      <trkpt lat="47.80343" lon="5.41477">
        <ele>354.3</ele>
        <time>2018-02-18T13:06:04Z</time>
      </trkpt>
      <trkpt lat="47.80347" lon="5.4147">
        <ele>354.8</ele>
        <time>2018-02-18T13:06:09Z</time>
      </trkpt>
      <trkpt lat="47.8035" lon="5.41461">
        <ele>355.9</ele>
        <time>2018-02-18T13:06:14Z</time>
      </trkpt>
      <trkpt lat="47.80352" lon="5.41453">
        <ele>356.4</ele>
        <time>2018-02-18T13:06:19Z</time>
      </trkpt>
      <trkpt lat="47.80355" lon="5.41444">
        <ele>357.5</ele>
        <time>2018-02-18T13:06:24Z</time>
      </trkpt>
      <trkpt lat="47.80358" lon="5.41436">
        <ele>357.2</ele>
        <time>2018-02-18T13:06:29Z</time>
      </trkpt>
      <trkpt lat="47.8036" lon="5.41428">
        <ele>357.7</ele>
        <time>2018-02-18T13:06:34Z</time>
      </trkpt>
      <trkpt lat="47.80361" lon="5.41419">
        <ele>358</ele>
        <time>2018-02-18T13:06:39Z</time>
      </trkpt>
      <trkpt lat="47.80362" lon="5.41409">
        <ele>358.3</ele>
        <time>2018-02-18T13:06:44Z</time>
      </trkpt>
      <trkpt lat="47.80362" lon="5.414">
        <ele>359.2</ele>
        <time>2018-02-18T13:06:49Z</time>
      </trkpt>
      <trkpt lat="47.80363" lon="5.41392">
        <ele>358.9</ele>
        <time>2018-02-18T13:06:54Z</time>
      </trkpt>
      <trkpt lat="47.80363" lon="5.41389">
        <ele>358.7</ele>
        <time>2018-02-18T13:06:59Z</time>
      </trkpt>
      <trkpt lat="47.80362" lon="5.41389">
        <ele>358</ele>
        <time>2018-02-18T13:07:04Z</time>
      </trkpt>
      <trkpt lat="47.8036" lon="5.41389">
        <ele>358.6</ele>
        <time>2018-02-18T13:07:09Z</time>
      </trkpt>
      <trkpt lat="47.80359" lon="5.41384">
        <ele>358.3</ele>
        <time>2018-02-18T13:07:14Z</time>
      </trkpt>
      <trkpt lat="47.80357" lon="5.41375">
        <ele>359.1</ele>
        <time>2018-02-18T13:07:19Z</time>
      </trkpt>
      <trkpt lat="47.80356" lon="5.41367">
        <ele>359.4</ele>
        <time>2018-02-18T13:07:24Z</time>
      </trkpt>
      <trkpt lat="47.80352" lon="5.4136">
        <ele>360.2</ele>
        <time>2018-02-18T13:07:29Z</time>
      </trkpt>
      <trkpt lat="47.80348" lon="5.41353">
        <ele>361.1</ele>
        <time>2018-02-18T13:07:34Z</time>
      </trkpt>
      <trkpt lat="47.80345" lon="5.41346">
        <ele>362</ele>
        <time>2018-02-18T13:07:39Z</time>
      </trkpt>
      <trkpt lat="47.80341" lon="5.41338">
        <ele>362.1</ele>
        <time>2018-02-18T13:07:44Z</time>
      </trkpt>
      <trkpt lat="47.80337" lon="5.41331">
        <ele>363</ele>
        <time>2018-02-18T13:07:49Z</time>
      </trkpt>
      <trkpt lat="47.80334" lon="5.41324">
        <ele>363.2</ele>
        <time>2018-02-18T13:07:54Z</time>
      </trkpt>
      <trkpt lat="47.80331" lon="5.41317">
        <ele>364.1</ele>
        <time>2018-02-18T13:07:59Z</time>
      </trkpt>
      <trkpt lat="47.80328" lon="5.4131">
        <ele>364.3</ele>
        <time>2018-02-18T13:08:04Z</time>
      </trkpt>
      <trkpt lat="47.80324" lon="5.41304">
        <ele>364.5</ele>
        <time>2018-02-18T13:08:09Z</time>
      </trkpt>
      <trkpt lat="47.8032" lon="5.41297">
        <ele>365.4</ele>
        <time>2018-02-18T13:08:14Z</time>
      </trkpt>
      <trkpt lat="47.80317" lon="5.4129">
        <ele>364.8</ele>
        <time>2018-02-18T13:08:19Z</time>
      </trkpt>
      <trkpt lat="47.80314" lon="5.41282">
        <ele>366.4</ele>
        <time>2018-02-18T13:08:24Z</time>
      </trkpt>
      <trkpt lat="47.8031" lon="5.41274">
        <ele>367.3</ele>
        <time>2018-02-18T13:08:29Z</time>
      </trkpt>
      <trkpt lat="47.80307" lon="5.41267">
        <ele>366.7</ele>
        <time>2018-02-18T13:08:34Z</time>
      </trkpt>
      <trkpt lat="47.80303" lon="5.41259">
        <ele>367.5</ele>
        <time>2018-02-18T13:08:39Z</time>
      </trkpt>
      <trkpt lat="47.803" lon="5.41251">
        <ele>367.7</ele>
        <time>2018-02-18T13:08:44Z</time>
      </trkpt>
      <trkpt lat="47.80298" lon="5.41244">
        <ele>367.9</ele>
        <time>2018-02-18T13:08:49Z</time>
      </trkpt>
      <trkpt lat="47.80295" lon="5.41235">
        <ele>368</ele>
        <time>2018-02-18T13:08:54Z</time>
      </trkpt>
      <trkpt lat="47.80291" lon="5.41227">
        <ele>367.4</ele>
        <time>2018-02-18T13:08:59Z</time>
      </trkpt>
      <trkpt lat="47.80288" lon="5.4122">
        <ele>367.6</ele>
        <time>2018-02-18T13:09:04Z</time>
      </trkpt>
      <trkpt lat="47.80285" lon="5.41211">
        <ele>368.5</ele>
        <time>2018-02-18T13:09:09Z</time>
      </trkpt>
      <trkpt lat="47.80282" lon="5.41203">
        <ele>368.6</ele>
        <time>2018-02-18T13:09:14Z</time>
      </trkpt>
      <trkpt lat="47.80279" lon="5.41195">
        <ele>368.7</ele>
        <time>2018-02-18T13:09:19Z</time>
      </trkpt>
      <trkpt lat="47.80276" lon="5.41188">
        <ele>368.2</ele>
        <time>2018-02-18T13:09:24Z</time>
      </trkpt>
      <trkpt lat="47.80273" lon="5.41179">
        <ele>368.4</ele>
        <time>2018-02-18T13:09:29Z</time>
      </trkpt>
      <trkpt lat="47.8027" lon="5.41171">
        <ele>368.5</ele>
        <time>2018-02-18T13:09:34Z</time>
      </trkpt>
      <trkpt lat="47.80267" lon="5.41163">
        <ele>368.6</ele>
        <time>2018-02-18T13:09:39Z</time>
      </trkpt>
      <trkpt lat="47.80264" lon="5.41154">
        <ele>368.1</ele>
        <time>2018-02-18T13:09:44Z</time>
      </trkpt>
      <trkpt lat="47.8026" lon="5.41147">
        <ele>368.9</ele>
        <time>2018-02-18T13:09:49Z</time>
      </trkpt>
      <trkpt lat="47.80257" lon="5.41139">
        <ele>369.7</ele>
        <time>2018-02-18T13:09:54Z</time>
      </trkpt>
      <trkpt lat="47.80254" lon="5.41132">
        <ele>369.9</ele>
        <time>2018-02-18T13:09:59Z</time>
      </trkpt>
      <trkpt lat="47.80251" lon="5.41125">
        <ele>370.2</ele>
        <time>2018-02-18T13:10:04Z</time>
      </trkpt>
      <trkpt lat="47.80248" lon="5.41116">
        <ele>370.3</ele>
        <time>2018-02-18T13:10:09Z</time>
      </trkpt>
      <trkpt lat="47.80245" lon="5.41109">
        <ele>370.5</ele>
        <time>2018-02-18T13:10:14Z</time>
      </trkpt>
      <trkpt lat="47.80241" lon="5.41102">
        <ele>370.6</ele>
        <time>2018-02-18T13:10:19Z</time>
      </trkpt>
      <trkpt lat="47.80238" lon="5.41095">
        <ele>370.9</ele>
        <time>2018-02-18T13:10:24Z</time>
      </trkpt>
      <trkpt lat="47.80235" lon="5.41088">
        <ele>371.1</ele>
        <time>2018-02-18T13:10:29Z</time>
      </trkpt>
      <trkpt lat="47.80233" lon="5.4108">
        <ele>371.2</ele>
        <time>2018-02-18T13:10:34Z</time>
      </trkpt>
      <trkpt lat="47.80229" lon="5.41073">
        <ele>372.1</ele>
        <time>2018-02-18T13:10:39Z</time>
      </trkpt>
      <trkpt lat="47.80227" lon="5.41066">
        <ele>371.6</ele>
        <time>2018-02-18T13:10:44Z</time>
      </trkpt>
      <trkpt lat="47.80224" lon="5.41059">
        <ele>371.8</ele>
        <time>2018-02-18T13:10:49Z</time>
      </trkpt>
      <trkpt lat="47.80221" lon="5.41052">
        <ele>372</ele>
        <time>2018-02-18T13:10:54Z</time>
      </trkpt>
      <trkpt lat="47.80219" lon="5.41045">
        <ele>371.6</ele>
        <time>2018-02-18T13:10:59Z</time>
      </trkpt>
      <trkpt lat="47.80216" lon="5.41036">
        <ele>371.7</ele>
        <time>2018-02-18T13:11:04Z</time>
      </trkpt>
      <trkpt lat="47.80214" lon="5.41032">
        <ele>372.1</ele>
        <time>2018-02-18T13:11:09Z</time>
      </trkpt>
      <trkpt lat="47.80214" lon="5.41032">
        <ele>372.1</ele>
        <time>2018-02-18T13:11:14Z</time>
      </trkpt>
      <trkpt lat="47.80214" lon="5.41032">
        <ele>372.1</ele>
        <time>2018-02-18T13:11:19Z</time>
      </trkpt>
      <trkpt lat="47.80214" lon="5.41032">
        <ele>372.8</ele>
        <time>2018-02-18T13:11:24Z</time>
      </trkpt>
      <trkpt lat="47.80214" lon="5.41032">
        <ele>372.1</ele>
        <time>2018-02-18T13:11:29Z</time>
      </trkpt>
      <trkpt lat="47.80214" lon="5.41032">
        <ele>372.1</ele>
        <time>2018-02-18T13:11:34Z</time>
      </trkpt>
      <trkpt lat="47.80216" lon="5.41034">
        <ele>372.3</ele>
        <time>2018-02-18T13:11:39Z</time>
      </trkpt>
      <trkpt lat="47.80216" lon="5.41034">
        <ele>372.3</ele>
        <time>2018-02-18T13:11:44Z</time>
      </trkpt>
      <trkpt lat="47.80216" lon="5.41034">
        <ele>372.3</ele>
        <time>2018-02-18T13:11:49Z</time>
      </trkpt>
      <trkpt lat="47.80216" lon="5.41034">
        <ele>372.3</ele>
        <time>2018-02-18T13:11:54Z</time>
      </trkpt>
      <trkpt lat="47.80216" lon="5.41034">
        <ele>372.3</ele>
        <time>2018-02-18T13:11:59Z</time>
      </trkpt>
      <trkpt lat="47.80214" lon="5.41035">
        <ele>372.9</ele>
        <time>2018-02-18T13:12:04Z</time>
      </trkpt>
      <trkpt lat="47.80213" lon="5.41035">
        <ele>373.6</ele>
        <time>2018-02-18T13:12:09Z</time>
      </trkpt>
      <trkpt lat="47.80211" lon="5.41028">
        <ele>373.9</ele>
        <time>2018-02-18T13:12:14Z</time>
      </trkpt>
      <trkpt lat="47.80208" lon="5.41019">
        <ele>374.7</ele>
        <time>2018-02-18T13:12:19Z</time>
      </trkpt>
      <trkpt lat="47.80205" lon="5.41012">
        <ele>374.9</ele>
        <time>2018-02-18T13:12:24Z</time>
      </trkpt>
      <trkpt lat="47.80202" lon="5.41004">
        <ele>375</ele>
        <time>2018-02-18T13:12:29Z</time>
      </trkpt>
      <trkpt lat="47.80199" lon="5.40995">
        <ele>375.8</ele>
        <time>2018-02-18T13:12:34Z</time>
      </trkpt>
      <trkpt lat="47.80196" lon="5.40987">
        <ele>376</ele>
        <time>2018-02-18T13:12:39Z</time>
      </trkpt>
      <trkpt lat="47.80193" lon="5.4098">
        <ele>376.2</ele>
        <time>2018-02-18T13:12:44Z</time>
      </trkpt>
      <trkpt lat="47.8019" lon="5.40972">
        <ele>376.3</ele>
        <time>2018-02-18T13:12:49Z</time>
      </trkpt>
      <trkpt lat="47.80187" lon="5.40965">
        <ele>376.6</ele>
        <time>2018-02-18T13:12:54Z</time>
      </trkpt>
      <trkpt lat="47.80184" lon="5.40956">
        <ele>377.4</ele>
        <time>2018-02-18T13:12:59Z</time>
      </trkpt>
      <trkpt lat="47.80181" lon="5.40949">
        <ele>377.6</ele>
        <time>2018-02-18T13:13:04Z</time>
      </trkpt>
      <trkpt lat="47.80177" lon="5.40941">
        <ele>377.6</ele>
        <time>2018-02-18T13:13:09Z</time>
      </trkpt>
      <trkpt lat="47.80174" lon="5.40932">
        <ele>377.8</ele>
        <time>2018-02-18T13:13:14Z</time>
      </trkpt>
      <trkpt lat="47.8017" lon="5.40925">
        <ele>378.7</ele>
        <time>2018-02-18T13:13:19Z</time>
      </trkpt>
      <trkpt lat="47.80168" lon="5.40917">
        <ele>378.8</ele>
        <time>2018-02-18T13:13:24Z</time>
      </trkpt>
      <trkpt lat="47.80165" lon="5.40908">
        <ele>379</ele>
        <time>2018-02-18T13:13:29Z</time>
      </trkpt>
      <trkpt lat="47.80161" lon="5.40901">
        <ele>379.8</ele>
        <time>2018-02-18T13:13:34Z</time>
      </trkpt>
      <trkpt lat="47.80157" lon="5.40893">
        <ele>379.9</ele>
        <time>2018-02-18T13:13:39Z</time>
      </trkpt>
      <trkpt lat="47.80154" lon="5.40886">
        <ele>380.1</ele>
        <time>2018-02-18T13:13:44Z</time>
      </trkpt>
      <trkpt lat="47.80151" lon="5.40877">
        <ele>380.9</ele>
        <time>2018-02-18T13:13:49Z</time>
      </trkpt>
      <trkpt lat="47.80149" lon="5.4087">
        <ele>380.5</ele>
        <time>2018-02-18T13:13:54Z</time>
      </trkpt>
      <trkpt lat="47.80146" lon="5.40862">
        <ele>380.6</ele>
        <time>2018-02-18T13:13:59Z</time>
      </trkpt>
      <trkpt lat="47.80142" lon="5.40853">
        <ele>382.8</ele>
        <time>2018-02-18T13:14:04Z</time>
      </trkpt>
      <trkpt lat="47.80139" lon="5.40845">
        <ele>383</ele>
        <time>2018-02-18T13:14:09Z</time>
      </trkpt>
      <trkpt lat="47.80136" lon="5.40837">
        <ele>383.8</ele>
        <time>2018-02-18T13:14:14Z</time>
      </trkpt>
      <trkpt lat="47.80134" lon="5.40828">
        <ele>383.3</ele>
        <time>2018-02-18T13:14:19Z</time>
      </trkpt>
      <trkpt lat="47.80132" lon="5.40823">
        <ele>382.2</ele>
        <time>2018-02-18T13:14:24Z</time>
      </trkpt>
      <trkpt lat="47.80131" lon="5.40817">
        <ele>381.9</ele>
        <time>2018-02-18T13:14:29Z</time>
      </trkpt>
      <trkpt lat="47.80128" lon="5.40809">
        <ele>382</ele>
        <time>2018-02-18T13:14:34Z</time>
      </trkpt>
      <trkpt lat="47.80126" lon="5.40802">
        <ele>383</ele>
        <time>2018-02-18T13:14:39Z</time>
      </trkpt>
      <trkpt lat="47.80125" lon="5.40795">
        <ele>382.6</ele>
        <time>2018-02-18T13:14:44Z</time>
      </trkpt>
      <trkpt lat="47.80124" lon="5.40786">
        <ele>383.5</ele>
        <time>2018-02-18T13:14:49Z</time>
      </trkpt>
      <trkpt lat="47.80125" lon="5.40779">
        <ele>383.9</ele>
        <time>2018-02-18T13:14:54Z</time>
      </trkpt>
      <trkpt lat="47.80127" lon="5.40775">
        <ele>384.5</ele>
        <time>2018-02-18T13:14:59Z</time>
      </trkpt>
      <trkpt lat="47.80129" lon="5.4077">
        <ele>385.1</ele>
        <time>2018-02-18T13:15:04Z</time>
      </trkpt>
      <trkpt lat="47.80131" lon="5.40766">
        <ele>385.7</ele>
        <time>2018-02-18T13:15:09Z</time>
      </trkpt>
      <trkpt lat="47.80134" lon="5.40764">
        <ele>387.1</ele>
        <time>2018-02-18T13:15:14Z</time>
      </trkpt>
      <trkpt lat="47.80137" lon="5.4076">
        <ele>387.1</ele>
        <time>2018-02-18T13:15:19Z</time>
      </trkpt>
      <trkpt lat="47.80139" lon="5.40756">
        <ele>388.5</ele>
        <time>2018-02-18T13:15:24Z</time>
      </trkpt>
      <trkpt lat="47.80142" lon="5.40749">
        <ele>391.1</ele>
        <time>2018-02-18T13:15:29Z</time>
      </trkpt>
      <trkpt lat="47.80144" lon="5.40743">
        <ele>390.9</ele>
        <time>2018-02-18T13:15:34Z</time>
      </trkpt>
      <trkpt lat="47.80144" lon="5.40738">
        <ele>390.6</ele>
        <time>2018-02-18T13:15:39Z</time>
      </trkpt>
      <trkpt lat="47.80143" lon="5.40732">
        <ele>393.1</ele>
        <time>2018-02-18T13:15:44Z</time>
      </trkpt>
      <trkpt lat="47.80142" lon="5.40726">
        <ele>394.9</ele>
        <time>2018-02-18T13:15:49Z</time>
      </trkpt>
      <trkpt lat="47.80141" lon="5.40721">
        <ele>394.6</ele>
        <time>2018-02-18T13:15:54Z</time>
      </trkpt>
      <trkpt lat="47.80143" lon="5.40714">
        <ele>396.5</ele>
        <time>2018-02-18T13:15:59Z</time>
      </trkpt>
      <trkpt lat="47.80144" lon="5.40709">
        <ele>399.8</ele>
        <time>2018-02-18T13:16:04Z</time>
      </trkpt>
      <trkpt lat="47.80146" lon="5.40703">
        <ele>401</ele>
        <time>2018-02-18T13:16:09Z</time>
      </trkpt>
      <trkpt lat="47.80147" lon="5.40698">
        <ele>402.3</ele>
        <time>2018-02-18T13:16:14Z</time>
      </trkpt>
      <trkpt lat="47.80147" lon="5.40694">
        <ele>403.5</ele>
        <time>2018-02-18T13:16:19Z</time>
      </trkpt>
      <trkpt lat="47.80147" lon="5.40688">
        <ele>405.3</ele>
        <time>2018-02-18T13:16:24Z</time>
      </trkpt>
      <trkpt lat="47.80149" lon="5.40683">
        <ele>405.9</ele>
        <time>2018-02-18T13:16:29Z</time>
      </trkpt>
      <trkpt lat="47.8015" lon="5.40679">
        <ele>405</ele>
        <time>2018-02-18T13:16:34Z</time>
      </trkpt>
      <trkpt lat="47.8015" lon="5.40675">
        <ele>407.6</ele>
        <time>2018-02-18T13:16:39Z</time>
      </trkpt>
      <trkpt lat="47.80151" lon="5.40668">
        <ele>408.1</ele>
        <time>2018-02-18T13:16:44Z</time>
      </trkpt>
      <trkpt lat="47.80153" lon="5.40661">
        <ele>407.8</ele>
        <time>2018-02-18T13:16:49Z</time>
      </trkpt>
      <trkpt lat="47.80155" lon="5.40656">
        <ele>407.6</ele>
        <time>2018-02-18T13:16:54Z</time>
      </trkpt>
      <trkpt lat="47.80156" lon="5.40653">
        <ele>408.3</ele>
        <time>2018-02-18T13:16:59Z</time>
      </trkpt>
      <trkpt lat="47.80155" lon="5.40647">
        <ele>408.7</ele>
        <time>2018-02-18T13:17:04Z</time>
      </trkpt>
      <trkpt lat="47.80154" lon="5.40643">
        <ele>410.5</ele>
        <time>2018-02-18T13:17:09Z</time>
      </trkpt>
      <trkpt lat="47.80152" lon="5.40641">
        <ele>411</ele>
        <time>2018-02-18T13:17:14Z</time>
      </trkpt>
      <trkpt lat="47.8015" lon="5.4064">
        <ele>412.3</ele>
        <time>2018-02-18T13:17:19Z</time>
      </trkpt>
      <trkpt lat="47.8015" lon="5.4064">
        <ele>413</ele>
        <time>2018-02-18T13:17:24Z</time>
      </trkpt>
      <trkpt lat="47.80149" lon="5.4064">
        <ele>413.6</ele>
        <time>2018-02-18T13:17:29Z</time>
      </trkpt>
      <trkpt lat="47.8015" lon="5.40637">
        <ele>413.6</ele>
        <time>2018-02-18T13:17:34Z</time>
      </trkpt>
      <trkpt lat="47.8015" lon="5.40637">
        <ele>413.6</ele>
        <time>2018-02-18T13:17:39Z</time>
      </trkpt>
      <trkpt lat="47.80151" lon="5.40636">
        <ele>412.9</ele>
        <time>2018-02-18T13:17:44Z</time>
      </trkpt>
      <trkpt lat="47.80154" lon="5.40634">
        <ele>412.9</ele>
        <time>2018-02-18T13:17:49Z</time>
      </trkpt>
      <trkpt lat="47.80155" lon="5.40632">
        <ele>413.5</ele>
        <time>2018-02-18T13:17:54Z</time>
      </trkpt>
      <trkpt lat="47.80155" lon="5.40634">
        <ele>412.2</ele>
        <time>2018-02-18T13:17:59Z</time>
      </trkpt>
      <trkpt lat="47.80155" lon="5.4063">
        <ele>412</ele>
        <time>2018-02-18T13:18:04Z</time>
      </trkpt>
      <trkpt lat="47.80154" lon="5.40623">
        <ele>412.4</ele>
        <time>2018-02-18T13:18:09Z</time>
      </trkpt>
      <trkpt lat="47.80156" lon="5.40616">
        <ele>413.5</ele>
        <time>2018-02-18T13:18:14Z</time>
      </trkpt>
      <trkpt lat="47.80156" lon="5.40612">
        <ele>413.3</ele>
        <time>2018-02-18T13:18:19Z</time>
      </trkpt>
      <trkpt lat="47.80157" lon="5.40607">
        <ele>413.8</ele>
        <time>2018-02-18T13:18:24Z</time>
      </trkpt>
      <trkpt lat="47.80158" lon="5.40602">
        <ele>412.9</ele>
        <time>2018-02-18T13:18:29Z</time>
      </trkpt>
      <trkpt lat="47.80159" lon="5.40598">
        <ele>413.5</ele>
        <time>2018-02-18T13:18:34Z</time>
      </trkpt>
      <trkpt lat="47.80158" lon="5.40592">
        <ele>414.5</ele>
        <time>2018-02-18T13:18:39Z</time>
      </trkpt>
      <trkpt lat="47.80157" lon="5.40585">
        <ele>414.9</ele>
        <time>2018-02-18T13:18:44Z</time>
      </trkpt>
      <trkpt lat="47.80159" lon="5.40579">
        <ele>414.6</ele>
        <time>2018-02-18T13:18:49Z</time>
      </trkpt>
      <trkpt lat="47.80158" lon="5.40572">
        <ele>415</ele>
        <time>2018-02-18T13:18:54Z</time>
      </trkpt>
      <trkpt lat="47.80159" lon="5.40564">
        <ele>416</ele>
        <time>2018-02-18T13:18:59Z</time>
      </trkpt>
      <trkpt lat="47.80159" lon="5.40556">
        <ele>417.1</ele>
        <time>2018-02-18T13:19:04Z</time>
      </trkpt>
      <trkpt lat="47.80159" lon="5.40549">
        <ele>418.2</ele>
        <time>2018-02-18T13:19:09Z</time>
      </trkpt>
      <trkpt lat="47.80159" lon="5.40541">
        <ele>419.8</ele>
        <time>2018-02-18T13:19:14Z</time>
      </trkpt>
      <trkpt lat="47.80159" lon="5.40533">
        <ele>421.5</ele>
        <time>2018-02-18T13:19:19Z</time>
      </trkpt>
      <trkpt lat="47.80158" lon="5.40526">
        <ele>422.6</ele>
        <time>2018-02-18T13:19:24Z</time>
      </trkpt>
      <trkpt lat="47.80157" lon="5.40519">
        <ele>422.9</ele>
        <time>2018-02-18T13:19:29Z</time>
      </trkpt>
      <trkpt lat="47.80158" lon="5.40512">
        <ele>423.3</ele>
        <time>2018-02-18T13:19:34Z</time>
      </trkpt>
      <trkpt lat="47.80158" lon="5.40504">
        <ele>425</ele>
        <time>2018-02-18T13:19:39Z</time>
      </trkpt>
      <trkpt lat="47.80158" lon="5.40497">
        <ele>426.1</ele>
        <time>2018-02-18T13:19:44Z</time>
      </trkpt>
      <trkpt lat="47.80158" lon="5.40489">
        <ele>427.8</ele>
        <time>2018-02-18T13:19:49Z</time>
      </trkpt>
      <trkpt lat="47.80157" lon="5.40482">
        <ele>429.6</ele>
        <time>2018-02-18T13:19:54Z</time>
      </trkpt>
      <trkpt lat="47.80158" lon="5.40478">
        <ele>428.7</ele>
        <time>2018-02-18T13:19:59Z</time>
      </trkpt>
      <trkpt lat="47.80158" lon="5.40474">
        <ele>428.6</ele>
        <time>2018-02-18T13:20:04Z</time>
      </trkpt>
      <trkpt lat="47.80158" lon="5.40469">
        <ele>429</ele>
        <time>2018-02-18T13:20:09Z</time>
      </trkpt>
      <trkpt lat="47.80159" lon="5.40464">
        <ele>429.5</ele>
        <time>2018-02-18T13:20:14Z</time>
      </trkpt>
      <trkpt lat="47.80158" lon="5.4046">
        <ele>429.9</ele>
        <time>2018-02-18T13:20:19Z</time>
      </trkpt>
      <trkpt lat="47.8016" lon="5.40457">
        <ele>431.3</ele>
        <time>2018-02-18T13:20:24Z</time>
      </trkpt>
      <trkpt lat="47.80161" lon="5.40457">
        <ele>431.4</ele>
        <time>2018-02-18T13:20:29Z</time>
      </trkpt>
      <trkpt lat="47.80162" lon="5.40456">
        <ele>432</ele>
        <time>2018-02-18T13:20:34Z</time>
      </trkpt>
      <trkpt lat="47.80162" lon="5.40454">
        <ele>432</ele>
        <time>2018-02-18T13:20:39Z</time>
      </trkpt>
      <trkpt lat="47.80162" lon="5.40454">
        <ele>432</ele>
        <time>2018-02-18T13:20:44Z</time>
      </trkpt>
      <trkpt lat="47.80163" lon="5.40452">
        <ele>430.5</ele>
        <time>2018-02-18T13:20:49Z</time>
      </trkpt>
      <trkpt lat="47.80163" lon="5.40447">
        <ele>428.8</ele>
        <time>2018-02-18T13:20:54Z</time>
      </trkpt>
      <trkpt lat="47.80164" lon="5.40441">
        <ele>428.6</ele>
        <time>2018-02-18T13:20:59Z</time>
      </trkpt>
      <trkpt lat="47.80166" lon="5.40436">
        <ele>427.7</ele>
        <time>2018-02-18T13:21:04Z</time>
      </trkpt>
      <trkpt lat="47.80167" lon="5.40431">
        <ele>426.8</ele>
        <time>2018-02-18T13:21:09Z</time>
      </trkpt>
      <trkpt lat="47.80168" lon="5.40425">
        <ele>426.6</ele>
        <time>2018-02-18T13:21:14Z</time>
      </trkpt>
      <trkpt lat="47.80168" lon="5.40419">
        <ele>427</ele>
        <time>2018-02-18T13:21:19Z</time>
      </trkpt>
      <trkpt lat="47.80168" lon="5.40412">
        <ele>428.8</ele>
        <time>2018-02-18T13:21:24Z</time>
      </trkpt>
      <trkpt lat="47.80167" lon="5.40404">
        <ele>431.1</ele>
        <time>2018-02-18T13:21:29Z</time>
      </trkpt>
      <trkpt lat="47.80166" lon="5.40396">
        <ele>432.8</ele>
        <time>2018-02-18T13:21:34Z</time>
      </trkpt>
      <trkpt lat="47.80168" lon="5.40393">
        <ele>432.8</ele>
        <time>2018-02-18T13:21:39Z</time>
      </trkpt>
      <trkpt lat="47.80171" lon="5.40394">
        <ele>433</ele>
        <time>2018-02-18T13:21:44Z</time>
      </trkpt>
      <trkpt lat="47.80173" lon="5.40394">
        <ele>432.4</ele>
        <time>2018-02-18T13:21:49Z</time>
      </trkpt>
      <trkpt lat="47.80178" lon="5.40393">
        <ele>431.9</ele>
        <time>2018-02-18T13:21:54Z</time>
      </trkpt>
      <trkpt lat="47.8018" lon="5.40393">
        <ele>433.4</ele>
        <time>2018-02-18T13:21:59Z</time>
      </trkpt>
      <trkpt lat="47.80183" lon="5.40395">
        <ele>433</ele>
        <time>2018-02-18T13:22:04Z</time>
      </trkpt>
      <trkpt lat="47.80184" lon="5.40395">
        <ele>433.7</ele>
        <time>2018-02-18T13:22:09Z</time>
      </trkpt>
      <trkpt lat="47.80186" lon="5.40395">
        <ele>435.9</ele>
        <time>2018-02-18T13:22:14Z</time>
      </trkpt>
      <trkpt lat="47.80186" lon="5.40395">
        <ele>435.9</ele>
        <time>2018-02-18T13:22:19Z</time>
      </trkpt>
      <trkpt lat="47.80186" lon="5.40395">
        <ele>436.7</ele>
        <time>2018-02-18T13:22:24Z</time>
      </trkpt>
      <trkpt lat="47.80186" lon="5.40395">
        <ele>436.7</ele>
        <time>2018-02-18T13:22:29Z</time>
      </trkpt>
      <trkpt lat="47.80187" lon="5.40395">
        <ele>437.4</ele>
        <time>2018-02-18T13:22:34Z</time>
      </trkpt>
      <trkpt lat="47.80187" lon="5.40396">
        <ele>436.1</ele>
        <time>2018-02-18T13:22:39Z</time>
      </trkpt>
      <trkpt lat="47.80193" lon="5.404">
        <ele>434.4</ele>
        <time>2018-02-18T13:22:44Z</time>
      </trkpt>
      <trkpt lat="47.80197" lon="5.40402">
        <ele>432.6</ele>
        <time>2018-02-18T13:22:49Z</time>
      </trkpt>
      <trkpt lat="47.80202" lon="5.40402">
        <ele>432.1</ele>
        <time>2018-02-18T13:22:54Z</time>
      </trkpt>
      <trkpt lat="47.80203" lon="5.40405">
        <ele>433.8</ele>
        <time>2018-02-18T13:22:59Z</time>
      </trkpt>
      <trkpt lat="47.80204" lon="5.40408">
        <ele>434</ele>
        <time>2018-02-18T13:23:04Z</time>
      </trkpt>
      <trkpt lat="47.80209" lon="5.40412">
        <ele>433.8</ele>
        <time>2018-02-18T13:23:09Z</time>
      </trkpt>
      <trkpt lat="47.80215" lon="5.40417">
        <ele>433.6</ele>
        <time>2018-02-18T13:23:14Z</time>
      </trkpt>
      <trkpt lat="47.80215" lon="5.40421">
        <ele>435.9</ele>
        <time>2018-02-18T13:23:19Z</time>
      </trkpt>
      <trkpt lat="47.80217" lon="5.40424">
        <ele>435.4</ele>
        <time>2018-02-18T13:23:24Z</time>
      </trkpt>
      <trkpt lat="47.80217" lon="5.40426">
        <ele>435.6</ele>
        <time>2018-02-18T13:23:29Z</time>
      </trkpt>
      <trkpt lat="47.80217" lon="5.40428">
        <ele>435.6</ele>
        <time>2018-02-18T13:23:34Z</time>
      </trkpt>
      <trkpt lat="47.80218" lon="5.40426">
        <ele>436.3</ele>
        <time>2018-02-18T13:23:39Z</time>
      </trkpt>
      <trkpt lat="47.80218" lon="5.40424">
        <ele>435.5</ele>
        <time>2018-02-18T13:23:44Z</time>
      </trkpt>
      <trkpt lat="47.8022" lon="5.40423">
        <ele>436.3</ele>
        <time>2018-02-18T13:23:49Z</time>
      </trkpt>
      <trkpt lat="47.80222" lon="5.4042">
        <ele>437</ele>
        <time>2018-02-18T13:23:54Z</time>
      </trkpt>
      <trkpt lat="47.80224" lon="5.40417">
        <ele>439</ele>
        <time>2018-02-18T13:23:59Z</time>
      </trkpt>
      <trkpt lat="47.80227" lon="5.40415">
        <ele>439.1</ele>
        <time>2018-02-18T13:24:04Z</time>
      </trkpt>
      <trkpt lat="47.80229" lon="5.40414">
        <ele>439.8</ele>
        <time>2018-02-18T13:24:09Z</time>
      </trkpt>
      <trkpt lat="47.80233" lon="5.40414">
        <ele>440</ele>
        <time>2018-02-18T13:24:14Z</time>
      </trkpt>
      <trkpt lat="47.80233" lon="5.40414">
        <ele>440.8</ele>
        <time>2018-02-18T13:24:19Z</time>
      </trkpt>
      <trkpt lat="47.80236" lon="5.40415">
        <ele>440.2</ele>
        <time>2018-02-18T13:24:24Z</time>
      </trkpt>
      <trkpt lat="47.8024" lon="5.40415">
        <ele>440.5</ele>
        <time>2018-02-18T13:24:29Z</time>
      </trkpt>
      <trkpt lat="47.80245" lon="5.40417">
        <ele>441.5</ele>
        <time>2018-02-18T13:24:34Z</time>
      </trkpt>
      <trkpt lat="47.80246" lon="5.40417">
        <ele>442.3</ele>
        <time>2018-02-18T13:24:39Z</time>
      </trkpt>
      <trkpt lat="47.80249" lon="5.40416">
        <ele>442.4</ele>
        <time>2018-02-18T13:24:44Z</time>
      </trkpt>
      <trkpt lat="47.80254" lon="5.40416">
        <ele>443.3</ele>
        <time>2018-02-18T13:24:49Z</time>
      </trkpt>
      <trkpt lat="47.80255" lon="5.40415">
        <ele>443.3</ele>
        <time>2018-02-18T13:24:54Z</time>
      </trkpt>
      <trkpt lat="47.80255" lon="5.40415">
        <ele>443.3</ele>
        <time>2018-02-18T13:24:59Z</time>
      </trkpt>
      <trkpt lat="47.80257" lon="5.40416">
        <ele>444.2</ele>
        <time>2018-02-18T13:25:04Z</time>
      </trkpt>
      <trkpt lat="47.80259" lon="5.40415">
        <ele>445</ele>
        <time>2018-02-18T13:25:09Z</time>
      </trkpt>
      <trkpt lat="47.80262" lon="5.40415">
        <ele>445.2</ele>
        <time>2018-02-18T13:25:14Z</time>
      </trkpt>
      <trkpt lat="47.80267" lon="5.40416">
        <ele>447.6</ele>
        <time>2018-02-18T13:25:19Z</time>
      </trkpt>
      <trkpt lat="47.8027" lon="5.40416">
        <ele>448.4</ele>
        <time>2018-02-18T13:25:24Z</time>
      </trkpt>
      <trkpt lat="47.80278" lon="5.4042">
        <ele>448.3</ele>
        <time>2018-02-18T13:25:29Z</time>
      </trkpt>
      <trkpt lat="47.80281" lon="5.40424">
        <ele>448</ele>
        <time>2018-02-18T13:25:34Z</time>
      </trkpt>
      <trkpt lat="47.80283" lon="5.40425">
        <ele>448.9</ele>
        <time>2018-02-18T13:25:39Z</time>
      </trkpt>
      <trkpt lat="47.80284" lon="5.40427">
        <ele>449</ele>
        <time>2018-02-18T13:25:44Z</time>
      </trkpt>
      <trkpt lat="47.80284" lon="5.40431">
        <ele>449.2</ele>
        <time>2018-02-18T13:25:49Z</time>
      </trkpt>
      <trkpt lat="47.80284" lon="5.40431">
        <ele>449.9</ele>
        <time>2018-02-18T13:25:54Z</time>
      </trkpt>
      <trkpt lat="47.80285" lon="5.40431">
        <ele>448.5</ele>
        <time>2018-02-18T13:25:59Z</time>
      </trkpt>
      <trkpt lat="47.80285" lon="5.4043">
        <ele>448.5</ele>
        <time>2018-02-18T13:26:04Z</time>
      </trkpt>
      <trkpt lat="47.80286" lon="5.40428">
        <ele>448.5</ele>
        <time>2018-02-18T13:26:09Z</time>
      </trkpt>
      <trkpt lat="47.80286" lon="5.40428">
        <ele>448.5</ele>
        <time>2018-02-18T13:26:14Z</time>
      </trkpt>
      <trkpt lat="47.80286" lon="5.40428">
        <ele>448.5</ele>
        <time>2018-02-18T13:26:19Z</time>
      </trkpt>
      <trkpt lat="47.80286" lon="5.40428">
        <ele>448.5</ele>
        <time>2018-02-18T13:26:24Z</time>
      </trkpt>
      <trkpt lat="47.80286" lon="5.40428">
        <ele>448.5</ele>
        <time>2018-02-18T13:26:29Z</time>
      </trkpt>
      <trkpt lat="47.80286" lon="5.40428">
        <ele>448.5</ele>
        <time>2018-02-18T13:26:34Z</time>
      </trkpt>
      <trkpt lat="47.80286" lon="5.40428">
        <ele>448.5</ele>
        <time>2018-02-18T13:26:39Z</time>
      </trkpt>
      <trkpt lat="47.80286" lon="5.40428">
        <ele>448.5</ele>
        <time>2018-02-18T13:26:44Z</time>
      </trkpt>
      <trkpt lat="47.80286" lon="5.40428">
        <ele>448.5</ele>
        <time>2018-02-18T13:26:49Z</time>
      </trkpt>
      <trkpt lat="47.80285" lon="5.40428">
        <ele>447.7</ele>
        <time>2018-02-18T13:26:54Z</time>
      </trkpt>
      <trkpt lat="47.80285" lon="5.40428">
        <ele>447.7</ele>
        <time>2018-02-18T13:26:59Z</time>
      </trkpt>
      <trkpt lat="47.80285" lon="5.40428">
        <ele>447.7</ele>
        <time>2018-02-18T13:27:04Z</time>
      </trkpt>
      <trkpt lat="47.80285" lon="5.40428">
        <ele>447.7</ele>
        <time>2018-02-18T13:27:09Z</time>
      </trkpt>
      <trkpt lat="47.80285" lon="5.40428">
        <ele>447.7</ele>
        <time>2018-02-18T13:27:14Z</time>
      </trkpt>
      <trkpt lat="47.80285" lon="5.40428">
        <ele>447.7</ele>
        <time>2018-02-18T13:27:19Z</time>
      </trkpt>
      <trkpt lat="47.80285" lon="5.40428">
        <ele>447.7</ele>
        <time>2018-02-18T13:27:24Z</time>
      </trkpt>
      <trkpt lat="47.80285" lon="5.40428">
        <ele>447.7</ele>
        <time>2018-02-18T13:27:29Z</time>
      </trkpt>
      <trkpt lat="47.80285" lon="5.40428">
        <ele>447.7</ele>
        <time>2018-02-18T13:27:34Z</time>
      </trkpt>
      <trkpt lat="47.80285" lon="5.40428">
        <ele>447.7</ele>
        <time>2018-02-18T13:27:39Z</time>
      </trkpt>
      <trkpt lat="47.80286" lon="5.40427">
        <ele>447</ele>
        <time>2018-02-18T13:27:44Z</time>
      </trkpt>
      <trkpt lat="47.80286" lon="5.40427">
        <ele>447</ele>
        <time>2018-02-18T13:27:49Z</time>
      </trkpt>
      <trkpt lat="47.80286" lon="5.40427">
        <ele>447</ele>
        <time>2018-02-18T13:27:54Z</time>
      </trkpt>
      <trkpt lat="47.80287" lon="5.40427">
        <ele>447.7</ele>
        <time>2018-02-18T13:27:59Z</time>
      </trkpt>
      <trkpt lat="47.80287" lon="5.40427">
        <ele>447.7</ele>
        <time>2018-02-18T13:28:04Z</time>
      </trkpt>
      <trkpt lat="47.80287" lon="5.40427">
        <ele>447.7</ele>
        <time>2018-02-18T13:28:09Z</time>
      </trkpt>
      <trkpt lat="47.80287" lon="5.40427">
        <ele>447.7</ele>
        <time>2018-02-18T13:28:14Z</time>
      </trkpt>
      <trkpt lat="47.80287" lon="5.40427">
        <ele>447.7</ele>
        <time>2018-02-18T13:28:19Z</time>
      </trkpt>
      <trkpt lat="47.80287" lon="5.40427">
        <ele>447.7</ele>
        <time>2018-02-18T13:28:24Z</time>
      </trkpt>
      <trkpt lat="47.80287" lon="5.40427">
        <ele>449.2</ele>
        <time>2018-02-18T13:28:29Z</time>
      </trkpt>
      <trkpt lat="47.80287" lon="5.40427">
        <ele>449.2</ele>
        <time>2018-02-18T13:28:34Z</time>
      </trkpt>
      <trkpt lat="47.80287" lon="5.40427">
        <ele>449.2</ele>
        <time>2018-02-18T13:28:39Z</time>
      </trkpt>
      <trkpt lat="47.80287" lon="5.40427">
        <ele>449.9</ele>
        <time>2018-02-18T13:28:44Z</time>
      </trkpt>
      <trkpt lat="47.80287" lon="5.40427">
        <ele>449.9</ele>
        <time>2018-02-18T13:28:49Z</time>
      </trkpt>
      <trkpt lat="47.80287" lon="5.40426">
        <ele>449.8</ele>
        <time>2018-02-18T13:28:54Z</time>
      </trkpt>
      <trkpt lat="47.80287" lon="5.40426">
        <ele>449.8</ele>
        <time>2018-02-18T13:28:59Z</time>
      </trkpt>
      <trkpt lat="47.80287" lon="5.40427">
        <ele>449.9</ele>
        <time>2018-02-18T13:29:04Z</time>
      </trkpt>
      <trkpt lat="47.80287" lon="5.40427">
        <ele>449.9</ele>
        <time>2018-02-18T13:29:09Z</time>
      </trkpt>
      <trkpt lat="47.80287" lon="5.40427">
        <ele>449.9</ele>
        <time>2018-02-18T13:29:14Z</time>
      </trkpt>
      <trkpt lat="47.80287" lon="5.40427">
        <ele>449.9</ele>
        <time>2018-02-18T13:29:19Z</time>
      </trkpt>
      <trkpt lat="47.80287" lon="5.40427">
        <ele>449.9</ele>
        <time>2018-02-18T13:29:24Z</time>
      </trkpt>
      <trkpt lat="47.80287" lon="5.40427">
        <ele>449.9</ele>
        <time>2018-02-18T13:29:29Z</time>
      </trkpt>
      <trkpt lat="47.80287" lon="5.40427">
        <ele>450.6</ele>
        <time>2018-02-18T13:29:34Z</time>
      </trkpt>
      <trkpt lat="47.80287" lon="5.40427">
        <ele>450.6</ele>
        <time>2018-02-18T13:29:39Z</time>
      </trkpt>
      <trkpt lat="47.80287" lon="5.40427">
        <ele>450.6</ele>
        <time>2018-02-18T13:29:44Z</time>
      </trkpt>
      <trkpt lat="47.80287" lon="5.40427">
        <ele>450.6</ele>
        <time>2018-02-18T13:29:49Z</time>
      </trkpt>
      <trkpt lat="47.80287" lon="5.40427">
        <ele>450.6</ele>
        <time>2018-02-18T13:29:54Z</time>
      </trkpt>
      <trkpt lat="47.80287" lon="5.40427">
        <ele>450.6</ele>
        <time>2018-02-18T13:29:59Z</time>
      </trkpt>
      <trkpt lat="47.80287" lon="5.40427">
        <ele>450.6</ele>
        <time>2018-02-18T13:30:04Z</time>
      </trkpt>
      <trkpt lat="47.80286" lon="5.40427">
        <ele>449.8</ele>
        <time>2018-02-18T13:30:09Z</time>
      </trkpt>
      <trkpt lat="47.80286" lon="5.40427">
        <ele>449.8</ele>
        <time>2018-02-18T13:30:14Z</time>
      </trkpt>
      <trkpt lat="47.80286" lon="5.40427">
        <ele>449.8</ele>
        <time>2018-02-18T13:30:19Z</time>
      </trkpt>
      <trkpt lat="47.80286" lon="5.40427">
        <ele>449.8</ele>
        <time>2018-02-18T13:30:24Z</time>
      </trkpt>
      <trkpt lat="47.80286" lon="5.40427">
        <ele>449.8</ele>
        <time>2018-02-18T13:30:29Z</time>
      </trkpt>
      <trkpt lat="47.80286" lon="5.40427">
        <ele>449.8</ele>
        <time>2018-02-18T13:30:34Z</time>
      </trkpt>
      <trkpt lat="47.80286" lon="5.40427">
        <ele>449.8</ele>
        <time>2018-02-18T13:30:39Z</time>
      </trkpt>
      <trkpt lat="47.80286" lon="5.40427">
        <ele>449.8</ele>
        <time>2018-02-18T13:30:44Z</time>
      </trkpt>
      <trkpt lat="47.80286" lon="5.40427">
        <ele>449.8</ele>
        <time>2018-02-18T13:30:49Z</time>
      </trkpt>
      <trkpt lat="47.80286" lon="5.40427">
        <ele>449.8</ele>
        <time>2018-02-18T13:30:54Z</time>
      </trkpt>
      <trkpt lat="47.80286" lon="5.40427">
        <ele>449.8</ele>
        <time>2018-02-18T13:30:59Z</time>
      </trkpt>
      <trkpt lat="47.80285" lon="5.40427">
        <ele>450.5</ele>
        <time>2018-02-18T13:31:04Z</time>
      </trkpt>
      <trkpt lat="47.80285" lon="5.40428">
        <ele>453.4</ele>
        <time>2018-02-18T13:31:09Z</time>
      </trkpt>
      <trkpt lat="47.80284" lon="5.40426">
        <ele>454</ele>
        <time>2018-02-18T13:31:14Z</time>
      </trkpt>
      <trkpt lat="47.80285" lon="5.40422">
        <ele>453.8</ele>
        <time>2018-02-18T13:31:19Z</time>
      </trkpt>
      <trkpt lat="47.80287" lon="5.40419">
        <ele>454.4</ele>
        <time>2018-02-18T13:31:24Z</time>
      </trkpt>
      <trkpt lat="47.80289" lon="5.40416">
        <ele>453.7</ele>
        <time>2018-02-18T13:31:29Z</time>
      </trkpt>
      <trkpt lat="47.80291" lon="5.40414">
        <ele>455.1</ele>
        <time>2018-02-18T13:31:34Z</time>
      </trkpt>
      <trkpt lat="47.80294" lon="5.40413">
        <ele>455.2</ele>
        <time>2018-02-18T13:31:39Z</time>
      </trkpt>
      <trkpt lat="47.80296" lon="5.40411">
        <ele>454.5</ele>
        <time>2018-02-18T13:31:44Z</time>
      </trkpt>
      <trkpt lat="47.80298" lon="5.40408">
        <ele>455.2</ele>
        <time>2018-02-18T13:31:49Z</time>
      </trkpt>
      <trkpt lat="47.80302" lon="5.40407">
        <ele>456.7</ele>
        <time>2018-02-18T13:31:54Z</time>
      </trkpt>
      <trkpt lat="47.80304" lon="5.40411">
        <ele>457.1</ele>
        <time>2018-02-18T13:31:59Z</time>
      </trkpt>
      <trkpt lat="47.80307" lon="5.40415">
        <ele>456</ele>
        <time>2018-02-18T13:32:04Z</time>
      </trkpt>
      <trkpt lat="47.80307" lon="5.40422">
        <ele>457</ele>
        <time>2018-02-18T13:32:09Z</time>
      </trkpt>
      <trkpt lat="47.80309" lon="5.40426">
        <ele>458.8</ele>
        <time>2018-02-18T13:32:14Z</time>
      </trkpt>
      <trkpt lat="47.8031" lon="5.40433">
        <ele>457.8</ele>
        <time>2018-02-18T13:32:19Z</time>
      </trkpt>
      <trkpt lat="47.80312" lon="5.40438">
        <ele>458.2</ele>
        <time>2018-02-18T13:32:24Z</time>
      </trkpt>
      <trkpt lat="47.80313" lon="5.40444">
        <ele>457.7</ele>
        <time>2018-02-18T13:32:29Z</time>
      </trkpt>
      <trkpt lat="47.80313" lon="5.40444">
        <ele>456.3</ele>
        <time>2018-02-18T13:32:34Z</time>
      </trkpt>
      <trkpt lat="47.80313" lon="5.40444">
        <ele>456.3</ele>
        <time>2018-02-18T13:32:39Z</time>
      </trkpt>
      <trkpt lat="47.80315" lon="5.40447">
        <ele>458</ele>
        <time>2018-02-18T13:32:44Z</time>
      </trkpt>
      <trkpt lat="47.80319" lon="5.40451">
        <ele>457</ele>
        <time>2018-02-18T13:32:49Z</time>
      </trkpt>
      <trkpt lat="47.80322" lon="5.40457">
        <ele>456.7</ele>
        <time>2018-02-18T13:32:54Z</time>
      </trkpt>
      <trkpt lat="47.80325" lon="5.40461">
        <ele>455</ele>
        <time>2018-02-18T13:32:59Z</time>
      </trkpt>
      <trkpt lat="47.80328" lon="5.40467">
        <ele>456.1</ele>
        <time>2018-02-18T13:33:04Z</time>
      </trkpt>
      <trkpt lat="47.80329" lon="5.40474">
        <ele>458.7</ele>
        <time>2018-02-18T13:33:09Z</time>
      </trkpt>
      <trkpt lat="47.8033" lon="5.4048">
        <ele>461.9</ele>
        <time>2018-02-18T13:33:14Z</time>
      </trkpt>
      <trkpt lat="47.80332" lon="5.40484">
        <ele>462.9</ele>
        <time>2018-02-18T13:33:19Z</time>
      </trkpt>
      <trkpt lat="47.80331" lon="5.40487">
        <ele>463.7</ele>
        <time>2018-02-18T13:33:24Z</time>
      </trkpt>
      <trkpt lat="47.8033" lon="5.40484">
        <ele>462.1</ele>
        <time>2018-02-18T13:33:29Z</time>
      </trkpt>
      <trkpt lat="47.80328" lon="5.40483">
        <ele>461.2</ele>
        <time>2018-02-18T13:33:34Z</time>
      </trkpt>
      <trkpt lat="47.80328" lon="5.40481">
        <ele>461.1</ele>
        <time>2018-02-18T13:33:39Z</time>
      </trkpt>
      <trkpt lat="47.80328" lon="5.40481">
        <ele>461.1</ele>
        <time>2018-02-18T13:33:44Z</time>
      </trkpt>
      <trkpt lat="47.80328" lon="5.40481">
        <ele>461.1</ele>
        <time>2018-02-18T13:33:49Z</time>
      </trkpt>
      <trkpt lat="47.80328" lon="5.40481">
        <ele>461.1</ele>
        <time>2018-02-18T13:33:54Z</time>
      </trkpt>
      <trkpt lat="47.80327" lon="5.40481">
        <ele>461.1</ele>
        <time>2018-02-18T13:33:59Z</time>
      </trkpt>
      <trkpt lat="47.80327" lon="5.40481">
        <ele>462.5</ele>
        <time>2018-02-18T13:34:04Z</time>
      </trkpt>
      <trkpt lat="47.80326" lon="5.40482">
        <ele>462.5</ele>
        <time>2018-02-18T13:34:09Z</time>
      </trkpt>
      <trkpt lat="47.80323" lon="5.40486">
        <ele>462.5</ele>
        <time>2018-02-18T13:34:14Z</time>
      </trkpt>
      <trkpt lat="47.8032" lon="5.40486">
        <ele>461.6</ele>
        <time>2018-02-18T13:34:19Z</time>
      </trkpt>
      <trkpt lat="47.80319" lon="5.40484">
        <ele>460.8</ele>
        <time>2018-02-18T13:34:24Z</time>
      </trkpt>
      <trkpt lat="47.80319" lon="5.40484">
        <ele>460.8</ele>
        <time>2018-02-18T13:34:29Z</time>
      </trkpt>
      <trkpt lat="47.80319" lon="5.40484">
        <ele>460.8</ele>
        <time>2018-02-18T13:34:34Z</time>
      </trkpt>
      <trkpt lat="47.80318" lon="5.40483">
        <ele>459.3</ele>
        <time>2018-02-18T13:34:39Z</time>
      </trkpt>
      <trkpt lat="47.80318" lon="5.40483">
        <ele>459.3</ele>
        <time>2018-02-18T13:34:44Z</time>
      </trkpt>
      <trkpt lat="47.80318" lon="5.40483">
        <ele>459.3</ele>
        <time>2018-02-18T13:34:49Z</time>
      </trkpt>
      <trkpt lat="47.80318" lon="5.40483">
        <ele>459.3</ele>
        <time>2018-02-18T13:34:54Z</time>
      </trkpt>
      <trkpt lat="47.80318" lon="5.40483">
        <ele>459.3</ele>
        <time>2018-02-18T13:34:59Z</time>
      </trkpt>
      <trkpt lat="47.80317" lon="5.40482">
        <ele>458.5</ele>
        <time>2018-02-18T13:35:04Z</time>
      </trkpt>
      <trkpt lat="47.80317" lon="5.40482">
        <ele>458.5</ele>
        <time>2018-02-18T13:35:09Z</time>
      </trkpt>
      <trkpt lat="47.80319" lon="5.40485">
        <ele>458</ele>
        <time>2018-02-18T13:35:14Z</time>
      </trkpt>
      <trkpt lat="47.80319" lon="5.40485">
        <ele>456.6</ele>
        <time>2018-02-18T13:35:19Z</time>
      </trkpt>
      <trkpt lat="47.80319" lon="5.40484">
        <ele>455.1</ele>
        <time>2018-02-18T13:35:24Z</time>
      </trkpt>
      <trkpt lat="47.8032" lon="5.40484">
        <ele>454.4</ele>
        <time>2018-02-18T13:35:29Z</time>
      </trkpt>
      <trkpt lat="47.80322" lon="5.40481">
        <ele>454.4</ele>
        <time>2018-02-18T13:35:34Z</time>
      </trkpt>
      <trkpt lat="47.80324" lon="5.40479">
        <ele>455.1</ele>
        <time>2018-02-18T13:35:39Z</time>
      </trkpt>
      <trkpt lat="47.80324" lon="5.40475">
        <ele>455.6</ele>
        <time>2018-02-18T13:35:44Z</time>
      </trkpt>
      <trkpt lat="47.80326" lon="5.40475">
        <ele>457.1</ele>
        <time>2018-02-18T13:35:49Z</time>
      </trkpt>
      <trkpt lat="47.80328" lon="5.40471">
        <ele>459.1</ele>
        <time>2018-02-18T13:35:54Z</time>
      </trkpt>
      <trkpt lat="47.80328" lon="5.40471">
        <ele>458.5</ele>
        <time>2018-02-18T13:35:59Z</time>
      </trkpt>
      <trkpt lat="47.80329" lon="5.40469">
        <ele>459.9</ele>
        <time>2018-02-18T13:36:04Z</time>
      </trkpt>
      <trkpt lat="47.80331" lon="5.40464">
        <ele>458.3</ele>
        <time>2018-02-18T13:36:09Z</time>
      </trkpt>
      <trkpt lat="47.80329" lon="5.40461">
        <ele>458.8</ele>
        <time>2018-02-18T13:36:14Z</time>
      </trkpt>
      <trkpt lat="47.80327" lon="5.40457">
        <ele>459.2</ele>
        <time>2018-02-18T13:36:19Z</time>
      </trkpt>
      <trkpt lat="47.80324" lon="5.40453">
        <ele>459.5</ele>
        <time>2018-02-18T13:36:24Z</time>
      </trkpt>
      <trkpt lat="47.8032" lon="5.40448">
        <ele>460.4</ele>
        <time>2018-02-18T13:36:29Z</time>
      </trkpt>
      <trkpt lat="47.80315" lon="5.40444">
        <ele>461.4</ele>
        <time>2018-02-18T13:36:34Z</time>
      </trkpt>
      <trkpt lat="47.80312" lon="5.40439">
        <ele>460.3</ele>
        <time>2018-02-18T13:36:39Z</time>
      </trkpt>
      <trkpt lat="47.80308" lon="5.40432">
        <ele>459.8</ele>
        <time>2018-02-18T13:36:44Z</time>
      </trkpt>
      <trkpt lat="47.80304" lon="5.40425">
        <ele>459.9</ele>
        <time>2018-02-18T13:36:49Z</time>
      </trkpt>
      <trkpt lat="47.803" lon="5.40421">
        <ele>461.6</ele>
        <time>2018-02-18T13:36:54Z</time>
      </trkpt>
      <trkpt lat="47.80295" lon="5.40413">
        <ele>463.1</ele>
        <time>2018-02-18T13:36:59Z</time>
      </trkpt>
      <trkpt lat="47.80295" lon="5.40408">
        <ele>462.1</ele>
        <time>2018-02-18T13:37:04Z</time>
      </trkpt>
      <trkpt lat="47.80295" lon="5.40401">
        <ele>461.8</ele>
        <time>2018-02-18T13:37:09Z</time>
      </trkpt>
      <trkpt lat="47.80299" lon="5.40398">
        <ele>459.7</ele>
        <time>2018-02-18T13:37:14Z</time>
      </trkpt>
      <trkpt lat="47.803" lon="5.40395">
        <ele>459.6</ele>
        <time>2018-02-18T13:37:19Z</time>
      </trkpt>
      <trkpt lat="47.80304" lon="5.4039">
        <ele>458.9</ele>
        <time>2018-02-18T13:37:24Z</time>
      </trkpt>
      <trkpt lat="47.80305" lon="5.40389">
        <ele>458.9</ele>
        <time>2018-02-18T13:37:29Z</time>
      </trkpt>
      <trkpt lat="47.80304" lon="5.40389">
        <ele>461.6</ele>
        <time>2018-02-18T13:37:34Z</time>
      </trkpt>
      <trkpt lat="47.80305" lon="5.40393">
        <ele>461.2</ele>
        <time>2018-02-18T13:37:39Z</time>
      </trkpt>
      <trkpt lat="47.80305" lon="5.40396">
        <ele>460.6</ele>
        <time>2018-02-18T13:37:44Z</time>
      </trkpt>
      <trkpt lat="47.80303" lon="5.404">
        <ele>460</ele>
        <time>2018-02-18T13:37:49Z</time>
      </trkpt>
      <trkpt lat="47.80299" lon="5.40401">
        <ele>460.6</ele>
        <time>2018-02-18T13:37:54Z</time>
      </trkpt>
      <trkpt lat="47.80299" lon="5.40399">
        <ele>459.7</ele>
        <time>2018-02-18T13:37:59Z</time>
      </trkpt>
      <trkpt lat="47.80297" lon="5.40399">
        <ele>461.1</ele>
        <time>2018-02-18T13:38:04Z</time>
      </trkpt>
      <trkpt lat="47.80292" lon="5.40393">
        <ele>459.8</ele>
        <time>2018-02-18T13:38:09Z</time>
      </trkpt>
      <trkpt lat="47.80292" lon="5.40387">
        <ele>458.1</ele>
        <time>2018-02-18T13:38:14Z</time>
      </trkpt>
      <trkpt lat="47.80291" lon="5.4038">
        <ele>459.1</ele>
        <time>2018-02-18T13:38:19Z</time>
      </trkpt>
      <trkpt lat="47.80292" lon="5.40373">
        <ele>458.1</ele>
        <time>2018-02-18T13:38:24Z</time>
      </trkpt>
      <trkpt lat="47.80292" lon="5.40368">
        <ele>458.5</ele>
        <time>2018-02-18T13:38:29Z</time>
      </trkpt>
      <trkpt lat="47.80291" lon="5.40361">
        <ele>459.6</ele>
        <time>2018-02-18T13:38:34Z</time>
      </trkpt>
      <trkpt lat="47.80289" lon="5.40354">
        <ele>460.5</ele>
        <time>2018-02-18T13:38:39Z</time>
      </trkpt>
      <trkpt lat="47.80289" lon="5.40347">
        <ele>460.2</ele>
        <time>2018-02-18T13:38:44Z</time>
      </trkpt>
      <trkpt lat="47.80288" lon="5.40339">
        <ele>461.1</ele>
        <time>2018-02-18T13:38:49Z</time>
      </trkpt>
      <trkpt lat="47.80286" lon="5.40333">
        <ele>460.7</ele>
        <time>2018-02-18T13:38:54Z</time>
      </trkpt>
      <trkpt lat="47.80282" lon="5.40329">
        <ele>460.3</ele>
        <time>2018-02-18T13:38:59Z</time>
      </trkpt>
      <trkpt lat="47.80279" lon="5.40324">
        <ele>459.2</ele>
        <time>2018-02-18T13:39:04Z</time>
      </trkpt>
      <trkpt lat="47.80276" lon="5.40319">
        <ele>459.5</ele>
        <time>2018-02-18T13:39:09Z</time>
      </trkpt>
      <trkpt lat="47.80273" lon="5.40313">
        <ele>459.8</ele>
        <time>2018-02-18T13:39:14Z</time>
      </trkpt>
      <trkpt lat="47.8027" lon="5.40313">
        <ele>459.6</ele>
        <time>2018-02-18T13:39:19Z</time>
      </trkpt>
      <trkpt lat="47.80269" lon="5.40312">
        <ele>458.8</ele>
        <time>2018-02-18T13:39:24Z</time>
      </trkpt>
      <trkpt lat="47.80265" lon="5.40313">
        <ele>460</ele>
        <time>2018-02-18T13:39:29Z</time>
      </trkpt>
      <trkpt lat="47.80262" lon="5.40315">
        <ele>459.3</ele>
        <time>2018-02-18T13:39:34Z</time>
      </trkpt>
      <trkpt lat="47.80257" lon="5.40313">
        <ele>460.3</ele>
        <time>2018-02-18T13:39:39Z</time>
      </trkpt>
      <trkpt lat="47.80256" lon="5.40309">
        <ele>460.1</ele>
        <time>2018-02-18T13:39:44Z</time>
      </trkpt>
      <trkpt lat="47.80256" lon="5.40309">
        <ele>458.7</ele>
        <time>2018-02-18T13:39:49Z</time>
      </trkpt>
      <trkpt lat="47.80254" lon="5.40306">
        <ele>459.1</ele>
        <time>2018-02-18T13:39:54Z</time>
      </trkpt>
      <trkpt lat="47.80251" lon="5.40303">
        <ele>459.5</ele>
        <time>2018-02-18T13:39:59Z</time>
      </trkpt>
      <trkpt lat="47.80252" lon="5.40302">
        <ele>458.8</ele>
        <time>2018-02-18T13:40:04Z</time>
      </trkpt>
      <trkpt lat="47.80248" lon="5.40302">
        <ele>457.9</ele>
        <time>2018-02-18T13:40:09Z</time>
      </trkpt>
      <trkpt lat="47.80248" lon="5.403">
        <ele>458.5</ele>
        <time>2018-02-18T13:40:14Z</time>
      </trkpt>
      <trkpt lat="47.80248" lon="5.403">
        <ele>458.5</ele>
        <time>2018-02-18T13:40:19Z</time>
      </trkpt>
      <trkpt lat="47.80245" lon="5.40297">
        <ele>458.3</ele>
        <time>2018-02-18T13:40:24Z</time>
      </trkpt>
      <trkpt lat="47.80245" lon="5.40297">
        <ele>457.5</ele>
        <time>2018-02-18T13:40:29Z</time>
      </trkpt>
      <trkpt lat="47.80244" lon="5.40297">
        <ele>457.4</ele>
        <time>2018-02-18T13:40:34Z</time>
      </trkpt>
      <trkpt lat="47.80242" lon="5.40294">
        <ele>457.2</ele>
        <time>2018-02-18T13:40:39Z</time>
      </trkpt>
      <trkpt lat="47.80241" lon="5.40289">
        <ele>456.9</ele>
        <time>2018-02-18T13:40:44Z</time>
      </trkpt>
      <trkpt lat="47.80239" lon="5.40282">
        <ele>457.9</ele>
        <time>2018-02-18T13:40:49Z</time>
      </trkpt>
      <trkpt lat="47.80238" lon="5.40275">
        <ele>458.9</ele>
        <time>2018-02-18T13:40:54Z</time>
      </trkpt>
      <trkpt lat="47.8024" lon="5.4027">
        <ele>458</ele>
        <time>2018-02-18T13:40:59Z</time>
      </trkpt>
      <trkpt lat="47.80245" lon="5.4027">
        <ele>457.6</ele>
        <time>2018-02-18T13:41:04Z</time>
      </trkpt>
      <trkpt lat="47.80249" lon="5.40271">
        <ele>457.8</ele>
        <time>2018-02-18T13:41:09Z</time>
      </trkpt>
      <trkpt lat="47.80253" lon="5.40274">
        <ele>458.9</ele>
        <time>2018-02-18T13:41:14Z</time>
      </trkpt>
      <trkpt lat="47.80256" lon="5.40279">
        <ele>460.8</ele>
        <time>2018-02-18T13:41:19Z</time>
      </trkpt>
      <trkpt lat="47.8026" lon="5.40284">
        <ele>461.2</ele>
        <time>2018-02-18T13:41:24Z</time>
      </trkpt>
      <trkpt lat="47.80262" lon="5.40287">
        <ele>460.7</ele>
        <time>2018-02-18T13:41:29Z</time>
      </trkpt>
      <trkpt lat="47.80262" lon="5.40285">
        <ele>459.2</ele>
        <time>2018-02-18T13:41:34Z</time>
      </trkpt>
      <trkpt lat="47.80263" lon="5.40286">
        <ele>457.2</ele>
        <time>2018-02-18T13:41:39Z</time>
      </trkpt>
      <trkpt lat="47.80263" lon="5.40283">
        <ele>456.4</ele>
        <time>2018-02-18T13:41:44Z</time>
      </trkpt>
      <trkpt lat="47.80264" lon="5.40278">
        <ele>456.1</ele>
        <time>2018-02-18T13:41:49Z</time>
      </trkpt>
      <trkpt lat="47.80263" lon="5.40271">
        <ele>456.5</ele>
        <time>2018-02-18T13:41:54Z</time>
      </trkpt>
      <trkpt lat="47.80263" lon="5.40267">
        <ele>455.5</ele>
        <time>2018-02-18T13:41:59Z</time>
      </trkpt>
      <trkpt lat="47.80262" lon="5.4026">
        <ele>456.5</ele>
        <time>2018-02-18T13:42:04Z</time>
      </trkpt>
      <trkpt lat="47.80262" lon="5.40252">
        <ele>457.6</ele>
        <time>2018-02-18T13:42:09Z</time>
      </trkpt>
      <trkpt lat="47.80261" lon="5.40245">
        <ele>457.9</ele>
        <time>2018-02-18T13:42:14Z</time>
      </trkpt>
      <trkpt lat="47.8026" lon="5.40238">
        <ele>458.2</ele>
        <time>2018-02-18T13:42:19Z</time>
      </trkpt>
      <trkpt lat="47.8026" lon="5.4023">
        <ele>459.2</ele>
        <time>2018-02-18T13:42:24Z</time>
      </trkpt>
      <trkpt lat="47.80263" lon="5.40224">
        <ele>459.1</ele>
        <time>2018-02-18T13:42:29Z</time>
      </trkpt>
      <trkpt lat="47.80266" lon="5.40218">
        <ele>458.9</ele>
        <time>2018-02-18T13:42:34Z</time>
      </trkpt>
      <trkpt lat="47.8027" lon="5.40213">
        <ele>459.5</ele>
        <time>2018-02-18T13:42:39Z</time>
      </trkpt>
      <trkpt lat="47.80274" lon="5.40206">
        <ele>459.4</ele>
        <time>2018-02-18T13:42:44Z</time>
      </trkpt>
      <trkpt lat="47.80277" lon="5.402">
        <ele>459.3</ele>
        <time>2018-02-18T13:42:49Z</time>
      </trkpt>
      <trkpt lat="47.80281" lon="5.40194">
        <ele>459.2</ele>
        <time>2018-02-18T13:42:54Z</time>
      </trkpt>
      <trkpt lat="47.80283" lon="5.4019">
        <ele>459.1</ele>
        <time>2018-02-18T13:42:59Z</time>
      </trkpt>
      <trkpt lat="47.80286" lon="5.40183">
        <ele>458.9</ele>
        <time>2018-02-18T13:43:04Z</time>
      </trkpt>
      <trkpt lat="47.80289" lon="5.40177">
        <ele>460.2</ele>
        <time>2018-02-18T13:43:09Z</time>
      </trkpt>
      <trkpt lat="47.80292" lon="5.40171">
        <ele>460</ele>
        <time>2018-02-18T13:43:14Z</time>
      </trkpt>
      <trkpt lat="47.80295" lon="5.40165">
        <ele>459.9</ele>
        <time>2018-02-18T13:43:19Z</time>
      </trkpt>
      <trkpt lat="47.80297" lon="5.40159">
        <ele>459.7</ele>
        <time>2018-02-18T13:43:24Z</time>
      </trkpt>
      <trkpt lat="47.803" lon="5.40153">
        <ele>460.2</ele>
        <time>2018-02-18T13:43:29Z</time>
      </trkpt>
      <trkpt lat="47.80301" lon="5.40146">
        <ele>459.2</ele>
        <time>2018-02-18T13:43:34Z</time>
      </trkpt>
      <trkpt lat="47.80303" lon="5.40141">
        <ele>459.8</ele>
        <time>2018-02-18T13:43:39Z</time>
      </trkpt>
      <trkpt lat="47.80304" lon="5.40134">
        <ele>459.6</ele>
        <time>2018-02-18T13:43:44Z</time>
      </trkpt>
      <trkpt lat="47.80307" lon="5.40127">
        <ele>458.6</ele>
        <time>2018-02-18T13:43:49Z</time>
      </trkpt>
      <trkpt lat="47.80308" lon="5.4012">
        <ele>459</ele>
        <time>2018-02-18T13:43:54Z</time>
      </trkpt>
      <trkpt lat="47.80309" lon="5.40112">
        <ele>459.4</ele>
        <time>2018-02-18T13:43:59Z</time>
      </trkpt>
      <trkpt lat="47.8031" lon="5.40104">
        <ele>458.3</ele>
        <time>2018-02-18T13:44:04Z</time>
      </trkpt>
      <trkpt lat="47.80309" lon="5.40097">
        <ele>458.7</ele>
        <time>2018-02-18T13:44:09Z</time>
      </trkpt>
      <trkpt lat="47.8031" lon="5.40089">
        <ele>458.3</ele>
        <time>2018-02-18T13:44:14Z</time>
      </trkpt>
      <trkpt lat="47.8031" lon="5.40081">
        <ele>459.3</ele>
        <time>2018-02-18T13:44:19Z</time>
      </trkpt>
      <trkpt lat="47.80311" lon="5.40073">
        <ele>459.7</ele>
        <time>2018-02-18T13:44:24Z</time>
      </trkpt>
      <trkpt lat="47.8031" lon="5.40073">
        <ele>458.9</ele>
        <time>2018-02-18T13:44:29Z</time>
      </trkpt>
      <trkpt lat="47.8031" lon="5.40075">
        <ele>459</ele>
        <time>2018-02-18T13:44:34Z</time>
      </trkpt>
      <trkpt lat="47.80309" lon="5.40081">
        <ele>459.2</ele>
        <time>2018-02-18T13:44:39Z</time>
      </trkpt>
      <trkpt lat="47.80308" lon="5.40081">
        <ele>458.5</ele>
        <time>2018-02-18T13:44:44Z</time>
      </trkpt>
      <trkpt lat="47.80307" lon="5.40083">
        <ele>457.8</ele>
        <time>2018-02-18T13:44:49Z</time>
      </trkpt>
      <trkpt lat="47.80309" lon="5.40083">
        <ele>457.9</ele>
        <time>2018-02-18T13:44:54Z</time>
      </trkpt>
      <trkpt lat="47.80308" lon="5.4008">
        <ele>457.7</ele>
        <time>2018-02-18T13:44:59Z</time>
      </trkpt>
      <trkpt lat="47.80307" lon="5.40074">
        <ele>458.1</ele>
        <time>2018-02-18T13:45:04Z</time>
      </trkpt>
      <trkpt lat="47.80302" lon="5.40073">
        <ele>457.8</ele>
        <time>2018-02-18T13:45:09Z</time>
      </trkpt>
      <trkpt lat="47.80297" lon="5.40075">
        <ele>457.6</ele>
        <time>2018-02-18T13:45:14Z</time>
      </trkpt>
      <trkpt lat="47.80292" lon="5.40076">
        <ele>457.4</ele>
        <time>2018-02-18T13:45:19Z</time>
      </trkpt>
      <trkpt lat="47.80287" lon="5.40074">
        <ele>457</ele>
        <time>2018-02-18T13:45:24Z</time>
      </trkpt>
      <trkpt lat="47.80281" lon="5.4007">
        <ele>457.3</ele>
        <time>2018-02-18T13:45:29Z</time>
      </trkpt>
      <trkpt lat="47.80275" lon="5.40066">
        <ele>458.1</ele>
        <time>2018-02-18T13:45:34Z</time>
      </trkpt>
      <trkpt lat="47.8027" lon="5.40061">
        <ele>457.7</ele>
        <time>2018-02-18T13:45:39Z</time>
      </trkpt>
      <trkpt lat="47.80266" lon="5.40058">
        <ele>458</ele>
        <time>2018-02-18T13:45:44Z</time>
      </trkpt>
      <trkpt lat="47.80261" lon="5.40052">
        <ele>458.9</ele>
        <time>2018-02-18T13:45:49Z</time>
      </trkpt>
      <trkpt lat="47.80257" lon="5.40046">
        <ele>458.4</ele>
        <time>2018-02-18T13:45:54Z</time>
      </trkpt>
      <trkpt lat="47.80253" lon="5.40041">
        <ele>458.6</ele>
        <time>2018-02-18T13:45:59Z</time>
      </trkpt>
      <trkpt lat="47.8025" lon="5.40035">
        <ele>458.1</ele>
        <time>2018-02-18T13:46:04Z</time>
      </trkpt>
      <trkpt lat="47.80245" lon="5.4003">
        <ele>458.4</ele>
        <time>2018-02-18T13:46:09Z</time>
      </trkpt>
      <trkpt lat="47.80242" lon="5.40025">
        <ele>457.9</ele>
        <time>2018-02-18T13:46:14Z</time>
      </trkpt>
      <trkpt lat="47.80238" lon="5.40022">
        <ele>457.6</ele>
        <time>2018-02-18T13:46:19Z</time>
      </trkpt>
      <trkpt lat="47.80234" lon="5.40016">
        <ele>458.5</ele>
        <time>2018-02-18T13:46:24Z</time>
      </trkpt>
      <trkpt lat="47.8023" lon="5.40011">
        <ele>458.8</ele>
        <time>2018-02-18T13:46:29Z</time>
      </trkpt>
      <trkpt lat="47.80225" lon="5.40006">
        <ele>458.2</ele>
        <time>2018-02-18T13:46:34Z</time>
      </trkpt>
      <trkpt lat="47.8022" lon="5.40001">
        <ele>459.2</ele>
        <time>2018-02-18T13:46:39Z</time>
      </trkpt>
      <trkpt lat="47.80215" lon="5.39998">
        <ele>458.7</ele>
        <time>2018-02-18T13:46:44Z</time>
      </trkpt>
      <trkpt lat="47.80211" lon="5.39995">
        <ele>458.3</ele>
        <time>2018-02-18T13:46:49Z</time>
      </trkpt>
      <trkpt lat="47.80205" lon="5.39993">
        <ele>458.6</ele>
        <time>2018-02-18T13:46:54Z</time>
      </trkpt>
      <trkpt lat="47.802" lon="5.3999">
        <ele>458.2</ele>
        <time>2018-02-18T13:46:59Z</time>
      </trkpt>
      <trkpt lat="47.80195" lon="5.39986">
        <ele>459.2</ele>
        <time>2018-02-18T13:47:04Z</time>
      </trkpt>
      <trkpt lat="47.8019" lon="5.39983">
        <ele>458.8</ele>
        <time>2018-02-18T13:47:09Z</time>
      </trkpt>
      <trkpt lat="47.80186" lon="5.39979">
        <ele>459.1</ele>
        <time>2018-02-18T13:47:14Z</time>
      </trkpt>
      <trkpt lat="47.80181" lon="5.39975">
        <ele>458.7</ele>
        <time>2018-02-18T13:47:19Z</time>
      </trkpt>
      <trkpt lat="47.80177" lon="5.39971">
        <ele>457.5</ele>
        <time>2018-02-18T13:47:24Z</time>
      </trkpt>
      <trkpt lat="47.80173" lon="5.39967">
        <ele>457.1</ele>
        <time>2018-02-18T13:47:29Z</time>
      </trkpt>
      <trkpt lat="47.80169" lon="5.39961">
        <ele>456.6</ele>
        <time>2018-02-18T13:47:34Z</time>
      </trkpt>
      <trkpt lat="47.80165" lon="5.39957">
        <ele>456.9</ele>
        <time>2018-02-18T13:47:39Z</time>
      </trkpt>
      <trkpt lat="47.80163" lon="5.39951">
        <ele>456.5</ele>
        <time>2018-02-18T13:47:44Z</time>
      </trkpt>
      <trkpt lat="47.80159" lon="5.39945">
        <ele>456.7</ele>
        <time>2018-02-18T13:47:49Z</time>
      </trkpt>
      <trkpt lat="47.80155" lon="5.39939">
        <ele>456.2</ele>
        <time>2018-02-18T13:47:54Z</time>
      </trkpt>
      <trkpt lat="47.80153" lon="5.39933">
        <ele>456.5</ele>
        <time>2018-02-18T13:47:59Z</time>
      </trkpt>
      <trkpt lat="47.80153" lon="5.39926">
        <ele>456.9</ele>
        <time>2018-02-18T13:48:04Z</time>
      </trkpt>
      <trkpt lat="47.80153" lon="5.39919">
        <ele>456.6</ele>
        <time>2018-02-18T13:48:09Z</time>
      </trkpt>
      <trkpt lat="47.80151" lon="5.39912">
        <ele>457.5</ele>
        <time>2018-02-18T13:48:14Z</time>
      </trkpt>
      <trkpt lat="47.80152" lon="5.39905">
        <ele>457.9</ele>
        <time>2018-02-18T13:48:19Z</time>
      </trkpt>
      <trkpt lat="47.80153" lon="5.39899">
        <ele>458.4</ele>
        <time>2018-02-18T13:48:24Z</time>
      </trkpt>
      <trkpt lat="47.80155" lon="5.39892">
        <ele>458.8</ele>
        <time>2018-02-18T13:48:29Z</time>
      </trkpt>
      <trkpt lat="47.80157" lon="5.39884">
        <ele>458.5</ele>
        <time>2018-02-18T13:48:34Z</time>
      </trkpt>
      <trkpt lat="47.80159" lon="5.39878">
        <ele>459</ele>
        <time>2018-02-18T13:48:39Z</time>
      </trkpt>
      <trkpt lat="47.80161" lon="5.3987">
        <ele>459.5</ele>
        <time>2018-02-18T13:48:44Z</time>
      </trkpt>
      <trkpt lat="47.80163" lon="5.39864">
        <ele>460</ele>
        <time>2018-02-18T13:48:49Z</time>
      </trkpt>
      <trkpt lat="47.80165" lon="5.39857">
        <ele>459.7</ele>
        <time>2018-02-18T13:48:54Z</time>
      </trkpt>
      <trkpt lat="47.80167" lon="5.39849">
        <ele>460.8</ele>
        <time>2018-02-18T13:48:59Z</time>
      </trkpt>
      <trkpt lat="47.80169" lon="5.39843">
        <ele>461.3</ele>
        <time>2018-02-18T13:49:04Z</time>
      </trkpt>
      <trkpt lat="47.8017" lon="5.39836">
        <ele>461.7</ele>
        <time>2018-02-18T13:49:09Z</time>
      </trkpt>
      <trkpt lat="47.80172" lon="5.39828">
        <ele>462.2</ele>
        <time>2018-02-18T13:49:14Z</time>
      </trkpt>
      <trkpt lat="47.80173" lon="5.3982">
        <ele>462.5</ele>
        <time>2018-02-18T13:49:19Z</time>
      </trkpt>
      <trkpt lat="47.80174" lon="5.39812">
        <ele>463.6</ele>
        <time>2018-02-18T13:49:24Z</time>
      </trkpt>
      <trkpt lat="47.80174" lon="5.39805">
        <ele>464</ele>
        <time>2018-02-18T13:49:29Z</time>
      </trkpt>
      <trkpt lat="47.80174" lon="5.39799">
        <ele>463.7</ele>
        <time>2018-02-18T13:49:34Z</time>
      </trkpt>
      <trkpt lat="47.80175" lon="5.39792">
        <ele>464.1</ele>
        <time>2018-02-18T13:49:39Z</time>
      </trkpt>
      <trkpt lat="47.80176" lon="5.39784">
        <ele>464.5</ele>
        <time>2018-02-18T13:49:44Z</time>
      </trkpt>
      <trkpt lat="47.80176" lon="5.39777">
        <ele>464.8</ele>
        <time>2018-02-18T13:49:49Z</time>
      </trkpt>
      <trkpt lat="47.80176" lon="5.39769">
        <ele>465.9</ele>
        <time>2018-02-18T13:49:54Z</time>
      </trkpt>
      <trkpt lat="47.80177" lon="5.39763">
        <ele>465.5</ele>
        <time>2018-02-18T13:49:59Z</time>
      </trkpt>
      <trkpt lat="47.80176" lon="5.39756">
        <ele>465.9</ele>
        <time>2018-02-18T13:50:04Z</time>
      </trkpt>
      <trkpt lat="47.80175" lon="5.39748">
        <ele>466.1</ele>
        <time>2018-02-18T13:50:09Z</time>
      </trkpt>
      <trkpt lat="47.80174" lon="5.39741">
        <ele>466.5</ele>
        <time>2018-02-18T13:50:14Z</time>
      </trkpt>
      <trkpt lat="47.80175" lon="5.39734">
        <ele>466.1</ele>
        <time>2018-02-18T13:50:19Z</time>
      </trkpt>
      <trkpt lat="47.80176" lon="5.39726">
        <ele>466.5</ele>
        <time>2018-02-18T13:50:24Z</time>
      </trkpt>
      <trkpt lat="47.80175" lon="5.39719">
        <ele>466.1</ele>
        <time>2018-02-18T13:50:29Z</time>
      </trkpt>
      <trkpt lat="47.80174" lon="5.39711">
        <ele>466.4</ele>
        <time>2018-02-18T13:50:34Z</time>
      </trkpt>
      <trkpt lat="47.80175" lon="5.39705">
        <ele>466.1</ele>
        <time>2018-02-18T13:50:39Z</time>
      </trkpt>
      <trkpt lat="47.80174" lon="5.39697">
        <ele>465.6</ele>
        <time>2018-02-18T13:50:44Z</time>
      </trkpt>
      <trkpt lat="47.80173" lon="5.3969">
        <ele>465.3</ele>
        <time>2018-02-18T13:50:49Z</time>
      </trkpt>
      <trkpt lat="47.80172" lon="5.39683">
        <ele>464.9</ele>
        <time>2018-02-18T13:50:54Z</time>
      </trkpt>
      <trkpt lat="47.80171" lon="5.39678">
        <ele>465.3</ele>
        <time>2018-02-18T13:50:59Z</time>
      </trkpt>
      <trkpt lat="47.80171" lon="5.39671">
        <ele>464.2</ele>
        <time>2018-02-18T13:51:04Z</time>
      </trkpt>
      <trkpt lat="47.80171" lon="5.39666">
        <ele>464.6</ele>
        <time>2018-02-18T13:51:09Z</time>
      </trkpt>
      <trkpt lat="47.80171" lon="5.39658">
        <ele>464.3</ele>
        <time>2018-02-18T13:51:14Z</time>
      </trkpt>
      <trkpt lat="47.8017" lon="5.39651">
        <ele>463.9</ele>
        <time>2018-02-18T13:51:19Z</time>
      </trkpt>
      <trkpt lat="47.80169" lon="5.39644">
        <ele>463.5</ele>
        <time>2018-02-18T13:51:24Z</time>
      </trkpt>
      <trkpt lat="47.8017" lon="5.39637">
        <ele>463.2</ele>
        <time>2018-02-18T13:51:29Z</time>
      </trkpt>
      <trkpt lat="47.80169" lon="5.39631">
        <ele>463.5</ele>
        <time>2018-02-18T13:51:34Z</time>
      </trkpt>
      <trkpt lat="47.80169" lon="5.39624">
        <ele>462.5</ele>
        <time>2018-02-18T13:51:39Z</time>
      </trkpt>
      <trkpt lat="47.80168" lon="5.39616">
        <ele>462</ele>
        <time>2018-02-18T13:51:44Z</time>
      </trkpt>
      <trkpt lat="47.80168" lon="5.39609">
        <ele>461.7</ele>
        <time>2018-02-18T13:51:49Z</time>
      </trkpt>
      <trkpt lat="47.80167" lon="5.39602">
        <ele>460.6</ele>
        <time>2018-02-18T13:51:54Z</time>
      </trkpt>
      <trkpt lat="47.80165" lon="5.39596">
        <ele>460.9</ele>
        <time>2018-02-18T13:51:59Z</time>
      </trkpt>
      <trkpt lat="47.80164" lon="5.39587">
        <ele>460.4</ele>
        <time>2018-02-18T13:52:04Z</time>
      </trkpt>
      <trkpt lat="47.80163" lon="5.39579">
        <ele>459.9</ele>
        <time>2018-02-18T13:52:09Z</time>
      </trkpt>
      <trkpt lat="47.80162" lon="5.39572">
        <ele>460.2</ele>
        <time>2018-02-18T13:52:14Z</time>
      </trkpt>
      <trkpt lat="47.80162" lon="5.39564">
        <ele>459.9</ele>
        <time>2018-02-18T13:52:19Z</time>
      </trkpt>
      <trkpt lat="47.80161" lon="5.39556">
        <ele>459.4</ele>
        <time>2018-02-18T13:52:24Z</time>
      </trkpt>
      <trkpt lat="47.8016" lon="5.39551">
        <ele>459.7</ele>
        <time>2018-02-18T13:52:29Z</time>
      </trkpt>
      <trkpt lat="47.80156" lon="5.3955">
        <ele>459.5</ele>
        <time>2018-02-18T13:52:34Z</time>
      </trkpt>
      <trkpt lat="47.80156" lon="5.39552">
        <ele>459.6</ele>
        <time>2018-02-18T13:52:39Z</time>
      </trkpt>
      <trkpt lat="47.80156" lon="5.39552">
        <ele>459.6</ele>
        <time>2018-02-18T13:52:44Z</time>
      </trkpt>
      <trkpt lat="47.80156" lon="5.39552">
        <ele>459.6</ele>
        <time>2018-02-18T13:52:49Z</time>
      </trkpt>
      <trkpt lat="47.80156" lon="5.39552">
        <ele>459.6</ele>
        <time>2018-02-18T13:52:54Z</time>
      </trkpt>
      <trkpt lat="47.80156" lon="5.39552">
        <ele>459.6</ele>
        <time>2018-02-18T13:52:59Z</time>
      </trkpt>
      <trkpt lat="47.80156" lon="5.39552">
        <ele>459.6</ele>
        <time>2018-02-18T13:53:04Z</time>
      </trkpt>
      <trkpt lat="47.80157" lon="5.39552">
        <ele>459.7</ele>
        <time>2018-02-18T13:53:09Z</time>
      </trkpt>
      <trkpt lat="47.80158" lon="5.39551">
        <ele>458.9</ele>
        <time>2018-02-18T13:53:14Z</time>
      </trkpt>
      <trkpt lat="47.80158" lon="5.39552">
        <ele>459</ele>
        <time>2018-02-18T13:53:19Z</time>
      </trkpt>
      <trkpt lat="47.80158" lon="5.39552">
        <ele>459</ele>
        <time>2018-02-18T13:53:24Z</time>
      </trkpt>
      <trkpt lat="47.80158" lon="5.39552">
        <ele>459.7</ele>
        <time>2018-02-18T13:53:29Z</time>
      </trkpt>
      <trkpt lat="47.80158" lon="5.39552">
        <ele>459</ele>
        <time>2018-02-18T13:53:34Z</time>
      </trkpt>
      <trkpt lat="47.80156" lon="5.39551">
        <ele>458.9</ele>
        <time>2018-02-18T13:53:39Z</time>
      </trkpt>
      <trkpt lat="47.80156" lon="5.3955">
        <ele>459.5</ele>
        <time>2018-02-18T13:53:44Z</time>
      </trkpt>
      <trkpt lat="47.80156" lon="5.3955">
        <ele>459.5</ele>
        <time>2018-02-18T13:53:49Z</time>
      </trkpt>
      <trkpt lat="47.80156" lon="5.39552">
        <ele>459.6</ele>
        <time>2018-02-18T13:53:54Z</time>
      </trkpt>
      <trkpt lat="47.80156" lon="5.39552">
        <ele>459.6</ele>
        <time>2018-02-18T13:53:59Z</time>
      </trkpt>
      <trkpt lat="47.80155" lon="5.39547">
        <ele>457.2</ele>
        <time>2018-02-18T13:54:04Z</time>
      </trkpt>
      <trkpt lat="47.80152" lon="5.39537">
        <ele>450.9</ele>
        <time>2018-02-18T13:54:09Z</time>
      </trkpt>
      <trkpt lat="47.80152" lon="5.39531">
        <ele>451.2</ele>
        <time>2018-02-18T13:54:14Z</time>
      </trkpt>
      <trkpt lat="47.8015" lon="5.39522">
        <ele>451.5</ele>
        <time>2018-02-18T13:54:19Z</time>
      </trkpt>
      <trkpt lat="47.80149" lon="5.39517">
        <ele>453.2</ele>
        <time>2018-02-18T13:54:24Z</time>
      </trkpt>
      <trkpt lat="47.80146" lon="5.3951">
        <ele>454.8</ele>
        <time>2018-02-18T13:54:29Z</time>
      </trkpt>
      <trkpt lat="47.80143" lon="5.39507">
        <ele>456</ele>
        <time>2018-02-18T13:54:34Z</time>
      </trkpt>
      <trkpt lat="47.80142" lon="5.39505">
        <ele>457.2</ele>
        <time>2018-02-18T13:54:39Z</time>
      </trkpt>
      <trkpt lat="47.80142" lon="5.39505">
        <ele>457.2</ele>
        <time>2018-02-18T13:54:44Z</time>
      </trkpt>
      <trkpt lat="47.80139" lon="5.39503">
        <ele>457</ele>
        <time>2018-02-18T13:54:49Z</time>
      </trkpt>
      <trkpt lat="47.80136" lon="5.395">
        <ele>457.4</ele>
        <time>2018-02-18T13:54:54Z</time>
      </trkpt>
      <trkpt lat="47.80132" lon="5.39496">
        <ele>457.7</ele>
        <time>2018-02-18T13:54:59Z</time>
      </trkpt>
      <trkpt lat="47.80128" lon="5.39493">
        <ele>457.4</ele>
        <time>2018-02-18T13:55:04Z</time>
      </trkpt>
      <trkpt lat="47.80127" lon="5.39487">
        <ele>457</ele>
        <time>2018-02-18T13:55:09Z</time>
      </trkpt>
      <trkpt lat="47.80128" lon="5.39482">
        <ele>457.5</ele>
        <time>2018-02-18T13:55:14Z</time>
      </trkpt>
      <trkpt lat="47.80131" lon="5.39476">
        <ele>456.6</ele>
        <time>2018-02-18T13:55:19Z</time>
      </trkpt>
      <trkpt lat="47.80129" lon="5.3947">
        <ele>457</ele>
        <time>2018-02-18T13:55:24Z</time>
      </trkpt>
      <trkpt lat="47.80129" lon="5.39463">
        <ele>458</ele>
        <time>2018-02-18T13:55:29Z</time>
      </trkpt>
      <trkpt lat="47.80128" lon="5.39456">
        <ele>459.1</ele>
        <time>2018-02-18T13:55:34Z</time>
      </trkpt>
      <trkpt lat="47.80126" lon="5.39451">
        <ele>459.4</ele>
        <time>2018-02-18T13:55:39Z</time>
      </trkpt>
      <trkpt lat="47.80125" lon="5.39443">
        <ele>459.6</ele>
        <time>2018-02-18T13:55:44Z</time>
      </trkpt>
      <trkpt lat="47.80124" lon="5.39436">
        <ele>460.7</ele>
        <time>2018-02-18T13:55:49Z</time>
      </trkpt>
      <trkpt lat="47.80123" lon="5.39428">
        <ele>461.6</ele>
        <time>2018-02-18T13:55:54Z</time>
      </trkpt>
      <trkpt lat="47.80122" lon="5.39421">
        <ele>462.6</ele>
        <time>2018-02-18T13:55:59Z</time>
      </trkpt>
      <trkpt lat="47.80122" lon="5.39413">
        <ele>462.9</ele>
        <time>2018-02-18T13:56:04Z</time>
      </trkpt>
      <trkpt lat="47.80121" lon="5.39406">
        <ele>463.3</ele>
        <time>2018-02-18T13:56:09Z</time>
      </trkpt>
      <trkpt lat="47.80123" lon="5.39398">
        <ele>464.4</ele>
        <time>2018-02-18T13:56:14Z</time>
      </trkpt>
      <trkpt lat="47.80124" lon="5.3939">
        <ele>464.7</ele>
        <time>2018-02-18T13:56:19Z</time>
      </trkpt>
      <trkpt lat="47.80127" lon="5.39385">
        <ele>464.6</ele>
        <time>2018-02-18T13:56:24Z</time>
      </trkpt>
      <trkpt lat="47.80129" lon="5.39381">
        <ele>465.3</ele>
        <time>2018-02-18T13:56:29Z</time>
      </trkpt>
      <trkpt lat="47.80129" lon="5.39378">
        <ele>465.1</ele>
        <time>2018-02-18T13:56:34Z</time>
      </trkpt>
      <trkpt lat="47.80128" lon="5.39373">
        <ele>465.5</ele>
        <time>2018-02-18T13:56:39Z</time>
      </trkpt>
      <trkpt lat="47.80127" lon="5.39365">
        <ele>465.8</ele>
        <time>2018-02-18T13:56:44Z</time>
      </trkpt>
      <trkpt lat="47.80126" lon="5.39356">
        <ele>466.7</ele>
        <time>2018-02-18T13:56:49Z</time>
      </trkpt>
      <trkpt lat="47.80124" lon="5.39349">
        <ele>467</ele>
        <time>2018-02-18T13:56:54Z</time>
      </trkpt>
      <trkpt lat="47.80123" lon="5.39343">
        <ele>467.3</ele>
        <time>2018-02-18T13:56:59Z</time>
      </trkpt>
      <trkpt lat="47.80122" lon="5.39334">
        <ele>468.2</ele>
        <time>2018-02-18T13:57:04Z</time>
      </trkpt>
      <trkpt lat="47.8012" lon="5.39327">
        <ele>468.5</ele>
        <time>2018-02-18T13:57:09Z</time>
      </trkpt>
      <trkpt lat="47.80118" lon="5.3932">
        <ele>469.5</ele>
        <time>2018-02-18T13:57:14Z</time>
      </trkpt>
      <trkpt lat="47.80116" lon="5.39313">
        <ele>469.8</ele>
        <time>2018-02-18T13:57:19Z</time>
      </trkpt>
      <trkpt lat="47.80116" lon="5.39307">
        <ele>470.1</ele>
        <time>2018-02-18T13:57:24Z</time>
      </trkpt>
      <trkpt lat="47.80115" lon="5.39305">
        <ele>469.3</ele>
        <time>2018-02-18T13:57:29Z</time>
      </trkpt>
      <trkpt lat="47.80115" lon="5.39305">
        <ele>469.3</ele>
        <time>2018-02-18T13:57:34Z</time>
      </trkpt>
      <trkpt lat="47.80115" lon="5.39305">
        <ele>469.3</ele>
        <time>2018-02-18T13:57:39Z</time>
      </trkpt>
      <trkpt lat="47.80115" lon="5.39303">
        <ele>469.8</ele>
        <time>2018-02-18T13:57:44Z</time>
      </trkpt>
      <trkpt lat="47.80114" lon="5.39301">
        <ele>469.7</ele>
        <time>2018-02-18T13:57:49Z</time>
      </trkpt>
      <trkpt lat="47.80114" lon="5.39301">
        <ele>470.5</ele>
        <time>2018-02-18T13:57:54Z</time>
      </trkpt>
      <trkpt lat="47.80115" lon="5.393">
        <ele>471.1</ele>
        <time>2018-02-18T13:57:59Z</time>
      </trkpt>
      <trkpt lat="47.80115" lon="5.393">
        <ele>471.1</ele>
        <time>2018-02-18T13:58:04Z</time>
      </trkpt>
      <trkpt lat="47.80115" lon="5.393">
        <ele>471.1</ele>
        <time>2018-02-18T13:58:09Z</time>
      </trkpt>
      <trkpt lat="47.80115" lon="5.393">
        <ele>471.9</ele>
        <time>2018-02-18T13:58:14Z</time>
      </trkpt>
      <trkpt lat="47.80115" lon="5.393">
        <ele>471.9</ele>
        <time>2018-02-18T13:58:19Z</time>
      </trkpt>
      <trkpt lat="47.80115" lon="5.393">
        <ele>471.9</ele>
        <time>2018-02-18T13:58:24Z</time>
      </trkpt>
      <trkpt lat="47.80115" lon="5.393">
        <ele>471.9</ele>
        <time>2018-02-18T13:58:29Z</time>
      </trkpt>
      <trkpt lat="47.80117" lon="5.39299">
        <ele>471.9</ele>
        <time>2018-02-18T13:58:34Z</time>
      </trkpt>
      <trkpt lat="47.80117" lon="5.39299">
        <ele>472.6</ele>
        <time>2018-02-18T13:58:39Z</time>
      </trkpt>
      <trkpt lat="47.80121" lon="5.39296">
        <ele>472</ele>
        <time>2018-02-18T13:58:44Z</time>
      </trkpt>
      <trkpt lat="47.80125" lon="5.39295">
        <ele>472.1</ele>
        <time>2018-02-18T13:58:49Z</time>
      </trkpt>
      <trkpt lat="47.80128" lon="5.39294">
        <ele>472.3</ele>
        <time>2018-02-18T13:58:54Z</time>
      </trkpt>
      <trkpt lat="47.80131" lon="5.39291">
        <ele>473.6</ele>
        <time>2018-02-18T13:58:59Z</time>
      </trkpt>
      <trkpt lat="47.80134" lon="5.39288">
        <ele>474.4</ele>
        <time>2018-02-18T13:59:04Z</time>
      </trkpt>
      <trkpt lat="47.80139" lon="5.39286">
        <ele>475.2</ele>
        <time>2018-02-18T13:59:09Z</time>
      </trkpt>
      <trkpt lat="47.80145" lon="5.39283">
        <ele>474.7</ele>
        <time>2018-02-18T13:59:14Z</time>
      </trkpt>
      <trkpt lat="47.80151" lon="5.39279">
        <ele>475.5</ele>
        <time>2018-02-18T13:59:19Z</time>
      </trkpt>
      <trkpt lat="47.80155" lon="5.39277">
        <ele>474.2</ele>
        <time>2018-02-18T13:59:24Z</time>
      </trkpt>
      <trkpt lat="47.80161" lon="5.39274">
        <ele>473.6</ele>
        <time>2018-02-18T13:59:29Z</time>
      </trkpt>
      <trkpt lat="47.80166" lon="5.39272">
        <ele>473.1</ele>
        <time>2018-02-18T13:59:34Z</time>
      </trkpt>
      <trkpt lat="47.80172" lon="5.39271">
        <ele>473.3</ele>
        <time>2018-02-18T13:59:39Z</time>
      </trkpt>
      <trkpt lat="47.80177" lon="5.39268">
        <ele>474.9</ele>
        <time>2018-02-18T13:59:44Z</time>
      </trkpt>
      <trkpt lat="47.80181" lon="5.39265">
        <ele>474.3</ele>
        <time>2018-02-18T13:59:49Z</time>
      </trkpt>
      <trkpt lat="47.80188" lon="5.39264">
        <ele>473.1</ele>
        <time>2018-02-18T13:59:54Z</time>
      </trkpt>
      <trkpt lat="47.80193" lon="5.39261">
        <ele>471.8</ele>
        <time>2018-02-18T13:59:59Z</time>
      </trkpt>
      <trkpt lat="47.80199" lon="5.39259">
        <ele>472.7</ele>
        <time>2018-02-18T14:00:04Z</time>
      </trkpt>
      <trkpt lat="47.80205" lon="5.39257">
        <ele>473.6</ele>
        <time>2018-02-18T14:00:09Z</time>
      </trkpt>
      <trkpt lat="47.80209" lon="5.39253">
        <ele>473.7</ele>
        <time>2018-02-18T14:00:14Z</time>
      </trkpt>
      <trkpt lat="47.80213" lon="5.39251">
        <ele>475.9</ele>
        <time>2018-02-18T14:00:19Z</time>
      </trkpt>
      <trkpt lat="47.80217" lon="5.39247">
        <ele>477.3</ele>
        <time>2018-02-18T14:00:24Z</time>
      </trkpt>
      <trkpt lat="47.80223" lon="5.39245">
        <ele>476.8</ele>
        <time>2018-02-18T14:00:29Z</time>
      </trkpt>
      <trkpt lat="47.80229" lon="5.39243">
        <ele>477.7</ele>
        <time>2018-02-18T14:00:34Z</time>
      </trkpt>
      <trkpt lat="47.80236" lon="5.39242">
        <ele>478.8</ele>
        <time>2018-02-18T14:00:39Z</time>
      </trkpt>
      <trkpt lat="47.80241" lon="5.39241">
        <ele>479.7</ele>
        <time>2018-02-18T14:00:44Z</time>
      </trkpt>
      <trkpt lat="47.80246" lon="5.39238">
        <ele>477.7</ele>
        <time>2018-02-18T14:00:49Z</time>
      </trkpt>
      <trkpt lat="47.80252" lon="5.39236">
        <ele>475.8</ele>
        <time>2018-02-18T14:00:54Z</time>
      </trkpt>
      <trkpt lat="47.80257" lon="5.39232">
        <ele>476.5</ele>
        <time>2018-02-18T14:00:59Z</time>
      </trkpt>
      <trkpt lat="47.80262" lon="5.39227">
        <ele>478</ele>
        <time>2018-02-18T14:01:04Z</time>
      </trkpt>
      <trkpt lat="47.80266" lon="5.39224">
        <ele>478</ele>
        <time>2018-02-18T14:01:09Z</time>
      </trkpt>
      <trkpt lat="47.8027" lon="5.3922">
        <ele>478</ele>
        <time>2018-02-18T14:01:14Z</time>
      </trkpt>
      <trkpt lat="47.80274" lon="5.39218">
        <ele>478.9</ele>
        <time>2018-02-18T14:01:19Z</time>
      </trkpt>
      <trkpt lat="47.80278" lon="5.39218">
        <ele>477.7</ele>
        <time>2018-02-18T14:01:24Z</time>
      </trkpt>
      <trkpt lat="47.80284" lon="5.39215">
        <ele>478.5</ele>
        <time>2018-02-18T14:01:29Z</time>
      </trkpt>
      <trkpt lat="47.80289" lon="5.39213">
        <ele>479.4</ele>
        <time>2018-02-18T14:01:34Z</time>
      </trkpt>
      <trkpt lat="47.80294" lon="5.3921">
        <ele>480.9</ele>
        <time>2018-02-18T14:01:39Z</time>
      </trkpt>
      <trkpt lat="47.803" lon="5.39207">
        <ele>481.8</ele>
        <time>2018-02-18T14:01:44Z</time>
      </trkpt>
      <trkpt lat="47.80304" lon="5.39203">
        <ele>481.8</ele>
        <time>2018-02-18T14:01:49Z</time>
      </trkpt>
      <trkpt lat="47.80309" lon="5.392">
        <ele>481.9</ele>
        <time>2018-02-18T14:01:54Z</time>
      </trkpt>
      <trkpt lat="47.80315" lon="5.39199">
        <ele>482.2</ele>
        <time>2018-02-18T14:01:59Z</time>
      </trkpt>
      <trkpt lat="47.80322" lon="5.39197">
        <ele>483.2</ele>
        <time>2018-02-18T14:02:04Z</time>
      </trkpt>
      <trkpt lat="47.80328" lon="5.39195">
        <ele>481.2</ele>
        <time>2018-02-18T14:02:09Z</time>
      </trkpt>
      <trkpt lat="47.80333" lon="5.39194">
        <ele>479.3</ele>
        <time>2018-02-18T14:02:14Z</time>
      </trkpt>
      <trkpt lat="47.80335" lon="5.39195">
        <ele>479.5</ele>
        <time>2018-02-18T14:02:19Z</time>
      </trkpt>
      <trkpt lat="47.80336" lon="5.39193">
        <ele>478.7</ele>
        <time>2018-02-18T14:02:24Z</time>
      </trkpt>
      <trkpt lat="47.80341" lon="5.3919">
        <ele>478.8</ele>
        <time>2018-02-18T14:02:29Z</time>
      </trkpt>
      <trkpt lat="47.80347" lon="5.39188">
        <ele>480.4</ele>
        <time>2018-02-18T14:02:34Z</time>
      </trkpt>
      <trkpt lat="47.80354" lon="5.39187">
        <ele>479.4</ele>
        <time>2018-02-18T14:02:39Z</time>
      </trkpt>
      <trkpt lat="47.8036" lon="5.39187">
        <ele>478.2</ele>
        <time>2018-02-18T14:02:44Z</time>
      </trkpt>
      <trkpt lat="47.80368" lon="5.39185">
        <ele>477.8</ele>
        <time>2018-02-18T14:02:49Z</time>
      </trkpt>
      <trkpt lat="47.80374" lon="5.39183">
        <ele>478.7</ele>
        <time>2018-02-18T14:02:54Z</time>
      </trkpt>
      <trkpt lat="47.8038" lon="5.39179">
        <ele>479.6</ele>
        <time>2018-02-18T14:02:59Z</time>
      </trkpt>
      <trkpt lat="47.80385" lon="5.39176">
        <ele>481.8</ele>
        <time>2018-02-18T14:03:04Z</time>
      </trkpt>
      <trkpt lat="47.8039" lon="5.39175">
        <ele>483.4</ele>
        <time>2018-02-18T14:03:09Z</time>
      </trkpt>
      <trkpt lat="47.80398" lon="5.39173">
        <ele>485.2</ele>
        <time>2018-02-18T14:03:14Z</time>
      </trkpt>
      <trkpt lat="47.80403" lon="5.39169">
        <ele>485.9</ele>
        <time>2018-02-18T14:03:19Z</time>
      </trkpt>
      <trkpt lat="47.80407" lon="5.39166">
        <ele>483.9</ele>
        <time>2018-02-18T14:03:24Z</time>
      </trkpt>
      <trkpt lat="47.80413" lon="5.39162">
        <ele>483.3</ele>
        <time>2018-02-18T14:03:29Z</time>
      </trkpt>
      <trkpt lat="47.8042" lon="5.39162">
        <ele>482.2</ele>
        <time>2018-02-18T14:03:34Z</time>
      </trkpt>
      <trkpt lat="47.80426" lon="5.3916">
        <ele>481.7</ele>
        <time>2018-02-18T14:03:39Z</time>
      </trkpt>
      <trkpt lat="47.8043" lon="5.39156">
        <ele>479.6</ele>
        <time>2018-02-18T14:03:44Z</time>
      </trkpt>
      <trkpt lat="47.80436" lon="5.39154">
        <ele>479.1</ele>
        <time>2018-02-18T14:03:49Z</time>
      </trkpt>
      <trkpt lat="47.80441" lon="5.39152">
        <ele>478.6</ele>
        <time>2018-02-18T14:03:54Z</time>
      </trkpt>
      <trkpt lat="47.80447" lon="5.3915">
        <ele>478.8</ele>
        <time>2018-02-18T14:03:59Z</time>
      </trkpt>
      <trkpt lat="47.80453" lon="5.39148">
        <ele>476.9</ele>
        <time>2018-02-18T14:04:04Z</time>
      </trkpt>
      <trkpt lat="47.8046" lon="5.39147">
        <ele>478.6</ele>
        <time>2018-02-18T14:04:09Z</time>
      </trkpt>
      <trkpt lat="47.80466" lon="5.39144">
        <ele>478.8</ele>
        <time>2018-02-18T14:04:14Z</time>
      </trkpt>
      <trkpt lat="47.8047" lon="5.39138">
        <ele>478.7</ele>
        <time>2018-02-18T14:04:19Z</time>
      </trkpt>
      <trkpt lat="47.80476" lon="5.39135">
        <ele>479.6</ele>
        <time>2018-02-18T14:04:24Z</time>
      </trkpt>
      <trkpt lat="47.80482" lon="5.39133">
        <ele>479.1</ele>
        <time>2018-02-18T14:04:29Z</time>
      </trkpt>
      <trkpt lat="47.80487" lon="5.39129">
        <ele>476.9</ele>
        <time>2018-02-18T14:04:34Z</time>
      </trkpt>
      <trkpt lat="47.80492" lon="5.39127">
        <ele>474.3</ele>
        <time>2018-02-18T14:04:39Z</time>
      </trkpt>
      <trkpt lat="47.80498" lon="5.39126">
        <ele>473.8</ele>
        <time>2018-02-18T14:04:44Z</time>
      </trkpt>
      <trkpt lat="47.80504" lon="5.39123">
        <ele>471.9</ele>
        <time>2018-02-18T14:04:49Z</time>
      </trkpt>
      <trkpt lat="47.80509" lon="5.39119">
        <ele>472</ele>
        <time>2018-02-18T14:04:54Z</time>
      </trkpt>
      <trkpt lat="47.80515" lon="5.39117">
        <ele>471.5</ele>
        <time>2018-02-18T14:04:59Z</time>
      </trkpt>
      <trkpt lat="47.80521" lon="5.39114">
        <ele>472.3</ele>
        <time>2018-02-18T14:05:04Z</time>
      </trkpt>
      <trkpt lat="47.80523" lon="5.39113">
        <ele>473</ele>
        <time>2018-02-18T14:05:09Z</time>
      </trkpt>
      <trkpt lat="47.80523" lon="5.39107">
        <ele>473.5</ele>
        <time>2018-02-18T14:05:14Z</time>
      </trkpt>
      <trkpt lat="47.80529" lon="5.39105">
        <ele>473.7</ele>
        <time>2018-02-18T14:05:19Z</time>
      </trkpt>
      <trkpt lat="47.80534" lon="5.39104">
        <ele>473.9</ele>
        <time>2018-02-18T14:05:24Z</time>
      </trkpt>
      <trkpt lat="47.8054" lon="5.39101">
        <ele>472.7</ele>
        <time>2018-02-18T14:05:29Z</time>
      </trkpt>
      <trkpt lat="47.80546" lon="5.39097">
        <ele>469.2</ele>
        <time>2018-02-18T14:05:34Z</time>
      </trkpt>
      <trkpt lat="47.80552" lon="5.39095">
        <ele>468</ele>
        <time>2018-02-18T14:05:39Z</time>
      </trkpt>
      <trkpt lat="47.80558" lon="5.39094">
        <ele>469.7</ele>
        <time>2018-02-18T14:05:44Z</time>
      </trkpt>
      <trkpt lat="47.80566" lon="5.39092">
        <ele>468.6</ele>
        <time>2018-02-18T14:05:49Z</time>
      </trkpt>
      <trkpt lat="47.80573" lon="5.39091">
        <ele>469.6</ele>
        <time>2018-02-18T14:05:54Z</time>
      </trkpt>
      <trkpt lat="47.80576" lon="5.39088">
        <ele>470.3</ele>
        <time>2018-02-18T14:05:59Z</time>
      </trkpt>
      <trkpt lat="47.8058" lon="5.39082">
        <ele>468.8</ele>
        <time>2018-02-18T14:06:04Z</time>
      </trkpt>
      <trkpt lat="47.80586" lon="5.39081">
        <ele>468.4</ele>
        <time>2018-02-18T14:06:09Z</time>
      </trkpt>
      <trkpt lat="47.80592" lon="5.3908">
        <ele>467.9</ele>
        <time>2018-02-18T14:06:14Z</time>
      </trkpt>
      <trkpt lat="47.80597" lon="5.39077">
        <ele>467.3</ele>
        <time>2018-02-18T14:06:19Z</time>
      </trkpt>
      <trkpt lat="47.80602" lon="5.39073">
        <ele>467.4</ele>
        <time>2018-02-18T14:06:24Z</time>
      </trkpt>
      <trkpt lat="47.80608" lon="5.3907">
        <ele>465.4</ele>
        <time>2018-02-18T14:06:29Z</time>
      </trkpt>
      <trkpt lat="47.80613" lon="5.39065">
        <ele>462.6</ele>
        <time>2018-02-18T14:06:34Z</time>
      </trkpt>
      <trkpt lat="47.8062" lon="5.39064">
        <ele>460</ele>
        <time>2018-02-18T14:06:39Z</time>
      </trkpt>
      <trkpt lat="47.80626" lon="5.3906">
        <ele>458.8</ele>
        <time>2018-02-18T14:06:44Z</time>
      </trkpt>
      <trkpt lat="47.80634" lon="5.3906">
        <ele>458.4</ele>
        <time>2018-02-18T14:06:49Z</time>
      </trkpt>
      <trkpt lat="47.80639" lon="5.39055">
        <ele>458.5</ele>
        <time>2018-02-18T14:06:54Z</time>
      </trkpt>
      <trkpt lat="47.80644" lon="5.39058">
        <ele>459.6</ele>
        <time>2018-02-18T14:06:59Z</time>
      </trkpt>
      <trkpt lat="47.8065" lon="5.39059">
        <ele>458.5</ele>
        <time>2018-02-18T14:07:04Z</time>
      </trkpt>
      <trkpt lat="47.80652" lon="5.39059">
        <ele>457.2</ele>
        <time>2018-02-18T14:07:09Z</time>
      </trkpt>
      <trkpt lat="47.80657" lon="5.39058">
        <ele>456.7</ele>
        <time>2018-02-18T14:07:14Z</time>
      </trkpt>
      <trkpt lat="47.8066" lon="5.39056">
        <ele>456.1</ele>
        <time>2018-02-18T14:07:19Z</time>
      </trkpt>
      <trkpt lat="47.80665" lon="5.39053">
        <ele>453.4</ele>
        <time>2018-02-18T14:07:24Z</time>
      </trkpt>
      <trkpt lat="47.80671" lon="5.39049">
        <ele>452</ele>
        <time>2018-02-18T14:07:29Z</time>
      </trkpt>
      <trkpt lat="47.80676" lon="5.39047">
        <ele>452.2</ele>
        <time>2018-02-18T14:07:34Z</time>
      </trkpt>
      <trkpt lat="47.8068" lon="5.39044">
        <ele>453</ele>
        <time>2018-02-18T14:07:39Z</time>
      </trkpt>
      <trkpt lat="47.80682" lon="5.39042">
        <ele>453.7</ele>
        <time>2018-02-18T14:07:44Z</time>
      </trkpt>
      <trkpt lat="47.80687" lon="5.39039">
        <ele>454.5</ele>
        <time>2018-02-18T14:07:49Z</time>
      </trkpt>
      <trkpt lat="47.80692" lon="5.39035">
        <ele>453.9</ele>
        <time>2018-02-18T14:07:54Z</time>
      </trkpt>
      <trkpt lat="47.80696" lon="5.3903">
        <ele>454.6</ele>
        <time>2018-02-18T14:07:59Z</time>
      </trkpt>
      <trkpt lat="47.80698" lon="5.39025">
        <ele>453.7</ele>
        <time>2018-02-18T14:08:04Z</time>
      </trkpt>
      <trkpt lat="47.80701" lon="5.39022">
        <ele>452.3</ele>
        <time>2018-02-18T14:08:09Z</time>
      </trkpt>
      <trkpt lat="47.80702" lon="5.39015">
        <ele>449.1</ele>
        <time>2018-02-18T14:08:14Z</time>
      </trkpt>
      <trkpt lat="47.80702" lon="5.39013">
        <ele>449</ele>
        <time>2018-02-18T14:08:19Z</time>
      </trkpt>
      <trkpt lat="47.807" lon="5.39013">
        <ele>448.2</ele>
        <time>2018-02-18T14:08:24Z</time>
      </trkpt>
      <trkpt lat="47.80696" lon="5.39004">
        <ele>447.6</ele>
        <time>2018-02-18T14:08:29Z</time>
      </trkpt>
      <trkpt lat="47.80694" lon="5.38997">
        <ele>446.4</ele>
        <time>2018-02-18T14:08:35Z</time>
      </trkpt>
      <trkpt lat="47.80691" lon="5.38989">
        <ele>447.3</ele>
        <time>2018-02-18T14:08:40Z</time>
      </trkpt>
      <trkpt lat="47.80688" lon="5.3898">
        <ele>448.1</ele>
        <time>2018-02-18T14:08:45Z</time>
      </trkpt>
      <trkpt lat="47.80685" lon="5.38975">
        <ele>448.4</ele>
        <time>2018-02-18T14:08:50Z</time>
      </trkpt>
      <trkpt lat="47.80682" lon="5.38968">
        <ele>450</ele>
        <time>2018-02-18T14:08:55Z</time>
      </trkpt>
      <trkpt lat="47.80681" lon="5.38962">
        <ele>449.7</ele>
        <time>2018-02-18T14:09:00Z</time>
      </trkpt>
      <trkpt lat="47.8068" lon="5.38955">
        <ele>452.1</ele>
        <time>2018-02-18T14:09:05Z</time>
      </trkpt>
      <trkpt lat="47.80679" lon="5.3895">
        <ele>451.8</ele>
        <time>2018-02-18T14:09:10Z</time>
      </trkpt>
      <trkpt lat="47.80678" lon="5.38943">
        <ele>452.8</ele>
        <time>2018-02-18T14:09:15Z</time>
      </trkpt>
      <trkpt lat="47.80676" lon="5.38936">
        <ele>453.1</ele>
        <time>2018-02-18T14:09:20Z</time>
      </trkpt>
      <trkpt lat="47.80675" lon="5.3893">
        <ele>454.1</ele>
        <time>2018-02-18T14:09:25Z</time>
      </trkpt>
      <trkpt lat="47.80676" lon="5.38925">
        <ele>453.9</ele>
        <time>2018-02-18T14:09:30Z</time>
      </trkpt>
      <trkpt lat="47.80673" lon="5.38918">
        <ele>453.4</ele>
        <time>2018-02-18T14:09:35Z</time>
      </trkpt>
      <trkpt lat="47.80672" lon="5.3891">
        <ele>455.1</ele>
        <time>2018-02-18T14:09:40Z</time>
      </trkpt>
      <trkpt lat="47.80673" lon="5.38903">
        <ele>455.5</ele>
        <time>2018-02-18T14:09:45Z</time>
      </trkpt>
      <trkpt lat="47.80679" lon="5.38898">
        <ele>454.9</ele>
        <time>2018-02-18T14:09:50Z</time>
      </trkpt>
      <trkpt lat="47.80683" lon="5.38895">
        <ele>454.9</ele>
        <time>2018-02-18T14:09:55Z</time>
      </trkpt>
      <trkpt lat="47.80686" lon="5.3889">
        <ele>455.5</ele>
        <time>2018-02-18T14:10:00Z</time>
      </trkpt>
      <trkpt lat="47.80687" lon="5.38884">
        <ele>456.7</ele>
        <time>2018-02-18T14:10:05Z</time>
      </trkpt>
      <trkpt lat="47.80691" lon="5.38878">
        <ele>459.5</ele>
        <time>2018-02-18T14:10:10Z</time>
      </trkpt>
      <trkpt lat="47.80694" lon="5.38873">
        <ele>458.6</ele>
        <time>2018-02-18T14:10:15Z</time>
      </trkpt>
      <trkpt lat="47.80697" lon="5.38868">
        <ele>456.4</ele>
        <time>2018-02-18T14:10:20Z</time>
      </trkpt>
      <trkpt lat="47.80699" lon="5.38864">
        <ele>457.1</ele>
        <time>2018-02-18T14:10:25Z</time>
      </trkpt>
      <trkpt lat="47.80704" lon="5.38858">
        <ele>457.7</ele>
        <time>2018-02-18T14:10:30Z</time>
      </trkpt>
      <trkpt lat="47.80707" lon="5.38852">
        <ele>458.3</ele>
        <time>2018-02-18T14:10:35Z</time>
      </trkpt>
      <trkpt lat="47.8071" lon="5.38844">
        <ele>460.1</ele>
        <time>2018-02-18T14:10:40Z</time>
      </trkpt>
      <trkpt lat="47.80712" lon="5.3884">
        <ele>461.5</ele>
        <time>2018-02-18T14:10:45Z</time>
      </trkpt>
      <trkpt lat="47.80713" lon="5.38837">
        <ele>462.1</ele>
        <time>2018-02-18T14:10:50Z</time>
      </trkpt>
      <trkpt lat="47.80713" lon="5.38838">
        <ele>462.2</ele>
        <time>2018-02-18T14:10:55Z</time>
      </trkpt>
      <trkpt lat="47.80714" lon="5.3884">
        <ele>462.3</ele>
        <time>2018-02-18T14:11:00Z</time>
      </trkpt>
      <trkpt lat="47.80714" lon="5.3884">
        <ele>462.3</ele>
        <time>2018-02-18T14:11:05Z</time>
      </trkpt>
      <trkpt lat="47.80714" lon="5.3884">
        <ele>462.3</ele>
        <time>2018-02-18T14:11:10Z</time>
      </trkpt>
      <trkpt lat="47.80713" lon="5.3884">
        <ele>463</ele>
        <time>2018-02-18T14:11:15Z</time>
      </trkpt>
      <trkpt lat="47.80713" lon="5.3884">
        <ele>463</ele>
        <time>2018-02-18T14:11:20Z</time>
      </trkpt>
      <trkpt lat="47.80713" lon="5.3884">
        <ele>463</ele>
        <time>2018-02-18T14:11:25Z</time>
      </trkpt>
      <trkpt lat="47.80713" lon="5.3884">
        <ele>463</ele>
        <time>2018-02-18T14:11:30Z</time>
      </trkpt>
      <trkpt lat="47.80713" lon="5.38841">
        <ele>463</ele>
        <time>2018-02-18T14:11:35Z</time>
      </trkpt>
      <trkpt lat="47.80713" lon="5.38841">
        <ele>463</ele>
        <time>2018-02-18T14:11:40Z</time>
      </trkpt>
      <trkpt lat="47.80712" lon="5.38841">
        <ele>463</ele>
        <time>2018-02-18T14:11:45Z</time>
      </trkpt>
      <trkpt lat="47.80711" lon="5.38842">
        <ele>463.7</ele>
        <time>2018-02-18T14:11:50Z</time>
      </trkpt>
      <trkpt lat="47.80711" lon="5.38842">
        <ele>463.7</ele>
        <time>2018-02-18T14:11:55Z</time>
      </trkpt>
      <trkpt lat="47.80711" lon="5.38842">
        <ele>463.7</ele>
        <time>2018-02-18T14:12:00Z</time>
      </trkpt>
      <trkpt lat="47.80711" lon="5.38842">
        <ele>463.7</ele>
        <time>2018-02-18T14:12:05Z</time>
      </trkpt>
      <trkpt lat="47.80711" lon="5.38842">
        <ele>463.7</ele>
        <time>2018-02-18T14:12:10Z</time>
      </trkpt>
      <trkpt lat="47.8071" lon="5.38841">
        <ele>463.5</ele>
        <time>2018-02-18T14:12:15Z</time>
      </trkpt>
      <trkpt lat="47.8071" lon="5.38841">
        <ele>463.5</ele>
        <time>2018-02-18T14:12:20Z</time>
      </trkpt>
      <trkpt lat="47.8071" lon="5.38841">
        <ele>463.5</ele>
        <time>2018-02-18T14:12:25Z</time>
      </trkpt>
      <trkpt lat="47.8071" lon="5.38841">
        <ele>463.5</ele>
        <time>2018-02-18T14:12:30Z</time>
      </trkpt>
      <trkpt lat="47.80711" lon="5.38837">
        <ele>464.1</ele>
        <time>2018-02-18T14:12:35Z</time>
      </trkpt>
      <trkpt lat="47.80713" lon="5.38831">
        <ele>464.7</ele>
        <time>2018-02-18T14:12:40Z</time>
      </trkpt>
      <trkpt lat="47.80713" lon="5.38825">
        <ele>464.3</ele>
        <time>2018-02-18T14:12:45Z</time>
      </trkpt>
      <trkpt lat="47.80715" lon="5.3882">
        <ele>464.9</ele>
        <time>2018-02-18T14:12:50Z</time>
      </trkpt>
      <trkpt lat="47.80716" lon="5.38816">
        <ele>466.1</ele>
        <time>2018-02-18T14:12:55Z</time>
      </trkpt>
      <trkpt lat="47.80715" lon="5.38809">
        <ele>467.9</ele>
        <time>2018-02-18T14:13:00Z</time>
      </trkpt>
      <trkpt lat="47.80714" lon="5.38802">
        <ele>468.2</ele>
        <time>2018-02-18T14:13:05Z</time>
      </trkpt>
      <trkpt lat="47.80714" lon="5.38795">
        <ele>469.3</ele>
        <time>2018-02-18T14:13:10Z</time>
      </trkpt>
      <trkpt lat="47.80714" lon="5.3879">
        <ele>470.4</ele>
        <time>2018-02-18T14:13:15Z</time>
      </trkpt>
      <trkpt lat="47.80714" lon="5.38783">
        <ele>470.8</ele>
        <time>2018-02-18T14:13:20Z</time>
      </trkpt>
      <trkpt lat="47.80712" lon="5.38776">
        <ele>469.6</ele>
        <time>2018-02-18T14:13:25Z</time>
      </trkpt>
      <trkpt lat="47.80711" lon="5.38769">
        <ele>470.7</ele>
        <time>2018-02-18T14:13:30Z</time>
      </trkpt>
      <trkpt lat="47.80709" lon="5.38764">
        <ele>471</ele>
        <time>2018-02-18T14:13:35Z</time>
      </trkpt>
      <trkpt lat="47.80708" lon="5.38755">
        <ele>471.2</ele>
        <time>2018-02-18T14:13:40Z</time>
      </trkpt>
      <trkpt lat="47.80708" lon="5.38749">
        <ele>470.9</ele>
        <time>2018-02-18T14:13:45Z</time>
      </trkpt>
      <trkpt lat="47.80706" lon="5.3874">
        <ele>470.4</ele>
        <time>2018-02-18T14:13:50Z</time>
      </trkpt>
      <trkpt lat="47.80704" lon="5.38732">
        <ele>468.5</ele>
        <time>2018-02-18T14:13:55Z</time>
      </trkpt>
      <trkpt lat="47.80703" lon="5.38723">
        <ele>466.5</ele>
        <time>2018-02-18T14:14:00Z</time>
      </trkpt>
      <trkpt lat="47.80702" lon="5.38714">
        <ele>466</ele>
        <time>2018-02-18T14:14:05Z</time>
      </trkpt>
      <trkpt lat="47.80707" lon="5.38706">
        <ele>464.5</ele>
        <time>2018-02-18T14:14:10Z</time>
      </trkpt>
      <trkpt lat="47.80711" lon="5.38701">
        <ele>463.7</ele>
        <time>2018-02-18T14:14:15Z</time>
      </trkpt>
      <trkpt lat="47.80716" lon="5.38696">
        <ele>464.5</ele>
        <time>2018-02-18T14:14:20Z</time>
      </trkpt>
      <trkpt lat="47.80721" lon="5.38692">
        <ele>463.7</ele>
        <time>2018-02-18T14:14:25Z</time>
      </trkpt>
      <trkpt lat="47.80725" lon="5.38685">
        <ele>464.4</ele>
        <time>2018-02-18T14:14:30Z</time>
      </trkpt>
      <trkpt lat="47.8073" lon="5.38684">
        <ele>464.6</ele>
        <time>2018-02-18T14:14:35Z</time>
      </trkpt>
      <trkpt lat="47.80736" lon="5.38681">
        <ele>465.5</ele>
        <time>2018-02-18T14:14:40Z</time>
      </trkpt>
      <trkpt lat="47.80742" lon="5.38679">
        <ele>465.6</ele>
        <time>2018-02-18T14:14:45Z</time>
      </trkpt>
      <trkpt lat="47.80747" lon="5.38675">
        <ele>465.7</ele>
        <time>2018-02-18T14:14:50Z</time>
      </trkpt>
      <trkpt lat="47.80752" lon="5.38673">
        <ele>465.9</ele>
        <time>2018-02-18T14:14:55Z</time>
      </trkpt>
      <trkpt lat="47.80758" lon="5.38671">
        <ele>465.4</ele>
        <time>2018-02-18T14:15:00Z</time>
      </trkpt>
      <trkpt lat="47.80763" lon="5.38668">
        <ele>465.5</ele>
        <time>2018-02-18T14:15:05Z</time>
      </trkpt>
      <trkpt lat="47.80769" lon="5.38666">
        <ele>466.4</ele>
        <time>2018-02-18T14:15:10Z</time>
      </trkpt>
      <trkpt lat="47.80774" lon="5.38663">
        <ele>466.5</ele>
        <time>2018-02-18T14:15:15Z</time>
      </trkpt>
      <trkpt lat="47.80779" lon="5.3866">
        <ele>468.1</ele>
        <time>2018-02-18T14:15:20Z</time>
      </trkpt>
      <trkpt lat="47.80785" lon="5.38656">
        <ele>468.9</ele>
        <time>2018-02-18T14:15:25Z</time>
      </trkpt>
      <trkpt lat="47.8079" lon="5.38651">
        <ele>470.3</ele>
        <time>2018-02-18T14:15:30Z</time>
      </trkpt>
      <trkpt lat="47.80796" lon="5.38649">
        <ele>471.2</ele>
        <time>2018-02-18T14:15:35Z</time>
      </trkpt>
      <trkpt lat="47.80801" lon="5.38647">
        <ele>470.7</ele>
        <time>2018-02-18T14:15:40Z</time>
      </trkpt>
      <trkpt lat="47.80807" lon="5.38645">
        <ele>471.6</ele>
        <time>2018-02-18T14:15:45Z</time>
      </trkpt>
      <trkpt lat="47.80812" lon="5.38644">
        <ele>471.1</ele>
        <time>2018-02-18T14:15:50Z</time>
      </trkpt>
      <trkpt lat="47.80819" lon="5.38645">
        <ele>471.5</ele>
        <time>2018-02-18T14:15:55Z</time>
      </trkpt>
      <trkpt lat="47.80826" lon="5.38643">
        <ele>469.6</ele>
        <time>2018-02-18T14:16:00Z</time>
      </trkpt>
      <trkpt lat="47.80833" lon="5.38644">
        <ele>469.3</ele>
        <time>2018-02-18T14:16:05Z</time>
      </trkpt>
      <trkpt lat="47.8084" lon="5.38643">
        <ele>469</ele>
        <time>2018-02-18T14:16:10Z</time>
      </trkpt>
      <trkpt lat="47.80846" lon="5.38642">
        <ele>469.3</ele>
        <time>2018-02-18T14:16:15Z</time>
      </trkpt>
      <trkpt lat="47.80853" lon="5.38642">
        <ele>468.2</ele>
        <time>2018-02-18T14:16:20Z</time>
      </trkpt>
      <trkpt lat="47.80859" lon="5.38641">
        <ele>467</ele>
        <time>2018-02-18T14:16:25Z</time>
      </trkpt>
      <trkpt lat="47.80866" lon="5.38641">
        <ele>465.9</ele>
        <time>2018-02-18T14:16:30Z</time>
      </trkpt>
      <trkpt lat="47.80872" lon="5.3864">
        <ele>466.2</ele>
        <time>2018-02-18T14:16:35Z</time>
      </trkpt>
      <trkpt lat="47.80878" lon="5.38638">
        <ele>465.7</ele>
        <time>2018-02-18T14:16:40Z</time>
      </trkpt>
      <trkpt lat="47.80884" lon="5.38637">
        <ele>466</ele>
        <time>2018-02-18T14:16:45Z</time>
      </trkpt>
      <trkpt lat="47.8089" lon="5.38635">
        <ele>465.5</ele>
        <time>2018-02-18T14:16:50Z</time>
      </trkpt>
      <trkpt lat="47.80897" lon="5.38635">
        <ele>465.8</ele>
        <time>2018-02-18T14:16:55Z</time>
      </trkpt>
      <trkpt lat="47.80903" lon="5.38635">
        <ele>464.8</ele>
        <time>2018-02-18T14:17:00Z</time>
      </trkpt>
      <trkpt lat="47.80909" lon="5.38637">
        <ele>464.5</ele>
        <time>2018-02-18T14:17:05Z</time>
      </trkpt>
      <trkpt lat="47.80911" lon="5.38638">
        <ele>464.6</ele>
        <time>2018-02-18T14:17:10Z</time>
      </trkpt>
      <trkpt lat="47.80915" lon="5.38635">
        <ele>465.4</ele>
        <time>2018-02-18T14:17:15Z</time>
      </trkpt>
      <trkpt lat="47.8092" lon="5.38633">
        <ele>464.8</ele>
        <time>2018-02-18T14:17:20Z</time>
      </trkpt>
      <trkpt lat="47.80925" lon="5.38635">
        <ele>464.5</ele>
        <time>2018-02-18T14:17:25Z</time>
      </trkpt>
      <trkpt lat="47.8093" lon="5.38635">
        <ele>464.7</ele>
        <time>2018-02-18T14:17:30Z</time>
      </trkpt>
      <trkpt lat="47.80937" lon="5.38636">
        <ele>464.4</ele>
        <time>2018-02-18T14:17:35Z</time>
      </trkpt>
      <trkpt lat="47.80943" lon="5.38638">
        <ele>464.1</ele>
        <time>2018-02-18T14:17:40Z</time>
      </trkpt>
      <trkpt lat="47.80948" lon="5.38639">
        <ele>463.7</ele>
        <time>2018-02-18T14:17:45Z</time>
      </trkpt>
      <trkpt lat="47.80955" lon="5.38639">
        <ele>464.1</ele>
        <time>2018-02-18T14:17:50Z</time>
      </trkpt>
      <trkpt lat="47.8096" lon="5.38641">
        <ele>463.8</ele>
        <time>2018-02-18T14:17:55Z</time>
      </trkpt>
      <trkpt lat="47.8096" lon="5.38643">
        <ele>463.1</ele>
        <time>2018-02-18T14:18:00Z</time>
      </trkpt>
      <trkpt lat="47.80959" lon="5.38643">
        <ele>462.4</ele>
        <time>2018-02-18T14:18:05Z</time>
      </trkpt>
      <trkpt lat="47.80956" lon="5.38642">
        <ele>462.2</ele>
        <time>2018-02-18T14:18:10Z</time>
      </trkpt>
      <trkpt lat="47.80956" lon="5.38642">
        <ele>462.2</ele>
        <time>2018-02-18T14:18:15Z</time>
      </trkpt>
      <trkpt lat="47.80956" lon="5.38642">
        <ele>462.2</ele>
        <time>2018-02-18T14:18:20Z</time>
      </trkpt>
      <trkpt lat="47.80956" lon="5.38642">
        <ele>462.2</ele>
        <time>2018-02-18T14:18:25Z</time>
      </trkpt>
      <trkpt lat="47.80956" lon="5.38642">
        <ele>462.2</ele>
        <time>2018-02-18T14:18:30Z</time>
      </trkpt>
      <trkpt lat="47.80956" lon="5.38642">
        <ele>462.2</ele>
        <time>2018-02-18T14:18:35Z</time>
      </trkpt>
      <trkpt lat="47.80956" lon="5.38642">
        <ele>462.2</ele>
        <time>2018-02-18T14:18:40Z</time>
      </trkpt>
      <trkpt lat="47.80956" lon="5.38642">
        <ele>462.9</ele>
        <time>2018-02-18T14:18:45Z</time>
      </trkpt>
      <trkpt lat="47.80958" lon="5.3864">
        <ele>464.3</ele>
        <time>2018-02-18T14:18:50Z</time>
      </trkpt>
      <trkpt lat="47.80964" lon="5.38639">
        <ele>465.3</ele>
        <time>2018-02-18T14:18:55Z</time>
      </trkpt>
      <trkpt lat="47.80969" lon="5.38639">
        <ele>465.6</ele>
        <time>2018-02-18T14:19:00Z</time>
      </trkpt>
      <trkpt lat="47.80974" lon="5.38636">
        <ele>466.3</ele>
        <time>2018-02-18T14:19:05Z</time>
      </trkpt>
      <trkpt lat="47.80979" lon="5.38634">
        <ele>466.5</ele>
        <time>2018-02-18T14:19:10Z</time>
      </trkpt>
      <trkpt lat="47.80985" lon="5.38633">
        <ele>466.1</ele>
        <time>2018-02-18T14:19:15Z</time>
      </trkpt>
      <trkpt lat="47.80991" lon="5.38631">
        <ele>465.6</ele>
        <time>2018-02-18T14:19:20Z</time>
      </trkpt>
      <trkpt lat="47.80997" lon="5.38627">
        <ele>466.4</ele>
        <time>2018-02-18T14:19:25Z</time>
      </trkpt>
      <trkpt lat="47.81002" lon="5.38625">
        <ele>465.2</ele>
        <time>2018-02-18T14:19:30Z</time>
      </trkpt>
      <trkpt lat="47.81008" lon="5.38622">
        <ele>465.3</ele>
        <time>2018-02-18T14:19:35Z</time>
      </trkpt>
      <trkpt lat="47.81014" lon="5.3862">
        <ele>464.8</ele>
        <time>2018-02-18T14:19:40Z</time>
      </trkpt>
      <trkpt lat="47.8102" lon="5.38618">
        <ele>464.3</ele>
        <time>2018-02-18T14:19:45Z</time>
      </trkpt>
      <trkpt lat="47.81026" lon="5.38615">
        <ele>463.8</ele>
        <time>2018-02-18T14:19:50Z</time>
      </trkpt>
      <trkpt lat="47.81031" lon="5.38611">
        <ele>463.9</ele>
        <time>2018-02-18T14:19:55Z</time>
      </trkpt>
      <trkpt lat="47.81036" lon="5.38609">
        <ele>464</ele>
        <time>2018-02-18T14:20:00Z</time>
      </trkpt>
      <trkpt lat="47.81042" lon="5.38607">
        <ele>463.5</ele>
        <time>2018-02-18T14:20:05Z</time>
      </trkpt>
      <trkpt lat="47.81047" lon="5.38606">
        <ele>463.7</ele>
        <time>2018-02-18T14:20:10Z</time>
      </trkpt>
      <trkpt lat="47.8105" lon="5.38605">
        <ele>463.8</ele>
        <time>2018-02-18T14:20:15Z</time>
      </trkpt>
      <trkpt lat="47.81054" lon="5.38602">
        <ele>462.4</ele>
        <time>2018-02-18T14:20:20Z</time>
      </trkpt>
      <trkpt lat="47.81057" lon="5.38599">
        <ele>462.5</ele>
        <time>2018-02-18T14:20:25Z</time>
      </trkpt>
      <trkpt lat="47.81058" lon="5.38599">
        <ele>462.5</ele>
        <time>2018-02-18T14:20:30Z</time>
      </trkpt>
      <trkpt lat="47.81061" lon="5.38596">
        <ele>461.8</ele>
        <time>2018-02-18T14:20:35Z</time>
      </trkpt>
      <trkpt lat="47.81065" lon="5.38596">
        <ele>461.3</ele>
        <time>2018-02-18T14:20:40Z</time>
      </trkpt>
      <trkpt lat="47.81065" lon="5.38596">
        <ele>462</ele>
        <time>2018-02-18T14:20:45Z</time>
      </trkpt>
      <trkpt lat="47.81067" lon="5.38595">
        <ele>461.4</ele>
        <time>2018-02-18T14:20:50Z</time>
      </trkpt>
      <trkpt lat="47.81071" lon="5.38591">
        <ele>461.4</ele>
        <time>2018-02-18T14:20:55Z</time>
      </trkpt>
      <trkpt lat="47.81076" lon="5.38589">
        <ele>460.8</ele>
        <time>2018-02-18T14:21:00Z</time>
      </trkpt>
      <trkpt lat="47.8108" lon="5.38588">
        <ele>460.3</ele>
        <time>2018-02-18T14:21:05Z</time>
      </trkpt>
      <trkpt lat="47.81085" lon="5.38586">
        <ele>460.5</ele>
        <time>2018-02-18T14:21:10Z</time>
      </trkpt>
      <trkpt lat="47.81089" lon="5.38585">
        <ele>461.3</ele>
        <time>2018-02-18T14:21:15Z</time>
      </trkpt>
      <trkpt lat="47.81092" lon="5.38585">
        <ele>461.5</ele>
        <time>2018-02-18T14:21:20Z</time>
      </trkpt>
      <trkpt lat="47.81096" lon="5.38583">
        <ele>461.6</ele>
        <time>2018-02-18T14:21:25Z</time>
      </trkpt>
      <trkpt lat="47.811" lon="5.3858">
        <ele>461.6</ele>
        <time>2018-02-18T14:21:30Z</time>
      </trkpt>
      <trkpt lat="47.81104" lon="5.38579">
        <ele>461.8</ele>
        <time>2018-02-18T14:21:35Z</time>
      </trkpt>
      <trkpt lat="47.81108" lon="5.38575">
        <ele>460.4</ele>
        <time>2018-02-18T14:21:40Z</time>
      </trkpt>
      <trkpt lat="47.81112" lon="5.38574">
        <ele>459.8</ele>
        <time>2018-02-18T14:21:45Z</time>
      </trkpt>
      <trkpt lat="47.81115" lon="5.38571">
        <ele>459.1</ele>
        <time>2018-02-18T14:21:50Z</time>
      </trkpt>
      <trkpt lat="47.81118" lon="5.38563">
        <ele>459.6</ele>
        <time>2018-02-18T14:21:55Z</time>
      </trkpt>
      <trkpt lat="47.81123" lon="5.38558">
        <ele>458.2</ele>
        <time>2018-02-18T14:22:00Z</time>
      </trkpt>
      <trkpt lat="47.81127" lon="5.3855">
        <ele>458</ele>
        <time>2018-02-18T14:22:05Z</time>
      </trkpt>
      <trkpt lat="47.8113" lon="5.38544">
        <ele>458.6</ele>
        <time>2018-02-18T14:22:10Z</time>
      </trkpt>
      <trkpt lat="47.81134" lon="5.38539">
        <ele>457.8</ele>
        <time>2018-02-18T14:22:15Z</time>
      </trkpt>
      <trkpt lat="47.81138" lon="5.38536">
        <ele>457.2</ele>
        <time>2018-02-18T14:22:20Z</time>
      </trkpt>
      <trkpt lat="47.81142" lon="5.38531">
        <ele>455.7</ele>
        <time>2018-02-18T14:22:25Z</time>
      </trkpt>
      <trkpt lat="47.81145" lon="5.38529">
        <ele>454.3</ele>
        <time>2018-02-18T14:22:30Z</time>
      </trkpt>
      <trkpt lat="47.81148" lon="5.38525">
        <ele>453.6</ele>
        <time>2018-02-18T14:22:35Z</time>
      </trkpt>
      <trkpt lat="47.81153" lon="5.38521">
        <ele>453</ele>
        <time>2018-02-18T14:22:40Z</time>
      </trkpt>
      <trkpt lat="47.81158" lon="5.38518">
        <ele>452.3</ele>
        <time>2018-02-18T14:22:45Z</time>
      </trkpt>
      <trkpt lat="47.81162" lon="5.38516">
        <ele>451.7</ele>
        <time>2018-02-18T14:22:50Z</time>
      </trkpt>
      <trkpt lat="47.81166" lon="5.38512">
        <ele>451.8</ele>
        <time>2018-02-18T14:22:55Z</time>
      </trkpt>
      <trkpt lat="47.81171" lon="5.38507">
        <ele>451.1</ele>
        <time>2018-02-18T14:23:00Z</time>
      </trkpt>
      <trkpt lat="47.81176" lon="5.38502">
        <ele>451.8</ele>
        <time>2018-02-18T14:23:05Z</time>
      </trkpt>
      <trkpt lat="47.8118" lon="5.38499">
        <ele>451.8</ele>
        <time>2018-02-18T14:23:10Z</time>
      </trkpt>
      <trkpt lat="47.81185" lon="5.38497">
        <ele>452</ele>
        <time>2018-02-18T14:23:15Z</time>
      </trkpt>
      <trkpt lat="47.8119" lon="5.38495">
        <ele>451.4</ele>
        <time>2018-02-18T14:23:20Z</time>
      </trkpt>
      <trkpt lat="47.81193" lon="5.38492">
        <ele>451.5</ele>
        <time>2018-02-18T14:23:25Z</time>
      </trkpt>
      <trkpt lat="47.81198" lon="5.38489">
        <ele>450.8</ele>
        <time>2018-02-18T14:23:30Z</time>
      </trkpt>
      <trkpt lat="47.81202" lon="5.38483">
        <ele>449.3</ele>
        <time>2018-02-18T14:23:35Z</time>
      </trkpt>
      <trkpt lat="47.81206" lon="5.38478">
        <ele>449.3</ele>
        <time>2018-02-18T14:23:40Z</time>
      </trkpt>
      <trkpt lat="47.81212" lon="5.38473">
        <ele>447.9</ele>
        <time>2018-02-18T14:23:45Z</time>
      </trkpt>
      <trkpt lat="47.81217" lon="5.38468">
        <ele>445.1</ele>
        <time>2018-02-18T14:23:50Z</time>
      </trkpt>
      <trkpt lat="47.81221" lon="5.38464">
        <ele>443.7</ele>
        <time>2018-02-18T14:23:55Z</time>
      </trkpt>
      <trkpt lat="47.81225" lon="5.38459">
        <ele>442.9</ele>
        <time>2018-02-18T14:24:00Z</time>
      </trkpt>
      <trkpt lat="47.81229" lon="5.38454">
        <ele>441.5</ele>
        <time>2018-02-18T14:24:05Z</time>
      </trkpt>
      <trkpt lat="47.81233" lon="5.38449">
        <ele>441.4</ele>
        <time>2018-02-18T14:24:10Z</time>
      </trkpt>
      <trkpt lat="47.81237" lon="5.38443">
        <ele>439.9</ele>
        <time>2018-02-18T14:24:15Z</time>
      </trkpt>
      <trkpt lat="47.81239" lon="5.38436">
        <ele>439</ele>
        <time>2018-02-18T14:24:20Z</time>
      </trkpt>
      <trkpt lat="47.81243" lon="5.3843">
        <ele>437.5</ele>
        <time>2018-02-18T14:24:25Z</time>
      </trkpt>
      <trkpt lat="47.81246" lon="5.38422">
        <ele>437.3</ele>
        <time>2018-02-18T14:24:30Z</time>
      </trkpt>
      <trkpt lat="47.8125" lon="5.38416">
        <ele>436.4</ele>
        <time>2018-02-18T14:24:35Z</time>
      </trkpt>
      <trkpt lat="47.81253" lon="5.3841">
        <ele>435.6</ele>
        <time>2018-02-18T14:24:40Z</time>
      </trkpt>
      <trkpt lat="47.81258" lon="5.38405">
        <ele>434.2</ele>
        <time>2018-02-18T14:24:45Z</time>
      </trkpt>
      <trkpt lat="47.81261" lon="5.384">
        <ele>433.4</ele>
        <time>2018-02-18T14:24:50Z</time>
      </trkpt>
      <trkpt lat="47.81266" lon="5.38395">
        <ele>432.7</ele>
        <time>2018-02-18T14:24:55Z</time>
      </trkpt>
      <trkpt lat="47.81269" lon="5.38389">
        <ele>431.8</ele>
        <time>2018-02-18T14:25:00Z</time>
      </trkpt>
      <trkpt lat="47.81274" lon="5.38384">
        <ele>431.1</ele>
        <time>2018-02-18T14:25:05Z</time>
      </trkpt>
      <trkpt lat="47.81278" lon="5.38379">
        <ele>429.7</ele>
        <time>2018-02-18T14:25:10Z</time>
      </trkpt>
      <trkpt lat="47.81282" lon="5.38375">
        <ele>429.7</ele>
        <time>2018-02-18T14:25:15Z</time>
      </trkpt>
      <trkpt lat="47.81287" lon="5.3837">
        <ele>429</ele>
        <time>2018-02-18T14:25:20Z</time>
      </trkpt>
      <trkpt lat="47.81291" lon="5.38365">
        <ele>427.5</ele>
        <time>2018-02-18T14:25:25Z</time>
      </trkpt>
      <trkpt lat="47.81296" lon="5.3836">
        <ele>426.8</ele>
        <time>2018-02-18T14:25:30Z</time>
      </trkpt>
      <trkpt lat="47.813" lon="5.38355">
        <ele>426.1</ele>
        <time>2018-02-18T14:25:35Z</time>
      </trkpt>
      <trkpt lat="47.81304" lon="5.38349">
        <ele>426</ele>
        <time>2018-02-18T14:25:40Z</time>
      </trkpt>
      <trkpt lat="47.81309" lon="5.38345">
        <ele>425.4</ele>
        <time>2018-02-18T14:25:45Z</time>
      </trkpt>
      <trkpt lat="47.81314" lon="5.38341">
        <ele>424</ele>
        <time>2018-02-18T14:25:50Z</time>
      </trkpt>
      <trkpt lat="47.81319" lon="5.38335">
        <ele>423.2</ele>
        <time>2018-02-18T14:25:55Z</time>
      </trkpt>
      <trkpt lat="47.81325" lon="5.3833">
        <ele>423.3</ele>
        <time>2018-02-18T14:26:00Z</time>
      </trkpt>
      <trkpt lat="47.81329" lon="5.38325">
        <ele>422.6</ele>
        <time>2018-02-18T14:26:05Z</time>
      </trkpt>
      <trkpt lat="47.81335" lon="5.3832">
        <ele>421.9</ele>
        <time>2018-02-18T14:26:10Z</time>
      </trkpt>
      <trkpt lat="47.8134" lon="5.38316">
        <ele>421.2</ele>
        <time>2018-02-18T14:26:15Z</time>
      </trkpt>
      <trkpt lat="47.81345" lon="5.38311">
        <ele>420.5</ele>
        <time>2018-02-18T14:26:20Z</time>
      </trkpt>
      <trkpt lat="47.8135" lon="5.38306">
        <ele>419.2</ele>
        <time>2018-02-18T14:26:25Z</time>
      </trkpt>
      <trkpt lat="47.81355" lon="5.38301">
        <ele>419.2</ele>
        <time>2018-02-18T14:26:30Z</time>
      </trkpt>
      <trkpt lat="47.8136" lon="5.38296">
        <ele>418.5</ele>
        <time>2018-02-18T14:26:35Z</time>
      </trkpt>
      <trkpt lat="47.81365" lon="5.38292">
        <ele>417.8</ele>
        <time>2018-02-18T14:26:40Z</time>
      </trkpt>
      <trkpt lat="47.8137" lon="5.38285">
        <ele>417.8</ele>
        <time>2018-02-18T14:26:45Z</time>
      </trkpt>
      <trkpt lat="47.81376" lon="5.38281">
        <ele>416.4</ele>
        <time>2018-02-18T14:26:50Z</time>
      </trkpt>
      <trkpt lat="47.8138" lon="5.38276">
        <ele>415.7</ele>
        <time>2018-02-18T14:26:55Z</time>
      </trkpt>
      <trkpt lat="47.81385" lon="5.38271">
        <ele>415</ele>
        <time>2018-02-18T14:27:00Z</time>
      </trkpt>
      <trkpt lat="47.8139" lon="5.38266">
        <ele>414.3</ele>
        <time>2018-02-18T14:27:05Z</time>
      </trkpt>
      <trkpt lat="47.81395" lon="5.3826">
        <ele>413.5</ele>
        <time>2018-02-18T14:27:10Z</time>
      </trkpt>
      <trkpt lat="47.81399" lon="5.38255">
        <ele>412.8</ele>
        <time>2018-02-18T14:27:15Z</time>
      </trkpt>
      <trkpt lat="47.81404" lon="5.38251">
        <ele>412.1</ele>
        <time>2018-02-18T14:27:20Z</time>
      </trkpt>
      <trkpt lat="47.81409" lon="5.38246">
        <ele>411.4</ele>
        <time>2018-02-18T14:27:25Z</time>
      </trkpt>
      <trkpt lat="47.81413" lon="5.38241">
        <ele>410.7</ele>
        <time>2018-02-18T14:27:30Z</time>
      </trkpt>
      <trkpt lat="47.81419" lon="5.38236">
        <ele>410.7</ele>
        <time>2018-02-18T14:27:35Z</time>
      </trkpt>
      <trkpt lat="47.81423" lon="5.38231">
        <ele>410</ele>
        <time>2018-02-18T14:27:40Z</time>
      </trkpt>
      <trkpt lat="47.81428" lon="5.38226">
        <ele>409.3</ele>
        <time>2018-02-18T14:27:45Z</time>
      </trkpt>
      <trkpt lat="47.81432" lon="5.38221">
        <ele>409.3</ele>
        <time>2018-02-18T14:27:50Z</time>
      </trkpt>
      <trkpt lat="47.81437" lon="5.38217">
        <ele>408.6</ele>
        <time>2018-02-18T14:27:55Z</time>
      </trkpt>
      <trkpt lat="47.81442" lon="5.38212">
        <ele>407.9</ele>
        <time>2018-02-18T14:28:00Z</time>
      </trkpt>
      <trkpt lat="47.81446" lon="5.38208">
        <ele>407.9</ele>
        <time>2018-02-18T14:28:05Z</time>
      </trkpt>
      <trkpt lat="47.8145" lon="5.38203">
        <ele>407.2</ele>
        <time>2018-02-18T14:28:10Z</time>
      </trkpt>
      <trkpt lat="47.81455" lon="5.38199">
        <ele>406.5</ele>
        <time>2018-02-18T14:28:15Z</time>
      </trkpt>
      <trkpt lat="47.8146" lon="5.38195">
        <ele>406.6</ele>
        <time>2018-02-18T14:28:20Z</time>
      </trkpt>
      <trkpt lat="47.81465" lon="5.3819">
        <ele>405.9</ele>
        <time>2018-02-18T14:28:25Z</time>
      </trkpt>
      <trkpt lat="47.8147" lon="5.38186">
        <ele>404.5</ele>
        <time>2018-02-18T14:28:30Z</time>
      </trkpt>
      <trkpt lat="47.81476" lon="5.38182">
        <ele>404.6</ele>
        <time>2018-02-18T14:28:35Z</time>
      </trkpt>
      <trkpt lat="47.81481" lon="5.38177">
        <ele>403.3</ele>
        <time>2018-02-18T14:28:40Z</time>
      </trkpt>
      <trkpt lat="47.81486" lon="5.38174">
        <ele>402.6</ele>
        <time>2018-02-18T14:28:45Z</time>
      </trkpt>
      <trkpt lat="47.81491" lon="5.3817">
        <ele>402.7</ele>
        <time>2018-02-18T14:28:50Z</time>
      </trkpt>
      <trkpt lat="47.81496" lon="5.38166">
        <ele>401.3</ele>
        <time>2018-02-18T14:28:55Z</time>
      </trkpt>
      <trkpt lat="47.81502" lon="5.38161">
        <ele>401.4</ele>
        <time>2018-02-18T14:29:00Z</time>
      </trkpt>
      <trkpt lat="47.81506" lon="5.38156">
        <ele>400.7</ele>
        <time>2018-02-18T14:29:05Z</time>
      </trkpt>
      <trkpt lat="47.81512" lon="5.38153">
        <ele>400.1</ele>
        <time>2018-02-18T14:29:10Z</time>
      </trkpt>
      <trkpt lat="47.81517" lon="5.38148">
        <ele>399.4</ele>
        <time>2018-02-18T14:29:15Z</time>
      </trkpt>
      <trkpt lat="47.81522" lon="5.38143">
        <ele>398.7</ele>
        <time>2018-02-18T14:29:20Z</time>
      </trkpt>
      <trkpt lat="47.81526" lon="5.3814">
        <ele>398.1</ele>
        <time>2018-02-18T14:29:25Z</time>
      </trkpt>
      <trkpt lat="47.81531" lon="5.38136">
        <ele>397.4</ele>
        <time>2018-02-18T14:29:30Z</time>
      </trkpt>
      <trkpt lat="47.81536" lon="5.38131">
        <ele>397.5</ele>
        <time>2018-02-18T14:29:35Z</time>
      </trkpt>
      <trkpt lat="47.81541" lon="5.38128">
        <ele>396.8</ele>
        <time>2018-02-18T14:29:40Z</time>
      </trkpt>
      <trkpt lat="47.81546" lon="5.38124">
        <ele>396.2</ele>
        <time>2018-02-18T14:29:45Z</time>
      </trkpt>
      <trkpt lat="47.8155" lon="5.38121">
        <ele>395.5</ele>
        <time>2018-02-18T14:29:50Z</time>
      </trkpt>
      <trkpt lat="47.81555" lon="5.38116">
        <ele>394.8</ele>
        <time>2018-02-18T14:29:55Z</time>
      </trkpt>
      <trkpt lat="47.81561" lon="5.38111">
        <ele>394.2</ele>
        <time>2018-02-18T14:30:00Z</time>
      </trkpt>
      <trkpt lat="47.81566" lon="5.38108">
        <ele>393.6</ele>
        <time>2018-02-18T14:30:05Z</time>
      </trkpt>
      <trkpt lat="47.81571" lon="5.38103">
        <ele>392.2</ele>
        <time>2018-02-18T14:30:10Z</time>
      </trkpt>
      <trkpt lat="47.81576" lon="5.381">
        <ele>392.3</ele>
        <time>2018-02-18T14:30:15Z</time>
      </trkpt>
      <trkpt lat="47.81581" lon="5.38095">
        <ele>391.6</ele>
        <time>2018-02-18T14:30:20Z</time>
      </trkpt>
      <trkpt lat="47.81587" lon="5.38092">
        <ele>391</ele>
        <time>2018-02-18T14:30:25Z</time>
      </trkpt>
      <trkpt lat="47.81592" lon="5.38087">
        <ele>390.3</ele>
        <time>2018-02-18T14:30:30Z</time>
      </trkpt>
      <trkpt lat="47.81596" lon="5.38083">
        <ele>389.7</ele>
        <time>2018-02-18T14:30:35Z</time>
      </trkpt>
      <trkpt lat="47.81602" lon="5.3808">
        <ele>389.8</ele>
        <time>2018-02-18T14:30:40Z</time>
      </trkpt>
      <trkpt lat="47.81607" lon="5.38075">
        <ele>389.8</ele>
        <time>2018-02-18T14:30:45Z</time>
      </trkpt>
      <trkpt lat="47.81612" lon="5.38072">
        <ele>388.5</ele>
        <time>2018-02-18T14:30:50Z</time>
      </trkpt>
      <trkpt lat="47.81617" lon="5.38069">
        <ele>387.9</ele>
        <time>2018-02-18T14:30:55Z</time>
      </trkpt>
      <trkpt lat="47.81621" lon="5.38065">
        <ele>387.2</ele>
        <time>2018-02-18T14:31:00Z</time>
      </trkpt>
      <trkpt lat="47.81627" lon="5.38061">
        <ele>385.9</ele>
        <time>2018-02-18T14:31:05Z</time>
      </trkpt>
      <trkpt lat="47.81629" lon="5.38059">
        <ele>385.2</ele>
        <time>2018-02-18T14:31:10Z</time>
      </trkpt>
      <trkpt lat="47.81633" lon="5.38055">
        <ele>384.6</ele>
        <time>2018-02-18T14:31:15Z</time>
      </trkpt>
      <trkpt lat="47.81638" lon="5.38052">
        <ele>385.3</ele>
        <time>2018-02-18T14:31:20Z</time>
      </trkpt>
      <trkpt lat="47.8164" lon="5.38051">
        <ele>384.7</ele>
        <time>2018-02-18T14:31:25Z</time>
      </trkpt>
      <trkpt lat="47.8164" lon="5.38051">
        <ele>384.7</ele>
        <time>2018-02-18T14:31:30Z</time>
      </trkpt>
      <trkpt lat="47.81642" lon="5.38048">
        <ele>384</ele>
        <time>2018-02-18T14:31:35Z</time>
      </trkpt>
      <trkpt lat="47.81647" lon="5.38045">
        <ele>384.1</ele>
        <time>2018-02-18T14:31:40Z</time>
      </trkpt>
      <trkpt lat="47.81652" lon="5.38041">
        <ele>383.4</ele>
        <time>2018-02-18T14:31:45Z</time>
      </trkpt>
      <trkpt lat="47.81657" lon="5.38038">
        <ele>383.5</ele>
        <time>2018-02-18T14:31:50Z</time>
      </trkpt>
      <trkpt lat="47.81663" lon="5.38033">
        <ele>382.1</ele>
        <time>2018-02-18T14:31:55Z</time>
      </trkpt>
      <trkpt lat="47.81669" lon="5.3803">
        <ele>381.6</ele>
        <time>2018-02-18T14:32:00Z</time>
      </trkpt>
      <trkpt lat="47.81675" lon="5.38025">
        <ele>380.9</ele>
        <time>2018-02-18T14:32:05Z</time>
      </trkpt>
      <trkpt lat="47.81679" lon="5.38022">
        <ele>380.3</ele>
        <time>2018-02-18T14:32:10Z</time>
      </trkpt>
      <trkpt lat="47.81684" lon="5.38018">
        <ele>380.4</ele>
        <time>2018-02-18T14:32:15Z</time>
      </trkpt>
      <trkpt lat="47.81689" lon="5.38015">
        <ele>379.8</ele>
        <time>2018-02-18T14:32:20Z</time>
      </trkpt>
      <trkpt lat="47.81694" lon="5.3801">
        <ele>379.1</ele>
        <time>2018-02-18T14:32:25Z</time>
      </trkpt>
      <trkpt lat="47.817" lon="5.38008">
        <ele>378.6</ele>
        <time>2018-02-18T14:32:30Z</time>
      </trkpt>
      <trkpt lat="47.81705" lon="5.38003">
        <ele>378.6</ele>
        <time>2018-02-18T14:32:35Z</time>
      </trkpt>
      <trkpt lat="47.81711" lon="5.38">
        <ele>378</ele>
        <time>2018-02-18T14:32:40Z</time>
      </trkpt>
      <trkpt lat="47.81716" lon="5.37995">
        <ele>378.1</ele>
        <time>2018-02-18T14:32:45Z</time>
      </trkpt>
      <trkpt lat="47.81721" lon="5.3799">
        <ele>377.4</ele>
        <time>2018-02-18T14:32:50Z</time>
      </trkpt>
      <trkpt lat="47.81727" lon="5.37985">
        <ele>376.7</ele>
        <time>2018-02-18T14:32:55Z</time>
      </trkpt>
      <trkpt lat="47.81732" lon="5.3798">
        <ele>376</ele>
        <time>2018-02-18T14:33:00Z</time>
      </trkpt>
      <trkpt lat="47.81736" lon="5.37975">
        <ele>376.7</ele>
        <time>2018-02-18T14:33:05Z</time>
      </trkpt>
      <trkpt lat="47.81741" lon="5.37969">
        <ele>376</ele>
        <time>2018-02-18T14:33:10Z</time>
      </trkpt>
      <trkpt lat="47.81747" lon="5.37963">
        <ele>375.9</ele>
        <time>2018-02-18T14:33:15Z</time>
      </trkpt>
      <trkpt lat="47.81751" lon="5.37958">
        <ele>375.9</ele>
        <time>2018-02-18T14:33:20Z</time>
      </trkpt>
      <trkpt lat="47.81755" lon="5.37952">
        <ele>375.1</ele>
        <time>2018-02-18T14:33:25Z</time>
      </trkpt>
      <trkpt lat="47.81759" lon="5.37946">
        <ele>375</ele>
        <time>2018-02-18T14:33:30Z</time>
      </trkpt>
      <trkpt lat="47.81764" lon="5.3794">
        <ele>374.3</ele>
        <time>2018-02-18T14:33:35Z</time>
      </trkpt>
      <trkpt lat="47.81768" lon="5.37935">
        <ele>374.2</ele>
        <time>2018-02-18T14:33:40Z</time>
      </trkpt>
      <trkpt lat="47.81774" lon="5.37929">
        <ele>374.2</ele>
        <time>2018-02-18T14:33:45Z</time>
      </trkpt>
      <trkpt lat="47.81778" lon="5.37922">
        <ele>373.5</ele>
        <time>2018-02-18T14:33:50Z</time>
      </trkpt>
      <trkpt lat="47.81783" lon="5.37916">
        <ele>373.4</ele>
        <time>2018-02-18T14:33:55Z</time>
      </trkpt>
      <trkpt lat="47.81788" lon="5.37911">
        <ele>373.4</ele>
        <time>2018-02-18T14:34:00Z</time>
      </trkpt>
      <trkpt lat="47.81792" lon="5.37904">
        <ele>373.2</ele>
        <time>2018-02-18T14:34:05Z</time>
      </trkpt>
      <trkpt lat="47.81796" lon="5.37897">
        <ele>373.1</ele>
        <time>2018-02-18T14:34:10Z</time>
      </trkpt>
      <trkpt lat="47.818" lon="5.37893">
        <ele>373.1</ele>
        <time>2018-02-18T14:34:15Z</time>
      </trkpt>
      <trkpt lat="47.81805" lon="5.37886">
        <ele>372.3</ele>
        <time>2018-02-18T14:34:20Z</time>
      </trkpt>
      <trkpt lat="47.8181" lon="5.3788">
        <ele>373</ele>
        <time>2018-02-18T14:34:25Z</time>
      </trkpt>
      <trkpt lat="47.81814" lon="5.37875">
        <ele>373</ele>
        <time>2018-02-18T14:34:30Z</time>
      </trkpt>
      <trkpt lat="47.81819" lon="5.37869">
        <ele>372.2</ele>
        <time>2018-02-18T14:34:35Z</time>
      </trkpt>
      <trkpt lat="47.81823" lon="5.37863">
        <ele>372.1</ele>
        <time>2018-02-18T14:34:40Z</time>
      </trkpt>
      <trkpt lat="47.81827" lon="5.37856">
        <ele>372.7</ele>
        <time>2018-02-18T14:34:45Z</time>
      </trkpt>
      <trkpt lat="47.81831" lon="5.37852">
        <ele>372.7</ele>
        <time>2018-02-18T14:34:50Z</time>
      </trkpt>
      <trkpt lat="47.81836" lon="5.37845">
        <ele>371.9</ele>
        <time>2018-02-18T14:34:55Z</time>
      </trkpt>
      <trkpt lat="47.8184" lon="5.37839">
        <ele>371.8</ele>
        <time>2018-02-18T14:35:00Z</time>
      </trkpt>
      <trkpt lat="47.81846" lon="5.37833">
        <ele>371.8</ele>
        <time>2018-02-18T14:35:05Z</time>
      </trkpt>
      <trkpt lat="47.8185" lon="5.37827">
        <ele>371.7</ele>
        <time>2018-02-18T14:35:10Z</time>
      </trkpt>
      <trkpt lat="47.81854" lon="5.3782">
        <ele>371.6</ele>
        <time>2018-02-18T14:35:15Z</time>
      </trkpt>
      <trkpt lat="47.81859" lon="5.37814">
        <ele>370.8</ele>
        <time>2018-02-18T14:35:20Z</time>
      </trkpt>
      <trkpt lat="47.81863" lon="5.37809">
        <ele>370.1</ele>
        <time>2018-02-18T14:35:25Z</time>
      </trkpt>
      <trkpt lat="47.81869" lon="5.37803">
        <ele>370.1</ele>
        <time>2018-02-18T14:35:30Z</time>
      </trkpt>
      <trkpt lat="47.81873" lon="5.37796">
        <ele>370</ele>
        <time>2018-02-18T14:35:35Z</time>
      </trkpt>
      <trkpt lat="47.81877" lon="5.37789">
        <ele>369.9</ele>
        <time>2018-02-18T14:35:40Z</time>
      </trkpt>
      <trkpt lat="47.81882" lon="5.37783">
        <ele>369.8</ele>
        <time>2018-02-18T14:35:45Z</time>
      </trkpt>
      <trkpt lat="47.81887" lon="5.37777">
        <ele>369.7</ele>
        <time>2018-02-18T14:35:50Z</time>
      </trkpt>
      <trkpt lat="47.81891" lon="5.37771">
        <ele>369</ele>
        <time>2018-02-18T14:35:55Z</time>
      </trkpt>
      <trkpt lat="47.81897" lon="5.37763">
        <ele>368.9</ele>
        <time>2018-02-18T14:36:00Z</time>
      </trkpt>
      <trkpt lat="47.81901" lon="5.37757">
        <ele>368.8</ele>
        <time>2018-02-18T14:36:05Z</time>
      </trkpt>
      <trkpt lat="47.81906" lon="5.37751">
        <ele>368</ele>
        <time>2018-02-18T14:36:10Z</time>
      </trkpt>
      <trkpt lat="47.8191" lon="5.37745">
        <ele>368.7</ele>
        <time>2018-02-18T14:36:15Z</time>
      </trkpt>
      <trkpt lat="47.81915" lon="5.37739">
        <ele>367.9</ele>
        <time>2018-02-18T14:36:20Z</time>
      </trkpt>
      <trkpt lat="47.81919" lon="5.37734">
        <ele>367.9</ele>
        <time>2018-02-18T14:36:25Z</time>
      </trkpt>
      <trkpt lat="47.81923" lon="5.37727">
        <ele>367.8</ele>
        <time>2018-02-18T14:36:30Z</time>
      </trkpt>
      <trkpt lat="47.81928" lon="5.3772">
        <ele>367.6</ele>
        <time>2018-02-18T14:36:35Z</time>
      </trkpt>
      <trkpt lat="47.81931" lon="5.37712">
        <ele>366.7</ele>
        <time>2018-02-18T14:36:40Z</time>
      </trkpt>
      <trkpt lat="47.81935" lon="5.37705">
        <ele>366.6</ele>
        <time>2018-02-18T14:36:45Z</time>
      </trkpt>
      <trkpt lat="47.81939" lon="5.37697">
        <ele>366.4</ele>
        <time>2018-02-18T14:36:50Z</time>
      </trkpt>
      <trkpt lat="47.81944" lon="5.37692">
        <ele>366.4</ele>
        <time>2018-02-18T14:36:55Z</time>
      </trkpt>
      <trkpt lat="47.81948" lon="5.37686">
        <ele>365.6</ele>
        <time>2018-02-18T14:37:00Z</time>
      </trkpt>
      <trkpt lat="47.81952" lon="5.37678">
        <ele>365.4</ele>
        <time>2018-02-18T14:37:05Z</time>
      </trkpt>
      <trkpt lat="47.81957" lon="5.37672">
        <ele>366.1</ele>
        <time>2018-02-18T14:37:10Z</time>
      </trkpt>
      <trkpt lat="47.81961" lon="5.37667">
        <ele>366</ele>
        <time>2018-02-18T14:37:15Z</time>
      </trkpt>
      <trkpt lat="47.81966" lon="5.37662">
        <ele>366.7</ele>
        <time>2018-02-18T14:37:20Z</time>
      </trkpt>
      <trkpt lat="47.81971" lon="5.37659">
        <ele>366.1</ele>
        <time>2018-02-18T14:37:25Z</time>
      </trkpt>
      <trkpt lat="47.81976" lon="5.37654">
        <ele>366.1</ele>
        <time>2018-02-18T14:37:30Z</time>
      </trkpt>
      <trkpt lat="47.81982" lon="5.3765">
        <ele>365.6</ele>
        <time>2018-02-18T14:37:35Z</time>
      </trkpt>
      <trkpt lat="47.81987" lon="5.37646">
        <ele>365.6</ele>
        <time>2018-02-18T14:37:40Z</time>
      </trkpt>
      <trkpt lat="47.81992" lon="5.37641">
        <ele>364.9</ele>
        <time>2018-02-18T14:37:45Z</time>
      </trkpt>
      <trkpt lat="47.81997" lon="5.37635">
        <ele>364.9</ele>
        <time>2018-02-18T14:37:50Z</time>
      </trkpt>
      <trkpt lat="47.82003" lon="5.3763">
        <ele>364.9</ele>
        <time>2018-02-18T14:37:55Z</time>
      </trkpt>
      <trkpt lat="47.82007" lon="5.37625">
        <ele>364.2</ele>
        <time>2018-02-18T14:38:00Z</time>
      </trkpt>
      <trkpt lat="47.82013" lon="5.37622">
        <ele>364.3</ele>
        <time>2018-02-18T14:38:05Z</time>
      </trkpt>
      <trkpt lat="47.82018" lon="5.37615">
        <ele>364.3</ele>
        <time>2018-02-18T14:38:10Z</time>
      </trkpt>
      <trkpt lat="47.82023" lon="5.37611">
        <ele>363.6</ele>
        <time>2018-02-18T14:38:15Z</time>
      </trkpt>
      <trkpt lat="47.82028" lon="5.37606">
        <ele>363.6</ele>
        <time>2018-02-18T14:38:20Z</time>
      </trkpt>
      <trkpt lat="47.82034" lon="5.37601">
        <ele>363</ele>
        <time>2018-02-18T14:38:25Z</time>
      </trkpt>
      <trkpt lat="47.82038" lon="5.37596">
        <ele>363</ele>
        <time>2018-02-18T14:38:30Z</time>
      </trkpt>
      <trkpt lat="47.82044" lon="5.37591">
        <ele>362.3</ele>
        <time>2018-02-18T14:38:35Z</time>
      </trkpt>
      <trkpt lat="47.82048" lon="5.37585">
        <ele>362.3</ele>
        <time>2018-02-18T14:38:40Z</time>
      </trkpt>
      <trkpt lat="47.82053" lon="5.37582">
        <ele>361.6</ele>
        <time>2018-02-18T14:38:45Z</time>
      </trkpt>
      <trkpt lat="47.82057" lon="5.37577">
        <ele>361.6</ele>
        <time>2018-02-18T14:38:50Z</time>
      </trkpt>
      <trkpt lat="47.82062" lon="5.37575">
        <ele>361.7</ele>
        <time>2018-02-18T14:38:55Z</time>
      </trkpt>
      <trkpt lat="47.82066" lon="5.37578">
        <ele>361.4</ele>
        <time>2018-02-18T14:39:00Z</time>
      </trkpt>
      <trkpt lat="47.8207" lon="5.37586">
        <ele>363.4</ele>
        <time>2018-02-18T14:39:05Z</time>
      </trkpt>
      <trkpt lat="47.82071" lon="5.37593">
        <ele>363.1</ele>
        <time>2018-02-18T14:39:10Z</time>
      </trkpt>
      <trkpt lat="47.82073" lon="5.37602">
        <ele>364.4</ele>
        <time>2018-02-18T14:39:15Z</time>
      </trkpt>
      <trkpt lat="47.82075" lon="5.37609">
        <ele>364.9</ele>
        <time>2018-02-18T14:39:20Z</time>
      </trkpt>
      <trkpt lat="47.82076" lon="5.37617">
        <ele>366</ele>
        <time>2018-02-18T14:39:25Z</time>
      </trkpt>
      <trkpt lat="47.82079" lon="5.37626">
        <ele>366.6</ele>
        <time>2018-02-18T14:39:30Z</time>
      </trkpt>
      <trkpt lat="47.82081" lon="5.37634">
        <ele>367.1</ele>
        <time>2018-02-18T14:39:35Z</time>
      </trkpt>
      <trkpt lat="47.82083" lon="5.37641">
        <ele>367.5</ele>
        <time>2018-02-18T14:39:40Z</time>
      </trkpt>
      <trkpt lat="47.82086" lon="5.37649">
        <ele>368.8</ele>
        <time>2018-02-18T14:39:45Z</time>
      </trkpt>
      <trkpt lat="47.82088" lon="5.37656">
        <ele>369.3</ele>
        <time>2018-02-18T14:39:50Z</time>
      </trkpt>
      <trkpt lat="47.8209" lon="5.37664">
        <ele>369.8</ele>
        <time>2018-02-18T14:39:55Z</time>
      </trkpt>
      <trkpt lat="47.82092" lon="5.37671">
        <ele>370.9</ele>
        <time>2018-02-18T14:40:00Z</time>
      </trkpt>
      <trkpt lat="47.82093" lon="5.37679">
        <ele>370.7</ele>
        <time>2018-02-18T14:40:05Z</time>
      </trkpt>
      <trkpt lat="47.82095" lon="5.37687">
        <ele>370.5</ele>
        <time>2018-02-18T14:40:10Z</time>
      </trkpt>
      <trkpt lat="47.821" lon="5.37694">
        <ele>371.1</ele>
        <time>2018-02-18T14:40:15Z</time>
      </trkpt>
      <trkpt lat="47.82101" lon="5.37702">
        <ele>372.3</ele>
        <time>2018-02-18T14:40:20Z</time>
      </trkpt>
      <trkpt lat="47.82102" lon="5.37709">
        <ele>372.7</ele>
        <time>2018-02-18T14:40:25Z</time>
      </trkpt>
      <trkpt lat="47.82103" lon="5.37717">
        <ele>373.1</ele>
        <time>2018-02-18T14:40:30Z</time>
      </trkpt>
      <trkpt lat="47.82104" lon="5.37724">
        <ele>373.5</ele>
        <time>2018-02-18T14:40:35Z</time>
      </trkpt>
      <trkpt lat="47.82105" lon="5.37732">
        <ele>374</ele>
        <time>2018-02-18T14:40:40Z</time>
      </trkpt>
      <trkpt lat="47.82106" lon="5.37739">
        <ele>375.1</ele>
        <time>2018-02-18T14:40:45Z</time>
      </trkpt>
      <trkpt lat="47.82108" lon="5.37747">
        <ele>375.6</ele>
        <time>2018-02-18T14:40:50Z</time>
      </trkpt>
      <trkpt lat="47.82109" lon="5.37754">
        <ele>375.3</ele>
        <time>2018-02-18T14:40:55Z</time>
      </trkpt>
      <trkpt lat="47.82111" lon="5.37762">
        <ele>375.8</ele>
        <time>2018-02-18T14:41:00Z</time>
      </trkpt>
      <trkpt lat="47.82114" lon="5.37769">
        <ele>375.6</ele>
        <time>2018-02-18T14:41:05Z</time>
      </trkpt>
      <trkpt lat="47.82115" lon="5.37777">
        <ele>375.3</ele>
        <time>2018-02-18T14:41:10Z</time>
      </trkpt>
      <trkpt lat="47.82117" lon="5.37786">
        <ele>375.1</ele>
        <time>2018-02-18T14:41:15Z</time>
      </trkpt>
      <trkpt lat="47.82119" lon="5.37793">
        <ele>375.6</ele>
        <time>2018-02-18T14:41:20Z</time>
      </trkpt>
      <trkpt lat="47.8212" lon="5.37799">
        <ele>374.6</ele>
        <time>2018-02-18T14:41:25Z</time>
      </trkpt>
      <trkpt lat="47.82121" lon="5.37805">
        <ele>375.6</ele>
        <time>2018-02-18T14:41:30Z</time>
      </trkpt>
      <trkpt lat="47.82119" lon="5.3781">
        <ele>375.7</ele>
        <time>2018-02-18T14:41:35Z</time>
      </trkpt>
      <trkpt lat="47.82118" lon="5.37815">
        <ele>375.9</ele>
        <time>2018-02-18T14:41:40Z</time>
      </trkpt>
      <trkpt lat="47.82117" lon="5.37822">
        <ele>376.9</ele>
        <time>2018-02-18T14:41:45Z</time>
      </trkpt>
      <trkpt lat="47.82116" lon="5.37826">
        <ele>377.1</ele>
        <time>2018-02-18T14:41:50Z</time>
      </trkpt>
      <trkpt lat="47.82117" lon="5.37827">
        <ele>377.9</ele>
        <time>2018-02-18T14:41:55Z</time>
      </trkpt>
      <trkpt lat="47.82117" lon="5.37827">
        <ele>377.9</ele>
        <time>2018-02-18T14:42:00Z</time>
      </trkpt>
      <trkpt lat="47.82117" lon="5.37827">
        <ele>377.9</ele>
        <time>2018-02-18T14:42:05Z</time>
      </trkpt>
      <trkpt lat="47.82117" lon="5.37827">
        <ele>377.9</ele>
        <time>2018-02-18T14:42:10Z</time>
      </trkpt>
      <trkpt lat="47.82117" lon="5.37827">
        <ele>377.9</ele>
        <time>2018-02-18T14:42:15Z</time>
      </trkpt>
      <trkpt lat="47.82117" lon="5.37828">
        <ele>378</ele>
        <time>2018-02-18T14:42:20Z</time>
      </trkpt>
      <trkpt lat="47.82119" lon="5.37831">
        <ele>377.5</ele>
        <time>2018-02-18T14:42:25Z</time>
      </trkpt>
      <trkpt lat="47.82118" lon="5.37832">
        <ele>378.2</ele>
        <time>2018-02-18T14:42:30Z</time>
      </trkpt>
      <trkpt lat="47.82117" lon="5.37834">
        <ele>377.5</ele>
        <time>2018-02-18T14:42:35Z</time>
      </trkpt>
      <trkpt lat="47.82117" lon="5.37834">
        <ele>377.5</ele>
        <time>2018-02-18T14:42:40Z</time>
      </trkpt>
      <trkpt lat="47.82117" lon="5.37834">
        <ele>377.5</ele>
        <time>2018-02-18T14:42:45Z</time>
      </trkpt>
      <trkpt lat="47.82117" lon="5.37834">
        <ele>377.5</ele>
        <time>2018-02-18T14:42:50Z</time>
      </trkpt>
      <trkpt lat="47.82117" lon="5.37834">
        <ele>377.5</ele>
        <time>2018-02-18T14:42:55Z</time>
      </trkpt>
      <trkpt lat="47.82118" lon="5.37835">
        <ele>376.9</ele>
        <time>2018-02-18T14:43:00Z</time>
      </trkpt>
      <trkpt lat="47.82118" lon="5.37837">
        <ele>376.3</ele>
        <time>2018-02-18T14:43:05Z</time>
      </trkpt>
      <trkpt lat="47.82118" lon="5.37837">
        <ele>376.3</ele>
        <time>2018-02-18T14:43:10Z</time>
      </trkpt>
      <trkpt lat="47.82118" lon="5.37837">
        <ele>376.3</ele>
        <time>2018-02-18T14:43:15Z</time>
      </trkpt>
      <trkpt lat="47.82119" lon="5.37835">
        <ele>376.3</ele>
        <time>2018-02-18T14:43:20Z</time>
      </trkpt>
      <trkpt lat="47.82119" lon="5.37834">
        <ele>376.2</ele>
        <time>2018-02-18T14:43:25Z</time>
      </trkpt>
      <trkpt lat="47.8212" lon="5.3783">
        <ele>376.1</ele>
        <time>2018-02-18T14:43:30Z</time>
      </trkpt>
      <trkpt lat="47.82123" lon="5.37829">
        <ele>376.2</ele>
        <time>2018-02-18T14:43:35Z</time>
      </trkpt>
      <trkpt lat="47.82125" lon="5.37828">
        <ele>376.3</ele>
        <time>2018-02-18T14:43:40Z</time>
      </trkpt>
      <trkpt lat="47.8213" lon="5.37834">
        <ele>374.6</ele>
        <time>2018-02-18T14:43:45Z</time>
      </trkpt>
      <trkpt lat="47.82133" lon="5.3784">
        <ele>373.7</ele>
        <time>2018-02-18T14:43:50Z</time>
      </trkpt>
      <trkpt lat="47.82137" lon="5.37847">
        <ele>373.6</ele>
        <time>2018-02-18T14:43:55Z</time>
      </trkpt>
      <trkpt lat="47.82139" lon="5.37854">
        <ele>374.7</ele>
        <time>2018-02-18T14:44:00Z</time>
      </trkpt>
      <trkpt lat="47.8214" lon="5.3786">
        <ele>375.8</ele>
        <time>2018-02-18T14:44:05Z</time>
      </trkpt>
      <trkpt lat="47.82141" lon="5.37866">
        <ele>376.1</ele>
        <time>2018-02-18T14:44:10Z</time>
      </trkpt>
      <trkpt lat="47.82141" lon="5.37867">
        <ele>376.2</ele>
        <time>2018-02-18T14:44:15Z</time>
      </trkpt>
      <trkpt lat="47.82141" lon="5.37867">
        <ele>376.2</ele>
        <time>2018-02-18T14:44:20Z</time>
      </trkpt>
      <trkpt lat="47.82141" lon="5.37867">
        <ele>376.2</ele>
        <time>2018-02-18T14:44:25Z</time>
      </trkpt>
      <trkpt lat="47.82142" lon="5.3787">
        <ele>376.4</ele>
        <time>2018-02-18T14:44:30Z</time>
      </trkpt>
      <trkpt lat="47.82144" lon="5.37875">
        <ele>376.7</ele>
        <time>2018-02-18T14:44:35Z</time>
      </trkpt>
      <trkpt lat="47.82145" lon="5.37882">
        <ele>376.5</ele>
        <time>2018-02-18T14:44:40Z</time>
      </trkpt>
      <trkpt lat="47.82145" lon="5.37882">
        <ele>376.5</ele>
        <time>2018-02-18T14:44:45Z</time>
      </trkpt>
      <trkpt lat="47.82145" lon="5.37889">
        <ele>376.1</ele>
        <time>2018-02-18T14:44:50Z</time>
      </trkpt>
      <trkpt lat="47.82147" lon="5.37895">
        <ele>376.4</ele>
        <time>2018-02-18T14:44:55Z</time>
      </trkpt>
      <trkpt lat="47.82146" lon="5.37901">
        <ele>376</ele>
        <time>2018-02-18T14:45:00Z</time>
      </trkpt>
      <trkpt lat="47.82145" lon="5.37911">
        <ele>375</ele>
        <time>2018-02-18T14:45:05Z</time>
      </trkpt>
      <trkpt lat="47.82144" lon="5.37919">
        <ele>374.7</ele>
        <time>2018-02-18T14:45:10Z</time>
      </trkpt>
      <trkpt lat="47.82143" lon="5.37928">
        <ele>374.4</ele>
        <time>2018-02-18T14:45:15Z</time>
      </trkpt>
      <trkpt lat="47.82142" lon="5.37937">
        <ele>374.1</ele>
        <time>2018-02-18T14:45:20Z</time>
      </trkpt>
      <trkpt lat="47.8214" lon="5.37945">
        <ele>373.6</ele>
        <time>2018-02-18T14:45:25Z</time>
      </trkpt>
      <trkpt lat="47.82138" lon="5.37954">
        <ele>374</ele>
        <time>2018-02-18T14:45:30Z</time>
      </trkpt>
      <trkpt lat="47.82137" lon="5.37962">
        <ele>372.9</ele>
        <time>2018-02-18T14:45:35Z</time>
      </trkpt>
      <trkpt lat="47.82135" lon="5.37971">
        <ele>373.3</ele>
        <time>2018-02-18T14:45:40Z</time>
      </trkpt>
      <trkpt lat="47.82134" lon="5.37979">
        <ele>372.9</ele>
        <time>2018-02-18T14:45:45Z</time>
      </trkpt>
      <trkpt lat="47.82132" lon="5.37988">
        <ele>373.9</ele>
        <time>2018-02-18T14:45:50Z</time>
      </trkpt>
      <trkpt lat="47.8213" lon="5.37998">
        <ele>374.3</ele>
        <time>2018-02-18T14:45:55Z</time>
      </trkpt>
      <trkpt lat="47.82129" lon="5.38006">
        <ele>373.9</ele>
        <time>2018-02-18T14:46:00Z</time>
      </trkpt>
      <trkpt lat="47.82127" lon="5.38015">
        <ele>374.3</ele>
        <time>2018-02-18T14:46:05Z</time>
      </trkpt>
      <trkpt lat="47.82125" lon="5.38024">
        <ele>374.7</ele>
        <time>2018-02-18T14:46:10Z</time>
      </trkpt>
      <trkpt lat="47.82124" lon="5.38033">
        <ele>374.4</ele>
        <time>2018-02-18T14:46:15Z</time>
      </trkpt>
      <trkpt lat="47.82123" lon="5.38042">
        <ele>375.5</ele>
        <time>2018-02-18T14:46:20Z</time>
      </trkpt>
      <trkpt lat="47.82122" lon="5.3805">
        <ele>375.8</ele>
        <time>2018-02-18T14:46:25Z</time>
      </trkpt>
      <trkpt lat="47.8212" lon="5.38061">
        <ele>376.2</ele>
        <time>2018-02-18T14:46:30Z</time>
      </trkpt>
      <trkpt lat="47.82118" lon="5.3807">
        <ele>376.6</ele>
        <time>2018-02-18T14:46:35Z</time>
      </trkpt>
      <trkpt lat="47.82118" lon="5.38079">
        <ele>377</ele>
        <time>2018-02-18T14:46:40Z</time>
      </trkpt>
      <trkpt lat="47.82115" lon="5.3809">
        <ele>378.1</ele>
        <time>2018-02-18T14:46:45Z</time>
      </trkpt>
      <trkpt lat="47.82114" lon="5.38099">
        <ele>379.9</ele>
        <time>2018-02-18T14:46:50Z</time>
      </trkpt>
      <trkpt lat="47.82112" lon="5.38109">
        <ele>380.3</ele>
        <time>2018-02-18T14:46:55Z</time>
      </trkpt>
      <trkpt lat="47.82111" lon="5.38119">
        <ele>380</ele>
        <time>2018-02-18T14:47:00Z</time>
      </trkpt>
      <trkpt lat="47.82108" lon="5.38128">
        <ele>379.7</ele>
        <time>2018-02-18T14:47:05Z</time>
      </trkpt>
      <trkpt lat="47.82107" lon="5.38137">
        <ele>379.4</ele>
        <time>2018-02-18T14:47:10Z</time>
      </trkpt>
      <trkpt lat="47.82106" lon="5.38146">
        <ele>379.7</ele>
        <time>2018-02-18T14:47:15Z</time>
      </trkpt>
      <trkpt lat="47.82103" lon="5.38155">
        <ele>379.4</ele>
        <time>2018-02-18T14:47:20Z</time>
      </trkpt>
      <trkpt lat="47.82101" lon="5.38165">
        <ele>379</ele>
        <time>2018-02-18T14:47:25Z</time>
      </trkpt>
      <trkpt lat="47.82099" lon="5.38175">
        <ele>378.7</ele>
        <time>2018-02-18T14:47:30Z</time>
      </trkpt>
      <trkpt lat="47.82097" lon="5.38184">
        <ele>379</ele>
        <time>2018-02-18T14:47:35Z</time>
      </trkpt>
      <trkpt lat="47.82094" lon="5.38195">
        <ele>379.4</ele>
        <time>2018-02-18T14:47:40Z</time>
      </trkpt>
      <trkpt lat="47.82092" lon="5.38204">
        <ele>379</ele>
        <time>2018-02-18T14:47:45Z</time>
      </trkpt>
      <trkpt lat="47.82089" lon="5.38212">
        <ele>378.6</ele>
        <time>2018-02-18T14:47:50Z</time>
      </trkpt>
      <trkpt lat="47.82086" lon="5.38222">
        <ele>379</ele>
        <time>2018-02-18T14:47:55Z</time>
      </trkpt>
      <trkpt lat="47.82084" lon="5.3823">
        <ele>378.5</ele>
        <time>2018-02-18T14:48:00Z</time>
      </trkpt>
      <trkpt lat="47.82081" lon="5.38239">
        <ele>378.1</ele>
        <time>2018-02-18T14:48:05Z</time>
      </trkpt>
      <trkpt lat="47.82078" lon="5.38247">
        <ele>378.3</ele>
        <time>2018-02-18T14:48:10Z</time>
      </trkpt>
      <trkpt lat="47.82074" lon="5.38254">
        <ele>377.1</ele>
        <time>2018-02-18T14:48:15Z</time>
      </trkpt>
      <trkpt lat="47.82071" lon="5.3826">
        <ele>376.5</ele>
        <time>2018-02-18T14:48:20Z</time>
      </trkpt>
      <trkpt lat="47.82068" lon="5.38269">
        <ele>377.5</ele>
        <time>2018-02-18T14:48:25Z</time>
      </trkpt>
      <trkpt lat="47.82064" lon="5.38276">
        <ele>377.6</ele>
        <time>2018-02-18T14:48:30Z</time>
      </trkpt>
      <trkpt lat="47.82059" lon="5.38284">
        <ele>377</ele>
        <time>2018-02-18T14:48:35Z</time>
      </trkpt>
      <trkpt lat="47.82055" lon="5.38291">
        <ele>377.2</ele>
        <time>2018-02-18T14:48:40Z</time>
      </trkpt>
      <trkpt lat="47.8205" lon="5.38299">
        <ele>377.4</ele>
        <time>2018-02-18T14:48:45Z</time>
      </trkpt>
      <trkpt lat="47.82046" lon="5.38307">
        <ele>376.8</ele>
        <time>2018-02-18T14:48:50Z</time>
      </trkpt>
      <trkpt lat="47.82041" lon="5.38314">
        <ele>377.6</ele>
        <time>2018-02-18T14:48:55Z</time>
      </trkpt>
      <trkpt lat="47.82036" lon="5.38322">
        <ele>377</ele>
        <time>2018-02-18T14:49:00Z</time>
      </trkpt>
      <trkpt lat="47.82031" lon="5.38329">
        <ele>376.4</ele>
        <time>2018-02-18T14:49:05Z</time>
      </trkpt>
      <trkpt lat="47.82027" lon="5.38337">
        <ele>376.6</ele>
        <time>2018-02-18T14:49:10Z</time>
      </trkpt>
      <trkpt lat="47.82022" lon="5.38344">
        <ele>376</ele>
        <time>2018-02-18T14:49:15Z</time>
      </trkpt>
      <trkpt lat="47.82018" lon="5.38352">
        <ele>376.2</ele>
        <time>2018-02-18T14:49:20Z</time>
      </trkpt>
      <trkpt lat="47.82014" lon="5.3836">
        <ele>376.3</ele>
        <time>2018-02-18T14:49:25Z</time>
      </trkpt>
      <trkpt lat="47.82009" lon="5.38367">
        <ele>375.8</ele>
        <time>2018-02-18T14:49:30Z</time>
      </trkpt>
      <trkpt lat="47.82004" lon="5.38375">
        <ele>375.9</ele>
        <time>2018-02-18T14:49:35Z</time>
      </trkpt>
      <trkpt lat="47.82" lon="5.38381">
        <ele>376</ele>
        <time>2018-02-18T14:49:40Z</time>
      </trkpt>
      <trkpt lat="47.81995" lon="5.38389">
        <ele>376.1</ele>
        <time>2018-02-18T14:49:45Z</time>
      </trkpt>
      <trkpt lat="47.81991" lon="5.38396">
        <ele>376.3</ele>
        <time>2018-02-18T14:49:50Z</time>
      </trkpt>
      <trkpt lat="47.81986" lon="5.38405">
        <ele>376.4</ele>
        <time>2018-02-18T14:49:55Z</time>
      </trkpt>
      <trkpt lat="47.81982" lon="5.38413">
        <ele>376.6</ele>
        <time>2018-02-18T14:50:00Z</time>
      </trkpt>
      <trkpt lat="47.81977" lon="5.3842">
        <ele>376.7</ele>
        <time>2018-02-18T14:50:05Z</time>
      </trkpt>
      <trkpt lat="47.81973" lon="5.38428">
        <ele>376.9</ele>
        <time>2018-02-18T14:50:10Z</time>
      </trkpt>
      <trkpt lat="47.81968" lon="5.38437">
        <ele>376.4</ele>
        <time>2018-02-18T14:50:15Z</time>
      </trkpt>
      <trkpt lat="47.81964" lon="5.38444">
        <ele>376.5</ele>
        <time>2018-02-18T14:50:20Z</time>
      </trkpt>
      <trkpt lat="47.8196" lon="5.38452">
        <ele>376.7</ele>
        <time>2018-02-18T14:50:25Z</time>
      </trkpt>
      <trkpt lat="47.81956" lon="5.38461">
        <ele>376.9</ele>
        <time>2018-02-18T14:50:30Z</time>
      </trkpt>
      <trkpt lat="47.81952" lon="5.38468">
        <ele>377.1</ele>
        <time>2018-02-18T14:50:35Z</time>
      </trkpt>
      <trkpt lat="47.81947" lon="5.38477">
        <ele>377.3</ele>
        <time>2018-02-18T14:50:40Z</time>
      </trkpt>
      <trkpt lat="47.81943" lon="5.38485">
        <ele>377.5</ele>
        <time>2018-02-18T14:50:45Z</time>
      </trkpt>
      <trkpt lat="47.8194" lon="5.38494">
        <ele>377</ele>
        <time>2018-02-18T14:50:50Z</time>
      </trkpt>
      <trkpt lat="47.81936" lon="5.38503">
        <ele>378</ele>
        <time>2018-02-18T14:50:55Z</time>
      </trkpt>
      <trkpt lat="47.81932" lon="5.38511">
        <ele>378.2</ele>
        <time>2018-02-18T14:51:00Z</time>
      </trkpt>
      <trkpt lat="47.81929" lon="5.3852">
        <ele>378.5</ele>
        <time>2018-02-18T14:51:05Z</time>
      </trkpt>
      <trkpt lat="47.81925" lon="5.38527">
        <ele>377.9</ele>
        <time>2018-02-18T14:51:10Z</time>
      </trkpt>
      <trkpt lat="47.81922" lon="5.38536">
        <ele>378.2</ele>
        <time>2018-02-18T14:51:15Z</time>
      </trkpt>
      <trkpt lat="47.81919" lon="5.38546">
        <ele>377.8</ele>
        <time>2018-02-18T14:51:20Z</time>
      </trkpt>
      <trkpt lat="47.81916" lon="5.38555">
        <ele>378.1</ele>
        <time>2018-02-18T14:51:25Z</time>
      </trkpt>
      <trkpt lat="47.8191" lon="5.38561">
        <ele>378.8</ele>
        <time>2018-02-18T14:51:30Z</time>
      </trkpt>
      <trkpt lat="47.81904" lon="5.38564">
        <ele>379.4</ele>
        <time>2018-02-18T14:51:35Z</time>
      </trkpt>
      <trkpt lat="47.81897" lon="5.38567">
        <ele>379.2</ele>
        <time>2018-02-18T14:51:40Z</time>
      </trkpt>
      <trkpt lat="47.81891" lon="5.38571">
        <ele>379.7</ele>
        <time>2018-02-18T14:51:45Z</time>
      </trkpt>
      <trkpt lat="47.81885" lon="5.38574">
        <ele>379.6</ele>
        <time>2018-02-18T14:51:50Z</time>
      </trkpt>
      <trkpt lat="47.81879" lon="5.38576">
        <ele>380.1</ele>
        <time>2018-02-18T14:51:55Z</time>
      </trkpt>
      <trkpt lat="47.81873" lon="5.38578">
        <ele>379.8</ele>
        <time>2018-02-18T14:52:00Z</time>
      </trkpt>
      <trkpt lat="47.81867" lon="5.38581">
        <ele>380.4</ele>
        <time>2018-02-18T14:52:05Z</time>
      </trkpt>
      <trkpt lat="47.81861" lon="5.38585">
        <ele>381.7</ele>
        <time>2018-02-18T14:52:10Z</time>
      </trkpt>
      <trkpt lat="47.81857" lon="5.38586">
        <ele>382.2</ele>
        <time>2018-02-18T14:52:15Z</time>
      </trkpt>
      <trkpt lat="47.81855" lon="5.38587">
        <ele>382.2</ele>
        <time>2018-02-18T14:52:20Z</time>
      </trkpt>
      <trkpt lat="47.81855" lon="5.38587">
        <ele>382.2</ele>
        <time>2018-02-18T14:52:25Z</time>
      </trkpt>
      <trkpt lat="47.81855" lon="5.38587">
        <ele>382.9</ele>
        <time>2018-02-18T14:52:30Z</time>
      </trkpt>
      <trkpt lat="47.81854" lon="5.38587">
        <ele>382.8</ele>
        <time>2018-02-18T14:52:35Z</time>
      </trkpt>
      <trkpt lat="47.81854" lon="5.38587">
        <ele>382.8</ele>
        <time>2018-02-18T14:52:40Z</time>
      </trkpt>
      <trkpt lat="47.81854" lon="5.38587">
        <ele>382.8</ele>
        <time>2018-02-18T14:52:45Z</time>
      </trkpt>
      <trkpt lat="47.81854" lon="5.38587">
        <ele>382.8</ele>
        <time>2018-02-18T14:52:50Z</time>
      </trkpt>
      <trkpt lat="47.81853" lon="5.38586">
        <ele>383.5</ele>
        <time>2018-02-18T14:52:55Z</time>
      </trkpt>
      <trkpt lat="47.8185" lon="5.38588">
        <ele>383.4</ele>
        <time>2018-02-18T14:53:00Z</time>
      </trkpt>
      <trkpt lat="47.8185" lon="5.38586">
        <ele>383.3</ele>
        <time>2018-02-18T14:53:05Z</time>
      </trkpt>
      <trkpt lat="47.81848" lon="5.38587">
        <ele>382.6</ele>
        <time>2018-02-18T14:53:10Z</time>
      </trkpt>
      <trkpt lat="47.81847" lon="5.38589">
        <ele>382.6</ele>
        <time>2018-02-18T14:53:15Z</time>
      </trkpt>
      <trkpt lat="47.81842" lon="5.38589">
        <ele>382.4</ele>
        <time>2018-02-18T14:53:20Z</time>
      </trkpt>
      <trkpt lat="47.81837" lon="5.38589">
        <ele>382.1</ele>
        <time>2018-02-18T14:53:25Z</time>
      </trkpt>
      <trkpt lat="47.81831" lon="5.38591">
        <ele>381.2</ele>
        <time>2018-02-18T14:53:30Z</time>
      </trkpt>
      <trkpt lat="47.81825" lon="5.38592">
        <ele>380.9</ele>
        <time>2018-02-18T14:53:35Z</time>
      </trkpt>
      <trkpt lat="47.81819" lon="5.38593">
        <ele>379.9</ele>
        <time>2018-02-18T14:53:40Z</time>
      </trkpt>
      <trkpt lat="47.81814" lon="5.38593">
        <ele>379.7</ele>
        <time>2018-02-18T14:53:45Z</time>
      </trkpt>
      <trkpt lat="47.81807" lon="5.38594">
        <ele>379.4</ele>
        <time>2018-02-18T14:53:50Z</time>
      </trkpt>
      <trkpt lat="47.81803" lon="5.38595">
        <ele>379.9</ele>
        <time>2018-02-18T14:53:55Z</time>
      </trkpt>
      <trkpt lat="47.81799" lon="5.38596">
        <ele>379.7</ele>
        <time>2018-02-18T14:54:00Z</time>
      </trkpt>
      <trkpt lat="47.81793" lon="5.38597">
        <ele>380.2</ele>
        <time>2018-02-18T14:54:05Z</time>
      </trkpt>
      <trkpt lat="47.81787" lon="5.38597">
        <ele>379.2</ele>
        <time>2018-02-18T14:54:10Z</time>
      </trkpt>
      <trkpt lat="47.81783" lon="5.38598">
        <ele>379.7</ele>
        <time>2018-02-18T14:54:15Z</time>
      </trkpt>
      <trkpt lat="47.81777" lon="5.38599">
        <ele>380.2</ele>
        <time>2018-02-18T14:54:20Z</time>
      </trkpt>
      <trkpt lat="47.81773" lon="5.386">
        <ele>380.7</ele>
        <time>2018-02-18T14:54:25Z</time>
      </trkpt>
      <trkpt lat="47.81771" lon="5.386">
        <ele>381.3</ele>
        <time>2018-02-18T14:54:30Z</time>
      </trkpt>
      <trkpt lat="47.81768" lon="5.38603">
        <ele>381.3</ele>
        <time>2018-02-18T14:54:35Z</time>
      </trkpt>
      <trkpt lat="47.81764" lon="5.38604">
        <ele>382.6</ele>
        <time>2018-02-18T14:54:40Z</time>
      </trkpt>
      <trkpt lat="47.81761" lon="5.38604">
        <ele>383.1</ele>
        <time>2018-02-18T14:54:45Z</time>
      </trkpt>
      <trkpt lat="47.81757" lon="5.38605">
        <ele>382.9</ele>
        <time>2018-02-18T14:54:50Z</time>
      </trkpt>
      <trkpt lat="47.81752" lon="5.38607">
        <ele>382.8</ele>
        <time>2018-02-18T14:54:55Z</time>
      </trkpt>
      <trkpt lat="47.81748" lon="5.38609">
        <ele>382.7</ele>
        <time>2018-02-18T14:55:00Z</time>
      </trkpt>
      <trkpt lat="47.81743" lon="5.38613">
        <ele>384</ele>
        <time>2018-02-18T14:55:05Z</time>
      </trkpt>
      <trkpt lat="47.81737" lon="5.38616">
        <ele>385.3</ele>
        <time>2018-02-18T14:55:10Z</time>
      </trkpt>
      <trkpt lat="47.81733" lon="5.38619">
        <ele>385.9</ele>
        <time>2018-02-18T14:55:15Z</time>
      </trkpt>
      <trkpt lat="47.81728" lon="5.38626">
        <ele>386.7</ele>
        <time>2018-02-18T14:55:20Z</time>
      </trkpt>
      <trkpt lat="47.81724" lon="5.3863">
        <ele>386.7</ele>
        <time>2018-02-18T14:55:25Z</time>
      </trkpt>
      <trkpt lat="47.8172" lon="5.38637">
        <ele>386.8</ele>
        <time>2018-02-18T14:55:30Z</time>
      </trkpt>
      <trkpt lat="47.81716" lon="5.38643">
        <ele>386.9</ele>
        <time>2018-02-18T14:55:35Z</time>
      </trkpt>
      <trkpt lat="47.81711" lon="5.38648">
        <ele>387</ele>
        <time>2018-02-18T14:55:40Z</time>
      </trkpt>
      <trkpt lat="47.81707" lon="5.38654">
        <ele>387.7</ele>
        <time>2018-02-18T14:55:45Z</time>
      </trkpt>
      <trkpt lat="47.81703" lon="5.38659">
        <ele>387.8</ele>
        <time>2018-02-18T14:55:50Z</time>
      </trkpt>
      <trkpt lat="47.81699" lon="5.38665">
        <ele>387.9</ele>
        <time>2018-02-18T14:55:55Z</time>
      </trkpt>
      <trkpt lat="47.81694" lon="5.3867">
        <ele>387.2</ele>
        <time>2018-02-18T14:56:00Z</time>
      </trkpt>
      <trkpt lat="47.8169" lon="5.38677">
        <ele>387.3</ele>
        <time>2018-02-18T14:56:05Z</time>
      </trkpt>
      <trkpt lat="47.81686" lon="5.38681">
        <ele>387.3</ele>
        <time>2018-02-18T14:56:10Z</time>
      </trkpt>
      <trkpt lat="47.81682" lon="5.38688">
        <ele>387.4</ele>
        <time>2018-02-18T14:56:15Z</time>
      </trkpt>
      <trkpt lat="47.81679" lon="5.38693">
        <ele>387.5</ele>
        <time>2018-02-18T14:56:20Z</time>
      </trkpt>
      <trkpt lat="47.81677" lon="5.38695">
        <ele>388.2</ele>
        <time>2018-02-18T14:56:25Z</time>
      </trkpt>
      <trkpt lat="47.81676" lon="5.38698">
        <ele>389</ele>
        <time>2018-02-18T14:56:30Z</time>
      </trkpt>
      <trkpt lat="47.81674" lon="5.38703">
        <ele>388.5</ele>
        <time>2018-02-18T14:56:35Z</time>
      </trkpt>
      <trkpt lat="47.8167" lon="5.38709">
        <ele>387.9</ele>
        <time>2018-02-18T14:56:40Z</time>
      </trkpt>
      <trkpt lat="47.81667" lon="5.38717">
        <ele>388.1</ele>
        <time>2018-02-18T14:56:45Z</time>
      </trkpt>
      <trkpt lat="47.81664" lon="5.38723">
        <ele>387.5</ele>
        <time>2018-02-18T14:56:50Z</time>
      </trkpt>
      <trkpt lat="47.81661" lon="5.38731">
        <ele>387.8</ele>
        <time>2018-02-18T14:56:55Z</time>
      </trkpt>
      <trkpt lat="47.81658" lon="5.38739">
        <ele>388.7</ele>
        <time>2018-02-18T14:57:00Z</time>
      </trkpt>
      <trkpt lat="47.81655" lon="5.38747">
        <ele>388.9</ele>
        <time>2018-02-18T14:57:05Z</time>
      </trkpt>
      <trkpt lat="47.81652" lon="5.38753">
        <ele>390.5</ele>
        <time>2018-02-18T14:57:10Z</time>
      </trkpt>
      <trkpt lat="47.81649" lon="5.38761">
        <ele>390.1</ele>
        <time>2018-02-18T14:57:15Z</time>
      </trkpt>
      <trkpt lat="47.81646" lon="5.38768">
        <ele>391</ele>
        <time>2018-02-18T14:57:20Z</time>
      </trkpt>
      <trkpt lat="47.81643" lon="5.38775">
        <ele>391.1</ele>
        <time>2018-02-18T14:57:25Z</time>
      </trkpt>
      <trkpt lat="47.81641" lon="5.38781">
        <ele>390.6</ele>
        <time>2018-02-18T14:57:30Z</time>
      </trkpt>
      <trkpt lat="47.81638" lon="5.3879">
        <ele>390.9</ele>
        <time>2018-02-18T14:57:35Z</time>
      </trkpt>
      <trkpt lat="47.81635" lon="5.38798">
        <ele>391.2</ele>
        <time>2018-02-18T14:57:40Z</time>
      </trkpt>
      <trkpt lat="47.81631" lon="5.38806">
        <ele>390.7</ele>
        <time>2018-02-18T14:57:45Z</time>
      </trkpt>
      <trkpt lat="47.81629" lon="5.38813">
        <ele>390.9</ele>
        <time>2018-02-18T14:57:50Z</time>
      </trkpt>
      <trkpt lat="47.81626" lon="5.38823">
        <ele>389.8</ele>
        <time>2018-02-18T14:57:55Z</time>
      </trkpt>
      <trkpt lat="47.81622" lon="5.3883">
        <ele>390.7</ele>
        <time>2018-02-18T14:58:00Z</time>
      </trkpt>
      <trkpt lat="47.81619" lon="5.38838">
        <ele>390.9</ele>
        <time>2018-02-18T14:58:05Z</time>
      </trkpt>
      <trkpt lat="47.81616" lon="5.38846">
        <ele>391.1</ele>
        <time>2018-02-18T14:58:10Z</time>
      </trkpt>
      <trkpt lat="47.81613" lon="5.38853">
        <ele>391.4</ele>
        <time>2018-02-18T14:58:15Z</time>
      </trkpt>
      <trkpt lat="47.8161" lon="5.38861">
        <ele>391.6</ele>
        <time>2018-02-18T14:58:20Z</time>
      </trkpt>
      <trkpt lat="47.81607" lon="5.38869">
        <ele>391.1</ele>
        <time>2018-02-18T14:58:25Z</time>
      </trkpt>
      <trkpt lat="47.81604" lon="5.38876">
        <ele>391.3</ele>
        <time>2018-02-18T14:58:30Z</time>
      </trkpt>
      <trkpt lat="47.81601" lon="5.38884">
        <ele>391.6</ele>
        <time>2018-02-18T14:58:35Z</time>
      </trkpt>
      <trkpt lat="47.81597" lon="5.38892">
        <ele>391.7</ele>
        <time>2018-02-18T14:58:40Z</time>
      </trkpt>
      <trkpt lat="47.81594" lon="5.389">
        <ele>392</ele>
        <time>2018-02-18T14:58:45Z</time>
      </trkpt>
      <trkpt lat="47.8159" lon="5.38907">
        <ele>391.5</ele>
        <time>2018-02-18T14:58:50Z</time>
      </trkpt>
      <trkpt lat="47.81587" lon="5.38914">
        <ele>390.9</ele>
        <time>2018-02-18T14:58:55Z</time>
      </trkpt>
      <trkpt lat="47.81583" lon="5.3892">
        <ele>391</ele>
        <time>2018-02-18T14:59:00Z</time>
      </trkpt>
      <trkpt lat="47.81579" lon="5.38928">
        <ele>390.5</ele>
        <time>2018-02-18T14:59:05Z</time>
      </trkpt>
      <trkpt lat="47.81576" lon="5.38934">
        <ele>389.9</ele>
        <time>2018-02-18T14:59:10Z</time>
      </trkpt>
      <trkpt lat="47.81571" lon="5.38942">
        <ele>390</ele>
        <time>2018-02-18T14:59:15Z</time>
      </trkpt>
      <trkpt lat="47.81566" lon="5.38948">
        <ele>390.1</ele>
        <time>2018-02-18T14:59:20Z</time>
      </trkpt>
      <trkpt lat="47.81562" lon="5.38955">
        <ele>390.3</ele>
        <time>2018-02-18T14:59:25Z</time>
      </trkpt>
      <trkpt lat="47.81558" lon="5.38962">
        <ele>389.6</ele>
        <time>2018-02-18T14:59:30Z</time>
      </trkpt>
      <trkpt lat="47.81553" lon="5.38968">
        <ele>388.3</ele>
        <time>2018-02-18T14:59:35Z</time>
      </trkpt>
      <trkpt lat="47.81549" lon="5.38976">
        <ele>389.1</ele>
        <time>2018-02-18T14:59:40Z</time>
      </trkpt>
      <trkpt lat="47.81545" lon="5.38982">
        <ele>388.6</ele>
        <time>2018-02-18T14:59:45Z</time>
      </trkpt>
      <trkpt lat="47.8154" lon="5.38988">
        <ele>388.6</ele>
        <time>2018-02-18T14:59:50Z</time>
      </trkpt>
      <trkpt lat="47.81535" lon="5.38996">
        <ele>388</ele>
        <time>2018-02-18T14:59:55Z</time>
      </trkpt>
      <trkpt lat="47.81531" lon="5.39002">
        <ele>388.1</ele>
        <time>2018-02-18T15:00:00Z</time>
      </trkpt>
      <trkpt lat="47.81526" lon="5.39008">
        <ele>387.5</ele>
        <time>2018-02-18T15:00:05Z</time>
      </trkpt>
      <trkpt lat="47.81522" lon="5.39014">
        <ele>387.6</ele>
        <time>2018-02-18T15:00:10Z</time>
      </trkpt>
      <trkpt lat="47.81517" lon="5.39021">
        <ele>386.9</ele>
        <time>2018-02-18T15:00:15Z</time>
      </trkpt>
      <trkpt lat="47.81513" lon="5.39028">
        <ele>386.3</ele>
        <time>2018-02-18T15:00:20Z</time>
      </trkpt>
      <trkpt lat="47.81508" lon="5.39036">
        <ele>386.5</ele>
        <time>2018-02-18T15:00:25Z</time>
      </trkpt>
      <trkpt lat="47.81504" lon="5.39042">
        <ele>387.3</ele>
        <time>2018-02-18T15:00:30Z</time>
      </trkpt>
      <trkpt lat="47.81499" lon="5.3905">
        <ele>387.4</ele>
        <time>2018-02-18T15:00:35Z</time>
      </trkpt>
      <trkpt lat="47.81495" lon="5.39056">
        <ele>386.8</ele>
        <time>2018-02-18T15:00:40Z</time>
      </trkpt>
      <trkpt lat="47.8149" lon="5.39064">
        <ele>386.2</ele>
        <time>2018-02-18T15:00:45Z</time>
      </trkpt>
      <trkpt lat="47.81486" lon="5.3907">
        <ele>386.3</ele>
        <time>2018-02-18T15:00:50Z</time>
      </trkpt>
      <trkpt lat="47.81482" lon="5.39076">
        <ele>386.4</ele>
        <time>2018-02-18T15:00:55Z</time>
      </trkpt>
      <trkpt lat="47.81477" lon="5.39082">
        <ele>385.8</ele>
        <time>2018-02-18T15:01:00Z</time>
      </trkpt>
      <trkpt lat="47.81473" lon="5.39089">
        <ele>385.9</ele>
        <time>2018-02-18T15:01:05Z</time>
      </trkpt>
      <trkpt lat="47.81468" lon="5.39096">
        <ele>385.3</ele>
        <time>2018-02-18T15:01:10Z</time>
      </trkpt>
      <trkpt lat="47.81464" lon="5.39103">
        <ele>385.4</ele>
        <time>2018-02-18T15:01:15Z</time>
      </trkpt>
      <trkpt lat="47.81459" lon="5.3911">
        <ele>384.8</ele>
        <time>2018-02-18T15:01:20Z</time>
      </trkpt>
      <trkpt lat="47.81454" lon="5.39116">
        <ele>384.1</ele>
        <time>2018-02-18T15:01:25Z</time>
      </trkpt>
      <trkpt lat="47.8145" lon="5.39124">
        <ele>384.3</ele>
        <time>2018-02-18T15:01:30Z</time>
      </trkpt>
      <trkpt lat="47.81445" lon="5.39132">
        <ele>383.7</ele>
        <time>2018-02-18T15:01:35Z</time>
      </trkpt>
      <trkpt lat="47.81441" lon="5.39139">
        <ele>383.9</ele>
        <time>2018-02-18T15:01:40Z</time>
      </trkpt>
      <trkpt lat="47.81437" lon="5.39147">
        <ele>385.5</ele>
        <time>2018-02-18T15:01:45Z</time>
      </trkpt>
      <trkpt lat="47.81433" lon="5.39156">
        <ele>385.7</ele>
        <time>2018-02-18T15:01:50Z</time>
      </trkpt>
      <trkpt lat="47.81429" lon="5.39163">
        <ele>385.2</ele>
        <time>2018-02-18T15:01:55Z</time>
      </trkpt>
      <trkpt lat="47.81426" lon="5.39171">
        <ele>384.7</ele>
        <time>2018-02-18T15:02:00Z</time>
      </trkpt>
      <trkpt lat="47.81422" lon="5.39179">
        <ele>385.6</ele>
        <time>2018-02-18T15:02:05Z</time>
      </trkpt>
      <trkpt lat="47.81418" lon="5.39188">
        <ele>385.8</ele>
        <time>2018-02-18T15:02:10Z</time>
      </trkpt>
      <trkpt lat="47.81414" lon="5.39194">
        <ele>385.9</ele>
        <time>2018-02-18T15:02:15Z</time>
      </trkpt>
      <trkpt lat="47.8141" lon="5.39201">
        <ele>386.1</ele>
        <time>2018-02-18T15:02:20Z</time>
      </trkpt>
      <trkpt lat="47.81405" lon="5.39209">
        <ele>386.9</ele>
        <time>2018-02-18T15:02:25Z</time>
      </trkpt>
      <trkpt lat="47.814" lon="5.39215">
        <ele>386.2</ele>
        <time>2018-02-18T15:02:30Z</time>
      </trkpt>
      <trkpt lat="47.81395" lon="5.39221">
        <ele>387</ele>
        <time>2018-02-18T15:02:35Z</time>
      </trkpt>
      <trkpt lat="47.8139" lon="5.39226">
        <ele>387</ele>
        <time>2018-02-18T15:02:40Z</time>
      </trkpt>
      <trkpt lat="47.81385" lon="5.39232">
        <ele>388.4</ele>
        <time>2018-02-18T15:02:45Z</time>
      </trkpt>
      <trkpt lat="47.81379" lon="5.39237">
        <ele>388.4</ele>
        <time>2018-02-18T15:02:50Z</time>
      </trkpt>
      <trkpt lat="47.81374" lon="5.39242">
        <ele>388.3</ele>
        <time>2018-02-18T15:02:55Z</time>
      </trkpt>
      <trkpt lat="47.81369" lon="5.39247">
        <ele>388.3</ele>
        <time>2018-02-18T15:03:00Z</time>
      </trkpt>
      <trkpt lat="47.81363" lon="5.39251">
        <ele>388.3</ele>
        <time>2018-02-18T15:03:05Z</time>
      </trkpt>
      <trkpt lat="47.81357" lon="5.39256">
        <ele>388.9</ele>
        <time>2018-02-18T15:03:10Z</time>
      </trkpt>
      <trkpt lat="47.81352" lon="5.39261">
        <ele>388.9</ele>
        <time>2018-02-18T15:03:15Z</time>
      </trkpt>
      <trkpt lat="47.81346" lon="5.39266">
        <ele>388.1</ele>
        <time>2018-02-18T15:03:20Z</time>
      </trkpt>
      <trkpt lat="47.81341" lon="5.39271">
        <ele>388</ele>
        <time>2018-02-18T15:03:25Z</time>
      </trkpt>
      <trkpt lat="47.81335" lon="5.39274">
        <ele>388.6</ele>
        <time>2018-02-18T15:03:30Z</time>
      </trkpt>
      <trkpt lat="47.81329" lon="5.39279">
        <ele>387.8</ele>
        <time>2018-02-18T15:03:35Z</time>
      </trkpt>
      <trkpt lat="47.81324" lon="5.39284">
        <ele>387.8</ele>
        <time>2018-02-18T15:03:40Z</time>
      </trkpt>
      <trkpt lat="47.81318" lon="5.39288">
        <ele>387</ele>
        <time>2018-02-18T15:03:45Z</time>
      </trkpt>
      <trkpt lat="47.81312" lon="5.39293">
        <ele>386.2</ele>
        <time>2018-02-18T15:03:50Z</time>
      </trkpt>
      <trkpt lat="47.81311" lon="5.39293">
        <ele>386.9</ele>
        <time>2018-02-18T15:03:55Z</time>
      </trkpt>
      <trkpt lat="47.8131" lon="5.39293">
        <ele>386.2</ele>
        <time>2018-02-18T15:04:00Z</time>
      </trkpt>
      <trkpt lat="47.8131" lon="5.39293">
        <ele>386.2</ele>
        <time>2018-02-18T15:04:05Z</time>
      </trkpt>
      <trkpt lat="47.8131" lon="5.39293">
        <ele>386.2</ele>
        <time>2018-02-18T15:04:10Z</time>
      </trkpt>
      <trkpt lat="47.8131" lon="5.39293">
        <ele>386.2</ele>
        <time>2018-02-18T15:04:15Z</time>
      </trkpt>
      <trkpt lat="47.81308" lon="5.39295">
        <ele>386.9</ele>
        <time>2018-02-18T15:04:20Z</time>
      </trkpt>
      <trkpt lat="47.81304" lon="5.39299">
        <ele>386.9</ele>
        <time>2018-02-18T15:04:25Z</time>
      </trkpt>
      <trkpt lat="47.813" lon="5.39304">
        <ele>386.2</ele>
        <time>2018-02-18T15:04:30Z</time>
      </trkpt>
      <trkpt lat="47.81294" lon="5.39309">
        <ele>386.1</ele>
        <time>2018-02-18T15:04:35Z</time>
      </trkpt>
      <trkpt lat="47.8129" lon="5.39314">
        <ele>385.4</ele>
        <time>2018-02-18T15:04:40Z</time>
      </trkpt>
      <trkpt lat="47.81285" lon="5.3932">
        <ele>384.8</ele>
        <time>2018-02-18T15:04:45Z</time>
      </trkpt>
      <trkpt lat="47.8128" lon="5.39326">
        <ele>384.8</ele>
        <time>2018-02-18T15:04:50Z</time>
      </trkpt>
      <trkpt lat="47.81275" lon="5.39332">
        <ele>384.2</ele>
        <time>2018-02-18T15:04:55Z</time>
      </trkpt>
      <trkpt lat="47.81271" lon="5.39337">
        <ele>384.2</ele>
        <time>2018-02-18T15:05:00Z</time>
      </trkpt>
      <trkpt lat="47.81268" lon="5.3934">
        <ele>384.2</ele>
        <time>2018-02-18T15:05:05Z</time>
      </trkpt>
      <trkpt lat="47.81264" lon="5.39346">
        <ele>383.5</ele>
        <time>2018-02-18T15:05:10Z</time>
      </trkpt>
      <trkpt lat="47.81259" lon="5.39351">
        <ele>382.8</ele>
        <time>2018-02-18T15:05:15Z</time>
      </trkpt>
      <trkpt lat="47.81254" lon="5.39357">
        <ele>382.2</ele>
        <time>2018-02-18T15:05:20Z</time>
      </trkpt>
      <trkpt lat="47.81251" lon="5.39364">
        <ele>381.6</ele>
        <time>2018-02-18T15:05:25Z</time>
      </trkpt>
      <trkpt lat="47.81248" lon="5.39373">
        <ele>381.9</ele>
        <time>2018-02-18T15:05:30Z</time>
      </trkpt>
      <trkpt lat="47.81246" lon="5.39382">
        <ele>382.3</ele>
        <time>2018-02-18T15:05:35Z</time>
      </trkpt>
      <trkpt lat="47.81243" lon="5.3939">
        <ele>382.5</ele>
        <time>2018-02-18T15:05:40Z</time>
      </trkpt>
      <trkpt lat="47.81241" lon="5.394">
        <ele>382.9</ele>
        <time>2018-02-18T15:05:45Z</time>
      </trkpt>
      <trkpt lat="47.8124" lon="5.39409">
        <ele>382.6</ele>
        <time>2018-02-18T15:05:50Z</time>
      </trkpt>
      <trkpt lat="47.81239" lon="5.39419">
        <ele>383</ele>
        <time>2018-02-18T15:05:55Z</time>
      </trkpt>
      <trkpt lat="47.81238" lon="5.39428">
        <ele>383.5</ele>
        <time>2018-02-18T15:06:00Z</time>
      </trkpt>
      <trkpt lat="47.81238" lon="5.39437">
        <ele>383.9</ele>
        <time>2018-02-18T15:06:05Z</time>
      </trkpt>
      <trkpt lat="47.81237" lon="5.39447">
        <ele>384.3</ele>
        <time>2018-02-18T15:06:10Z</time>
      </trkpt>
      <trkpt lat="47.81238" lon="5.39455">
        <ele>384.1</ele>
        <time>2018-02-18T15:06:15Z</time>
      </trkpt>
      <trkpt lat="47.81238" lon="5.39465">
        <ele>383.9</ele>
        <time>2018-02-18T15:06:20Z</time>
      </trkpt>
      <trkpt lat="47.81239" lon="5.39473">
        <ele>384.3</ele>
        <time>2018-02-18T15:06:25Z</time>
      </trkpt>
      <trkpt lat="47.81239" lon="5.39479">
        <ele>383.9</ele>
        <time>2018-02-18T15:06:30Z</time>
      </trkpt>
      <trkpt lat="47.8124" lon="5.39488">
        <ele>385.2</ele>
        <time>2018-02-18T15:06:35Z</time>
      </trkpt>
      <trkpt lat="47.81242" lon="5.39497">
        <ele>385</ele>
        <time>2018-02-18T15:06:40Z</time>
      </trkpt>
      <trkpt lat="47.81244" lon="5.39506">
        <ele>384.8</ele>
        <time>2018-02-18T15:06:45Z</time>
      </trkpt>
      <trkpt lat="47.81244" lon="5.39516">
        <ele>385.3</ele>
        <time>2018-02-18T15:06:50Z</time>
      </trkpt>
      <trkpt lat="47.81246" lon="5.39524">
        <ele>385.1</ele>
        <time>2018-02-18T15:06:55Z</time>
      </trkpt>
      <trkpt lat="47.81247" lon="5.39533">
        <ele>385.6</ele>
        <time>2018-02-18T15:07:00Z</time>
      </trkpt>
      <trkpt lat="47.81247" lon="5.39543">
        <ele>385.4</ele>
        <time>2018-02-18T15:07:05Z</time>
      </trkpt>
      <trkpt lat="47.81248" lon="5.39552">
        <ele>385.9</ele>
        <time>2018-02-18T15:07:10Z</time>
      </trkpt>
      <trkpt lat="47.81246" lon="5.39561">
        <ele>386.3</ele>
        <time>2018-02-18T15:07:15Z</time>
      </trkpt>
      <trkpt lat="47.81245" lon="5.3957">
        <ele>387.4</ele>
        <time>2018-02-18T15:07:20Z</time>
      </trkpt>
      <trkpt lat="47.81244" lon="5.3958">
        <ele>387.1</ele>
        <time>2018-02-18T15:07:25Z</time>
      </trkpt>
      <trkpt lat="47.81242" lon="5.39588">
        <ele>387.4</ele>
        <time>2018-02-18T15:07:30Z</time>
      </trkpt>
      <trkpt lat="47.81241" lon="5.39597">
        <ele>387.8</ele>
        <time>2018-02-18T15:07:35Z</time>
      </trkpt>
      <trkpt lat="47.81239" lon="5.39606">
        <ele>388.1</ele>
        <time>2018-02-18T15:07:40Z</time>
      </trkpt>
      <trkpt lat="47.81237" lon="5.39615">
        <ele>387.1</ele>
        <time>2018-02-18T15:07:45Z</time>
      </trkpt>
      <trkpt lat="47.81236" lon="5.39623">
        <ele>387.4</ele>
        <time>2018-02-18T15:07:50Z</time>
      </trkpt>
      <trkpt lat="47.81234" lon="5.39632">
        <ele>387.8</ele>
        <time>2018-02-18T15:07:55Z</time>
      </trkpt>
      <trkpt lat="47.81233" lon="5.39642">
        <ele>387.5</ele>
        <time>2018-02-18T15:08:00Z</time>
      </trkpt>
      <trkpt lat="47.81231" lon="5.39651">
        <ele>387.8</ele>
        <time>2018-02-18T15:08:05Z</time>
      </trkpt>
      <trkpt lat="47.81229" lon="5.3966">
        <ele>388.2</ele>
        <time>2018-02-18T15:08:10Z</time>
      </trkpt>
      <trkpt lat="47.81228" lon="5.39668">
        <ele>388.5</ele>
        <time>2018-02-18T15:08:15Z</time>
      </trkpt>
      <trkpt lat="47.81227" lon="5.39677">
        <ele>389.6</ele>
        <time>2018-02-18T15:08:20Z</time>
      </trkpt>
      <trkpt lat="47.81225" lon="5.39686">
        <ele>390</ele>
        <time>2018-02-18T15:08:25Z</time>
      </trkpt>
      <trkpt lat="47.81223" lon="5.39694">
        <ele>390.3</ele>
        <time>2018-02-18T15:08:30Z</time>
      </trkpt>
      <trkpt lat="47.81222" lon="5.39702">
        <ele>389.9</ele>
        <time>2018-02-18T15:08:35Z</time>
      </trkpt>
      <trkpt lat="47.81221" lon="5.39711">
        <ele>391.1</ele>
        <time>2018-02-18T15:08:40Z</time>
      </trkpt>
      <trkpt lat="47.81219" lon="5.39719">
        <ele>392</ele>
        <time>2018-02-18T15:08:45Z</time>
      </trkpt>
      <trkpt lat="47.81218" lon="5.39728">
        <ele>393.1</ele>
        <time>2018-02-18T15:08:50Z</time>
      </trkpt>
      <trkpt lat="47.81216" lon="5.39737">
        <ele>393.5</ele>
        <time>2018-02-18T15:08:55Z</time>
      </trkpt>
      <trkpt lat="47.81214" lon="5.39748">
        <ele>393.9</ele>
        <time>2018-02-18T15:09:00Z</time>
      </trkpt>
      <trkpt lat="47.81213" lon="5.39757">
        <ele>394.3</ele>
        <time>2018-02-18T15:09:05Z</time>
      </trkpt>
      <trkpt lat="47.81211" lon="5.39766">
        <ele>394.7</ele>
        <time>2018-02-18T15:09:10Z</time>
      </trkpt>
      <trkpt lat="47.81209" lon="5.39777">
        <ele>395.1</ele>
        <time>2018-02-18T15:09:15Z</time>
      </trkpt>
      <trkpt lat="47.81208" lon="5.39786">
        <ele>395.5</ele>
        <time>2018-02-18T15:09:20Z</time>
      </trkpt>
      <trkpt lat="47.81206" lon="5.39795">
        <ele>395.9</ele>
        <time>2018-02-18T15:09:25Z</time>
      </trkpt>
      <trkpt lat="47.81205" lon="5.39804">
        <ele>395.6</ele>
        <time>2018-02-18T15:09:30Z</time>
      </trkpt>
      <trkpt lat="47.81203" lon="5.39813">
        <ele>395.9</ele>
        <time>2018-02-18T15:09:35Z</time>
      </trkpt>
      <trkpt lat="47.81201" lon="5.39823">
        <ele>396.3</ele>
        <time>2018-02-18T15:09:40Z</time>
      </trkpt>
      <trkpt lat="47.81198" lon="5.3983">
        <ele>396.5</ele>
        <time>2018-02-18T15:09:45Z</time>
      </trkpt>
      <trkpt lat="47.81195" lon="5.39838">
        <ele>397.4</ele>
        <time>2018-02-18T15:09:50Z</time>
      </trkpt>
      <trkpt lat="47.81191" lon="5.39846">
        <ele>398.3</ele>
        <time>2018-02-18T15:09:55Z</time>
      </trkpt>
      <trkpt lat="47.81187" lon="5.39852">
        <ele>399.1</ele>
        <time>2018-02-18T15:10:00Z</time>
      </trkpt>
      <trkpt lat="47.81182" lon="5.39859">
        <ele>399.9</ele>
        <time>2018-02-18T15:10:05Z</time>
      </trkpt>
      <trkpt lat="47.81177" lon="5.39865">
        <ele>401.4</ele>
        <time>2018-02-18T15:10:10Z</time>
      </trkpt>
      <trkpt lat="47.81173" lon="5.39872">
        <ele>401.5</ele>
        <time>2018-02-18T15:10:15Z</time>
      </trkpt>
      <trkpt lat="47.8117" lon="5.39878">
        <ele>402.4</ele>
        <time>2018-02-18T15:10:20Z</time>
      </trkpt>
      <trkpt lat="47.81165" lon="5.39885">
        <ele>403.2</ele>
        <time>2018-02-18T15:10:25Z</time>
      </trkpt>
      <trkpt lat="47.81162" lon="5.39892">
        <ele>404.1</ele>
        <time>2018-02-18T15:10:30Z</time>
      </trkpt>
      <trkpt lat="47.81157" lon="5.39899">
        <ele>404.9</ele>
        <time>2018-02-18T15:10:35Z</time>
      </trkpt>
      <trkpt lat="47.81153" lon="5.39905">
        <ele>405</ele>
        <time>2018-02-18T15:10:40Z</time>
      </trkpt>
      <trkpt lat="47.81149" lon="5.3991">
        <ele>405.8</ele>
        <time>2018-02-18T15:10:45Z</time>
      </trkpt>
      <trkpt lat="47.81146" lon="5.39917">
        <ele>405.9</ele>
        <time>2018-02-18T15:10:50Z</time>
      </trkpt>
      <trkpt lat="47.81142" lon="5.39923">
        <ele>406</ele>
        <time>2018-02-18T15:10:55Z</time>
      </trkpt>
      <trkpt lat="47.81139" lon="5.39929">
        <ele>406.9</ele>
        <time>2018-02-18T15:11:00Z</time>
      </trkpt>
      <trkpt lat="47.81135" lon="5.39935">
        <ele>407.7</ele>
        <time>2018-02-18T15:11:05Z</time>
      </trkpt>
      <trkpt lat="47.81132" lon="5.39942">
        <ele>408.5</ele>
        <time>2018-02-18T15:11:10Z</time>
      </trkpt>
      <trkpt lat="47.81128" lon="5.39947">
        <ele>409.3</ele>
        <time>2018-02-18T15:11:15Z</time>
      </trkpt>
      <trkpt lat="47.81124" lon="5.39952">
        <ele>409.4</ele>
        <time>2018-02-18T15:11:20Z</time>
      </trkpt>
      <trkpt lat="47.81121" lon="5.39958">
        <ele>410.2</ele>
        <time>2018-02-18T15:11:25Z</time>
      </trkpt>
      <trkpt lat="47.81116" lon="5.39963">
        <ele>411.6</ele>
        <time>2018-02-18T15:11:30Z</time>
      </trkpt>
      <trkpt lat="47.81113" lon="5.39968">
        <ele>412.4</ele>
        <time>2018-02-18T15:11:35Z</time>
      </trkpt>
      <trkpt lat="47.81108" lon="5.39972">
        <ele>413.1</ele>
        <time>2018-02-18T15:11:40Z</time>
      </trkpt>
      <trkpt lat="47.81105" lon="5.39977">
        <ele>414.6</ele>
        <time>2018-02-18T15:11:45Z</time>
      </trkpt>
      <trkpt lat="47.81103" lon="5.39982">
        <ele>414.8</ele>
        <time>2018-02-18T15:11:50Z</time>
      </trkpt>
      <trkpt lat="47.81099" lon="5.39986">
        <ele>416.1</ele>
        <time>2018-02-18T15:11:55Z</time>
      </trkpt>
      <trkpt lat="47.81099" lon="5.39987">
        <ele>416.2</ele>
        <time>2018-02-18T15:12:00Z</time>
      </trkpt>
      <trkpt lat="47.81097" lon="5.39987">
        <ele>416.1</ele>
        <time>2018-02-18T15:12:05Z</time>
      </trkpt>
      <trkpt lat="47.81095" lon="5.39991">
        <ele>416.9</ele>
        <time>2018-02-18T15:12:10Z</time>
      </trkpt>
      <trkpt lat="47.81092" lon="5.39996">
        <ele>417.7</ele>
        <time>2018-02-18T15:12:15Z</time>
      </trkpt>
      <trkpt lat="47.81088" lon="5.40001">
        <ele>418.5</ele>
        <time>2018-02-18T15:12:20Z</time>
      </trkpt>
      <trkpt lat="47.81087" lon="5.40007">
        <ele>419.4</ele>
        <time>2018-02-18T15:12:25Z</time>
      </trkpt>
      <trkpt lat="47.81085" lon="5.40012">
        <ele>420.3</ele>
        <time>2018-02-18T15:12:30Z</time>
      </trkpt>
      <trkpt lat="47.81084" lon="5.40019">
        <ele>420.5</ele>
        <time>2018-02-18T15:12:35Z</time>
      </trkpt>
      <trkpt lat="47.81079" lon="5.4002">
        <ele>421.1</ele>
        <time>2018-02-18T15:12:40Z</time>
      </trkpt>
      <trkpt lat="47.81075" lon="5.40018">
        <ele>420.8</ele>
        <time>2018-02-18T15:12:45Z</time>
      </trkpt>
      <trkpt lat="47.81075" lon="5.40018">
        <ele>420.8</ele>
        <time>2018-02-18T15:12:50Z</time>
      </trkpt>
      <trkpt lat="47.81075" lon="5.40018">
        <ele>421.4</ele>
        <time>2018-02-18T15:12:55Z</time>
      </trkpt>
      <trkpt lat="47.81075" lon="5.40018">
        <ele>421.4</ele>
        <time>2018-02-18T15:13:00Z</time>
      </trkpt>
      <trkpt lat="47.81075" lon="5.40018">
        <ele>421.4</ele>
        <time>2018-02-18T15:13:05Z</time>
      </trkpt>
      <trkpt lat="47.81074" lon="5.40018">
        <ele>422.1</ele>
        <time>2018-02-18T15:13:10Z</time>
      </trkpt>
      <trkpt lat="47.81074" lon="5.40018">
        <ele>422.1</ele>
        <time>2018-02-18T15:13:15Z</time>
      </trkpt>
      <trkpt lat="47.81074" lon="5.40018">
        <ele>422.1</ele>
        <time>2018-02-18T15:13:20Z</time>
      </trkpt>
      <trkpt lat="47.81075" lon="5.40018">
        <ele>422.9</ele>
        <time>2018-02-18T15:13:25Z</time>
      </trkpt>
      <trkpt lat="47.81075" lon="5.40018">
        <ele>422.9</ele>
        <time>2018-02-18T15:13:30Z</time>
      </trkpt>
      <trkpt lat="47.81075" lon="5.40018">
        <ele>422.9</ele>
        <time>2018-02-18T15:13:35Z</time>
      </trkpt>
      <trkpt lat="47.81074" lon="5.40019">
        <ele>423.6</ele>
        <time>2018-02-18T15:13:40Z</time>
      </trkpt>
      <trkpt lat="47.81072" lon="5.4002">
        <ele>423.6</ele>
        <time>2018-02-18T15:13:45Z</time>
      </trkpt>
      <trkpt lat="47.8107" lon="5.40021">
        <ele>423.5</ele>
        <time>2018-02-18T15:13:50Z</time>
      </trkpt>
      <trkpt lat="47.81068" lon="5.40024">
        <ele>424.2</ele>
        <time>2018-02-18T15:13:55Z</time>
      </trkpt>
      <trkpt lat="47.81065" lon="5.40026">
        <ele>424.2</ele>
        <time>2018-02-18T15:14:00Z</time>
      </trkpt>
      <trkpt lat="47.81064" lon="5.40027">
        <ele>424.9</ele>
        <time>2018-02-18T15:14:05Z</time>
      </trkpt>
      <trkpt lat="47.81064" lon="5.40027">
        <ele>424.9</ele>
        <time>2018-02-18T15:14:10Z</time>
      </trkpt>
      <trkpt lat="47.81064" lon="5.40027">
        <ele>424.9</ele>
        <time>2018-02-18T15:14:15Z</time>
      </trkpt>
      <trkpt lat="47.81064" lon="5.40027">
        <ele>424.9</ele>
        <time>2018-02-18T15:14:20Z</time>
      </trkpt>
      <trkpt lat="47.81064" lon="5.40027">
        <ele>424.9</ele>
        <time>2018-02-18T15:14:25Z</time>
      </trkpt>
      <trkpt lat="47.81064" lon="5.40027">
        <ele>424.9</ele>
        <time>2018-02-18T15:14:30Z</time>
      </trkpt>
      <trkpt lat="47.81064" lon="5.40027">
        <ele>424.9</ele>
        <time>2018-02-18T15:14:35Z</time>
      </trkpt>
      <trkpt lat="47.81064" lon="5.40027">
        <ele>424.9</ele>
        <time>2018-02-18T15:14:40Z</time>
      </trkpt>
      <trkpt lat="47.81064" lon="5.40027">
        <ele>424.9</ele>
        <time>2018-02-18T15:14:45Z</time>
      </trkpt>
      <trkpt lat="47.81064" lon="5.40027">
        <ele>424.9</ele>
        <time>2018-02-18T15:14:50Z</time>
      </trkpt>
      <trkpt lat="47.81064" lon="5.40027">
        <ele>424.9</ele>
        <time>2018-02-18T15:14:55Z</time>
      </trkpt>
      <trkpt lat="47.81064" lon="5.40027">
        <ele>424.9</ele>
        <time>2018-02-18T15:15:00Z</time>
      </trkpt>
      <trkpt lat="47.81063" lon="5.40028">
        <ele>424.9</ele>
        <time>2018-02-18T15:15:05Z</time>
      </trkpt>
      <trkpt lat="47.8106" lon="5.40032">
        <ele>425</ele>
        <time>2018-02-18T15:15:10Z</time>
      </trkpt>
      <trkpt lat="47.81058" lon="5.40036">
        <ele>425</ele>
        <time>2018-02-18T15:15:15Z</time>
      </trkpt>
      <trkpt lat="47.81055" lon="5.4004">
        <ele>426.5</ele>
        <time>2018-02-18T15:15:20Z</time>
      </trkpt>
      <trkpt lat="47.81052" lon="5.40043">
        <ele>426.5</ele>
        <time>2018-02-18T15:15:25Z</time>
      </trkpt>
      <trkpt lat="47.81049" lon="5.40047">
        <ele>427.2</ele>
        <time>2018-02-18T15:15:30Z</time>
      </trkpt>
      <trkpt lat="47.81046" lon="5.40052">
        <ele>427.3</ele>
        <time>2018-02-18T15:15:35Z</time>
      </trkpt>
      <trkpt lat="47.81043" lon="5.40056">
        <ele>428</ele>
        <time>2018-02-18T15:15:40Z</time>
      </trkpt>
      <trkpt lat="47.81039" lon="5.40057">
        <ele>427.9</ele>
        <time>2018-02-18T15:15:45Z</time>
      </trkpt>
      <trkpt lat="47.81035" lon="5.40057">
        <ele>429.1</ele>
        <time>2018-02-18T15:15:50Z</time>
      </trkpt>
      <trkpt lat="47.81031" lon="5.40061">
        <ele>429.9</ele>
        <time>2018-02-18T15:15:55Z</time>
      </trkpt>
      <trkpt lat="47.81027" lon="5.40066">
        <ele>429.9</ele>
        <time>2018-02-18T15:16:00Z</time>
      </trkpt>
      <trkpt lat="47.81024" lon="5.40071">
        <ele>430.7</ele>
        <time>2018-02-18T15:16:05Z</time>
      </trkpt>
      <trkpt lat="47.81021" lon="5.40074">
        <ele>431.4</ele>
        <time>2018-02-18T15:16:10Z</time>
      </trkpt>
      <trkpt lat="47.81017" lon="5.40078">
        <ele>432.1</ele>
        <time>2018-02-18T15:16:15Z</time>
      </trkpt>
      <trkpt lat="47.81014" lon="5.40083">
        <ele>432.9</ele>
        <time>2018-02-18T15:16:20Z</time>
      </trkpt>
      <trkpt lat="47.81012" lon="5.40087">
        <ele>433.7</ele>
        <time>2018-02-18T15:16:25Z</time>
      </trkpt>
      <trkpt lat="47.81008" lon="5.4009">
        <ele>434.4</ele>
        <time>2018-02-18T15:16:30Z</time>
      </trkpt>
      <trkpt lat="47.81004" lon="5.40094">
        <ele>434.4</ele>
        <time>2018-02-18T15:16:35Z</time>
      </trkpt>
      <trkpt lat="47.81001" lon="5.40099">
        <ele>435.1</ele>
        <time>2018-02-18T15:16:40Z</time>
      </trkpt>
      <trkpt lat="47.80997" lon="5.40102">
        <ele>435.8</ele>
        <time>2018-02-18T15:16:45Z</time>
      </trkpt>
      <trkpt lat="47.80994" lon="5.40107">
        <ele>436.6</ele>
        <time>2018-02-18T15:16:50Z</time>
      </trkpt>
      <trkpt lat="47.8099" lon="5.40112">
        <ele>437.4</ele>
        <time>2018-02-18T15:16:55Z</time>
      </trkpt>
      <trkpt lat="47.80986" lon="5.40116">
        <ele>438.8</ele>
        <time>2018-02-18T15:17:00Z</time>
      </trkpt>
      <trkpt lat="47.80984" lon="5.4012">
        <ele>438.8</ele>
        <time>2018-02-18T15:17:05Z</time>
      </trkpt>
      <trkpt lat="47.8098" lon="5.40125">
        <ele>439.6</ele>
        <time>2018-02-18T15:17:10Z</time>
      </trkpt>
      <trkpt lat="47.80977" lon="5.40129">
        <ele>440.4</ele>
        <time>2018-02-18T15:17:15Z</time>
      </trkpt>
      <trkpt lat="47.80974" lon="5.40133">
        <ele>441.8</ele>
        <time>2018-02-18T15:17:20Z</time>
      </trkpt>
      <trkpt lat="47.80971" lon="5.40137">
        <ele>441.9</ele>
        <time>2018-02-18T15:17:25Z</time>
      </trkpt>
      <trkpt lat="47.80969" lon="5.40142">
        <ele>442.7</ele>
        <time>2018-02-18T15:17:30Z</time>
      </trkpt>
      <trkpt lat="47.80966" lon="5.40145">
        <ele>443.4</ele>
        <time>2018-02-18T15:17:35Z</time>
      </trkpt>
      <trkpt lat="47.80964" lon="5.40151">
        <ele>445</ele>
        <time>2018-02-18T15:17:40Z</time>
      </trkpt>
      <trkpt lat="47.80963" lon="5.40152">
        <ele>445.8</ele>
        <time>2018-02-18T15:17:45Z</time>
      </trkpt>
      <trkpt lat="47.80963" lon="5.40152">
        <ele>445.8</ele>
        <time>2018-02-18T15:17:50Z</time>
      </trkpt>
      <trkpt lat="47.80963" lon="5.40152">
        <ele>445.8</ele>
        <time>2018-02-18T15:17:55Z</time>
      </trkpt>
      <trkpt lat="47.80964" lon="5.40151">
        <ele>445</ele>
        <time>2018-02-18T15:18:00Z</time>
      </trkpt>
      <trkpt lat="47.8096" lon="5.40151">
        <ele>447.7</ele>
        <time>2018-02-18T15:18:05Z</time>
      </trkpt>
      <trkpt lat="47.80958" lon="5.40152">
        <ele>448.4</ele>
        <time>2018-02-18T15:18:10Z</time>
      </trkpt>
      <trkpt lat="47.80958" lon="5.40152">
        <ele>448.4</ele>
        <time>2018-02-18T15:18:15Z</time>
      </trkpt>
      <trkpt lat="47.80958" lon="5.40152">
        <ele>448.4</ele>
        <time>2018-02-18T15:18:20Z</time>
      </trkpt>
      <trkpt lat="47.80958" lon="5.40152">
        <ele>448.4</ele>
        <time>2018-02-18T15:18:25Z</time>
      </trkpt>
      <trkpt lat="47.80958" lon="5.40152">
        <ele>448.4</ele>
        <time>2018-02-18T15:18:30Z</time>
      </trkpt>
      <trkpt lat="47.80958" lon="5.40152">
        <ele>448.4</ele>
        <time>2018-02-18T15:18:35Z</time>
      </trkpt>
      <trkpt lat="47.80958" lon="5.40152">
        <ele>448.4</ele>
        <time>2018-02-18T15:18:40Z</time>
      </trkpt>
      <trkpt lat="47.80958" lon="5.40152">
        <ele>448.4</ele>
        <time>2018-02-18T15:18:45Z</time>
      </trkpt>
      <trkpt lat="47.80958" lon="5.40152">
        <ele>448.4</ele>
        <time>2018-02-18T15:18:50Z</time>
      </trkpt>
      <trkpt lat="47.80958" lon="5.40152">
        <ele>448.4</ele>
        <time>2018-02-18T15:18:55Z</time>
      </trkpt>
      <trkpt lat="47.80958" lon="5.40152">
        <ele>448.4</ele>
        <time>2018-02-18T15:19:00Z</time>
      </trkpt>
      <trkpt lat="47.80958" lon="5.40152">
        <ele>448.4</ele>
        <time>2018-02-18T15:19:05Z</time>
      </trkpt>
      <trkpt lat="47.80958" lon="5.40152">
        <ele>448.4</ele>
        <time>2018-02-18T15:19:10Z</time>
      </trkpt>
      <trkpt lat="47.80958" lon="5.40152">
        <ele>448.4</ele>
        <time>2018-02-18T15:19:15Z</time>
      </trkpt>
      <trkpt lat="47.80958" lon="5.40152">
        <ele>448.4</ele>
        <time>2018-02-18T15:19:20Z</time>
      </trkpt>
      <trkpt lat="47.80959" lon="5.40151">
        <ele>447.6</ele>
        <time>2018-02-18T15:19:25Z</time>
      </trkpt>
      <trkpt lat="47.80959" lon="5.40151">
        <ele>447.6</ele>
        <time>2018-02-18T15:19:30Z</time>
      </trkpt>
      <trkpt lat="47.80958" lon="5.40151">
        <ele>448.3</ele>
        <time>2018-02-18T15:19:35Z</time>
      </trkpt>
      <trkpt lat="47.80958" lon="5.40151">
        <ele>448.3</ele>
        <time>2018-02-18T15:19:40Z</time>
      </trkpt>
      <trkpt lat="47.80958" lon="5.40151">
        <ele>448.3</ele>
        <time>2018-02-18T15:19:45Z</time>
      </trkpt>
      <trkpt lat="47.80959" lon="5.40151">
        <ele>449</ele>
        <time>2018-02-18T15:19:50Z</time>
      </trkpt>
      <trkpt lat="47.80958" lon="5.40151">
        <ele>449.7</ele>
        <time>2018-02-18T15:19:55Z</time>
      </trkpt>
      <trkpt lat="47.80958" lon="5.40151">
        <ele>449.7</ele>
        <time>2018-02-18T15:20:00Z</time>
      </trkpt>
      <trkpt lat="47.80958" lon="5.40151">
        <ele>449.7</ele>
        <time>2018-02-18T15:20:05Z</time>
      </trkpt>
      <trkpt lat="47.80958" lon="5.40151">
        <ele>449.7</ele>
        <time>2018-02-18T15:20:10Z</time>
      </trkpt>
      <trkpt lat="47.80958" lon="5.40151">
        <ele>449.7</ele>
        <time>2018-02-18T15:20:15Z</time>
      </trkpt>
      <trkpt lat="47.80958" lon="5.40151">
        <ele>449.7</ele>
        <time>2018-02-18T15:20:20Z</time>
      </trkpt>
      <trkpt lat="47.80958" lon="5.40151">
        <ele>449.7</ele>
        <time>2018-02-18T15:20:25Z</time>
      </trkpt>
      <trkpt lat="47.80958" lon="5.40151">
        <ele>449.7</ele>
        <time>2018-02-18T15:20:30Z</time>
      </trkpt>
      <trkpt lat="47.80958" lon="5.40151">
        <ele>449.7</ele>
        <time>2018-02-18T15:20:35Z</time>
      </trkpt>
      <trkpt lat="47.80958" lon="5.40151">
        <ele>449.7</ele>
        <time>2018-02-18T15:20:40Z</time>
      </trkpt>
      <trkpt lat="47.80959" lon="5.40151">
        <ele>449</ele>
        <time>2018-02-18T15:20:45Z</time>
      </trkpt>
      <trkpt lat="47.80959" lon="5.40151">
        <ele>449</ele>
        <time>2018-02-18T15:20:50Z</time>
      </trkpt>
      <trkpt lat="47.80959" lon="5.40151">
        <ele>449</ele>
        <time>2018-02-18T15:20:55Z</time>
      </trkpt>
      <trkpt lat="47.80959" lon="5.40151">
        <ele>449</ele>
        <time>2018-02-18T15:21:00Z</time>
      </trkpt>
      <trkpt lat="47.80959" lon="5.40151">
        <ele>449</ele>
        <time>2018-02-18T15:21:05Z</time>
      </trkpt>
      <trkpt lat="47.80959" lon="5.40151">
        <ele>449</ele>
        <time>2018-02-18T15:21:10Z</time>
      </trkpt>
      <trkpt lat="47.80959" lon="5.40151">
        <ele>449</ele>
        <time>2018-02-18T15:21:15Z</time>
      </trkpt>
      <trkpt lat="47.80959" lon="5.40151">
        <ele>449</ele>
        <time>2018-02-18T15:21:20Z</time>
      </trkpt>
      <trkpt lat="47.80959" lon="5.40151">
        <ele>449</ele>
        <time>2018-02-18T15:21:25Z</time>
      </trkpt>
      <trkpt lat="47.80959" lon="5.40151">
        <ele>449</ele>
        <time>2018-02-18T15:21:30Z</time>
      </trkpt>
      <trkpt lat="47.80959" lon="5.40151">
        <ele>449</ele>
        <time>2018-02-18T15:21:35Z</time>
      </trkpt>
      <trkpt lat="47.80959" lon="5.40151">
        <ele>449</ele>
        <time>2018-02-18T15:21:40Z</time>
      </trkpt>
      <trkpt lat="47.80959" lon="5.40151">
        <ele>449</ele>
        <time>2018-02-18T15:21:45Z</time>
      </trkpt>
      <trkpt lat="47.80959" lon="5.40151">
        <ele>449</ele>
        <time>2018-02-18T15:21:50Z</time>
      </trkpt>
      <trkpt lat="47.80959" lon="5.40151">
        <ele>449</ele>
        <time>2018-02-18T15:21:55Z</time>
      </trkpt>
      <trkpt lat="47.80959" lon="5.40151">
        <ele>449</ele>
        <time>2018-02-18T15:22:00Z</time>
      </trkpt>
      <trkpt lat="47.80959" lon="5.40151">
        <ele>449</ele>
        <time>2018-02-18T15:22:05Z</time>
      </trkpt>
      <trkpt lat="47.80959" lon="5.40151">
        <ele>449</ele>
        <time>2018-02-18T15:22:10Z</time>
      </trkpt>
      <trkpt lat="47.80959" lon="5.40151">
        <ele>449</ele>
        <time>2018-02-18T15:22:15Z</time>
      </trkpt>
      <trkpt lat="47.80959" lon="5.40151">
        <ele>449</ele>
        <time>2018-02-18T15:22:20Z</time>
      </trkpt>
      <trkpt lat="47.80959" lon="5.40151">
        <ele>449</ele>
        <time>2018-02-18T15:22:25Z</time>
      </trkpt>
      <trkpt lat="47.80959" lon="5.40151">
        <ele>449</ele>
        <time>2018-02-18T15:22:30Z</time>
      </trkpt>
      <trkpt lat="47.80959" lon="5.40151">
        <ele>449</ele>
        <time>2018-02-18T15:22:35Z</time>
      </trkpt>
      <trkpt lat="47.80959" lon="5.40152">
        <ele>449.1</ele>
        <time>2018-02-18T15:22:40Z</time>
      </trkpt>
      <trkpt lat="47.80956" lon="5.40153">
        <ele>449</ele>
        <time>2018-02-18T15:22:45Z</time>
      </trkpt>
      <trkpt lat="47.80952" lon="5.40154">
        <ele>449.5</ele>
        <time>2018-02-18T15:22:50Z</time>
      </trkpt>
      <trkpt lat="47.80947" lon="5.40156">
        <ele>450.1</ele>
        <time>2018-02-18T15:22:55Z</time>
      </trkpt>
      <trkpt lat="47.80943" lon="5.40157">
        <ele>450.6</ele>
        <time>2018-02-18T15:23:00Z</time>
      </trkpt>
      <trkpt lat="47.80938" lon="5.40159">
        <ele>451.2</ele>
        <time>2018-02-18T15:23:05Z</time>
      </trkpt>
      <trkpt lat="47.80934" lon="5.4016">
        <ele>451</ele>
        <time>2018-02-18T15:23:10Z</time>
      </trkpt>
      <trkpt lat="47.8093" lon="5.40162">
        <ele>451.6</ele>
        <time>2018-02-18T15:23:15Z</time>
      </trkpt>
      <trkpt lat="47.80924" lon="5.40163">
        <ele>451.4</ele>
        <time>2018-02-18T15:23:20Z</time>
      </trkpt>
      <trkpt lat="47.8092" lon="5.40165">
        <ele>452</ele>
        <time>2018-02-18T15:23:25Z</time>
      </trkpt>
      <trkpt lat="47.80915" lon="5.40166">
        <ele>452.5</ele>
        <time>2018-02-18T15:23:30Z</time>
      </trkpt>
      <trkpt lat="47.8091" lon="5.40167">
        <ele>452.3</ele>
        <time>2018-02-18T15:23:35Z</time>
      </trkpt>
      <trkpt lat="47.80906" lon="5.40169">
        <ele>452.2</ele>
        <time>2018-02-18T15:23:40Z</time>
      </trkpt>
      <trkpt lat="47.80904" lon="5.40169">
        <ele>452</ele>
        <time>2018-02-18T15:23:45Z</time>
      </trkpt>
      <trkpt lat="47.80902" lon="5.4017">
        <ele>452.7</ele>
        <time>2018-02-18T15:23:50Z</time>
      </trkpt>
      <trkpt lat="47.80897" lon="5.40172">
        <ele>453.3</ele>
        <time>2018-02-18T15:23:55Z</time>
      </trkpt>
      <trkpt lat="47.80893" lon="5.40173">
        <ele>453.8</ele>
        <time>2018-02-18T15:24:00Z</time>
      </trkpt>
      <trkpt lat="47.80888" lon="5.40175">
        <ele>454.4</ele>
        <time>2018-02-18T15:24:05Z</time>
      </trkpt>
      <trkpt lat="47.80883" lon="5.40178">
        <ele>454.9</ele>
        <time>2018-02-18T15:24:10Z</time>
      </trkpt>
      <trkpt lat="47.8088" lon="5.40181">
        <ele>455.7</ele>
        <time>2018-02-18T15:24:15Z</time>
      </trkpt>
      <trkpt lat="47.80876" lon="5.40179">
        <ele>454.6</ele>
        <time>2018-02-18T15:24:20Z</time>
      </trkpt>
      <trkpt lat="47.8087" lon="5.40181">
        <ele>455.9</ele>
        <time>2018-02-18T15:24:25Z</time>
      </trkpt>
      <trkpt lat="47.80865" lon="5.40184">
        <ele>455.7</ele>
        <time>2018-02-18T15:24:30Z</time>
      </trkpt>
      <trkpt lat="47.80861" lon="5.40186">
        <ele>456.3</ele>
        <time>2018-02-18T15:24:35Z</time>
      </trkpt>
      <trkpt lat="47.80856" lon="5.40188">
        <ele>456.9</ele>
        <time>2018-02-18T15:24:40Z</time>
      </trkpt>
      <trkpt lat="47.8085" lon="5.40189">
        <ele>457.3</ele>
        <time>2018-02-18T15:24:45Z</time>
      </trkpt>
      <trkpt lat="47.80846" lon="5.40191">
        <ele>457.9</ele>
        <time>2018-02-18T15:24:50Z</time>
      </trkpt>
      <trkpt lat="47.80844" lon="5.40191">
        <ele>457.1</ele>
        <time>2018-02-18T15:24:55Z</time>
      </trkpt>
      <trkpt lat="47.80844" lon="5.40191">
        <ele>457.1</ele>
        <time>2018-02-18T15:25:00Z</time>
      </trkpt>
      <trkpt lat="47.80841" lon="5.4019">
        <ele>456.9</ele>
        <time>2018-02-18T15:25:05Z</time>
      </trkpt>
      <trkpt lat="47.80838" lon="5.40191">
        <ele>457.5</ele>
        <time>2018-02-18T15:25:10Z</time>
      </trkpt>
      <trkpt lat="47.80837" lon="5.40193">
        <ele>456.8</ele>
        <time>2018-02-18T15:25:15Z</time>
      </trkpt>
      <trkpt lat="47.80837" lon="5.40193">
        <ele>456.8</ele>
        <time>2018-02-18T15:25:20Z</time>
      </trkpt>
      <trkpt lat="47.80836" lon="5.40193">
        <ele>456.8</ele>
        <time>2018-02-18T15:25:25Z</time>
      </trkpt>
      <trkpt lat="47.80832" lon="5.40196">
        <ele>458.2</ele>
        <time>2018-02-18T15:25:30Z</time>
      </trkpt>
      <trkpt lat="47.8083" lon="5.40195">
        <ele>457.3</ele>
        <time>2018-02-18T15:25:35Z</time>
      </trkpt>
      <trkpt lat="47.80829" lon="5.40194">
        <ele>457.2</ele>
        <time>2018-02-18T15:25:40Z</time>
      </trkpt>
      <trkpt lat="47.80829" lon="5.40194">
        <ele>457.2</ele>
        <time>2018-02-18T15:25:45Z</time>
      </trkpt>
      <trkpt lat="47.80829" lon="5.40194">
        <ele>457.2</ele>
        <time>2018-02-18T15:25:50Z</time>
      </trkpt>
      <trkpt lat="47.80829" lon="5.40194">
        <ele>457.2</ele>
        <time>2018-02-18T15:25:55Z</time>
      </trkpt>
      <trkpt lat="47.80829" lon="5.40194">
        <ele>457.2</ele>
        <time>2018-02-18T15:26:00Z</time>
      </trkpt>
      <trkpt lat="47.80825" lon="5.40197">
        <ele>458.5</ele>
        <time>2018-02-18T15:26:05Z</time>
      </trkpt>
      <trkpt lat="47.80819" lon="5.40201">
        <ele>461.3</ele>
        <time>2018-02-18T15:26:10Z</time>
      </trkpt>
      <trkpt lat="47.80815" lon="5.40205">
        <ele>461.3</ele>
        <time>2018-02-18T15:26:15Z</time>
      </trkpt>
      <trkpt lat="47.80812" lon="5.40211">
        <ele>462.1</ele>
        <time>2018-02-18T15:26:20Z</time>
      </trkpt>
      <trkpt lat="47.80807" lon="5.40215">
        <ele>462</ele>
        <time>2018-02-18T15:26:25Z</time>
      </trkpt>
      <trkpt lat="47.80801" lon="5.40217">
        <ele>463.3</ele>
        <time>2018-02-18T15:26:30Z</time>
      </trkpt>
      <trkpt lat="47.80796" lon="5.40219">
        <ele>463.1</ele>
        <time>2018-02-18T15:26:35Z</time>
      </trkpt>
      <trkpt lat="47.8079" lon="5.40219">
        <ele>463.6</ele>
        <time>2018-02-18T15:26:40Z</time>
      </trkpt>
      <trkpt lat="47.80784" lon="5.40221">
        <ele>464.7</ele>
        <time>2018-02-18T15:26:45Z</time>
      </trkpt>
      <trkpt lat="47.80779" lon="5.40225">
        <ele>465.4</ele>
        <time>2018-02-18T15:26:50Z</time>
      </trkpt>
      <trkpt lat="47.80775" lon="5.4023">
        <ele>466.8</ele>
        <time>2018-02-18T15:26:55Z</time>
      </trkpt>
      <trkpt lat="47.80775" lon="5.40232">
        <ele>465.5</ele>
        <time>2018-02-18T15:27:00Z</time>
      </trkpt>
      <trkpt lat="47.80776" lon="5.40237">
        <ele>465.1</ele>
        <time>2018-02-18T15:27:05Z</time>
      </trkpt>
      <trkpt lat="47.80774" lon="5.40247">
        <ele>466.9</ele>
        <time>2018-02-18T15:27:10Z</time>
      </trkpt>
      <trkpt lat="47.80776" lon="5.40251">
        <ele>465.8</ele>
        <time>2018-02-18T15:27:15Z</time>
      </trkpt>
      <trkpt lat="47.80778" lon="5.40258">
        <ele>465.5</ele>
        <time>2018-02-18T15:27:20Z</time>
      </trkpt>
      <trkpt lat="47.80781" lon="5.40263">
        <ele>464.5</ele>
        <time>2018-02-18T15:27:25Z</time>
      </trkpt>
      <trkpt lat="47.80784" lon="5.4027">
        <ele>465.7</ele>
        <time>2018-02-18T15:27:30Z</time>
      </trkpt>
      <trkpt lat="47.80783" lon="5.40275">
        <ele>466.7</ele>
        <time>2018-02-18T15:27:35Z</time>
      </trkpt>
      <trkpt lat="47.8078" lon="5.40282">
        <ele>466.9</ele>
        <time>2018-02-18T15:27:40Z</time>
      </trkpt>
      <trkpt lat="47.80777" lon="5.40288">
        <ele>466.3</ele>
        <time>2018-02-18T15:27:45Z</time>
      </trkpt>
      <trkpt lat="47.80771" lon="5.40286">
        <ele>465.2</ele>
        <time>2018-02-18T15:27:50Z</time>
      </trkpt>
      <trkpt lat="47.80765" lon="5.40281">
        <ele>464.6</ele>
        <time>2018-02-18T15:27:55Z</time>
      </trkpt>
      <trkpt lat="47.8076" lon="5.40278">
        <ele>464.9</ele>
        <time>2018-02-18T15:28:00Z</time>
      </trkpt>
      <trkpt lat="47.80755" lon="5.40273">
        <ele>465.1</ele>
        <time>2018-02-18T15:28:05Z</time>
      </trkpt>
      <trkpt lat="47.8075" lon="5.40269">
        <ele>466.1</ele>
        <time>2018-02-18T15:28:10Z</time>
      </trkpt>
      <trkpt lat="47.80747" lon="5.40263">
        <ele>467</ele>
        <time>2018-02-18T15:28:15Z</time>
      </trkpt>
      <trkpt lat="47.80744" lon="5.4026">
        <ele>467.4</ele>
        <time>2018-02-18T15:28:20Z</time>
      </trkpt>
      <trkpt lat="47.80737" lon="5.40258">
        <ele>469.8</ele>
        <time>2018-02-18T15:28:25Z</time>
      </trkpt>
      <trkpt lat="47.80733" lon="5.40253">
        <ele>470.1</ele>
        <time>2018-02-18T15:28:30Z</time>
      </trkpt>
      <trkpt lat="47.80728" lon="5.4025">
        <ele>471.1</ele>
        <time>2018-02-18T15:28:35Z</time>
      </trkpt>
      <trkpt lat="47.80723" lon="5.40247">
        <ele>470.6</ele>
        <time>2018-02-18T15:28:40Z</time>
      </trkpt>
      <trkpt lat="47.80718" lon="5.40242">
        <ele>470.2</ele>
        <time>2018-02-18T15:28:45Z</time>
      </trkpt>
      <trkpt lat="47.80714" lon="5.40239">
        <ele>469.1</ele>
        <time>2018-02-18T15:28:50Z</time>
      </trkpt>
      <trkpt lat="47.80709" lon="5.40237">
        <ele>468.7</ele>
        <time>2018-02-18T15:28:55Z</time>
      </trkpt>
      <trkpt lat="47.80708" lon="5.40237">
        <ele>469.4</ele>
        <time>2018-02-18T15:29:00Z</time>
      </trkpt>
      <trkpt lat="47.80706" lon="5.40238">
        <ele>470</ele>
        <time>2018-02-18T15:29:05Z</time>
      </trkpt>
      <trkpt lat="47.80705" lon="5.40244">
        <ele>468.8</ele>
        <time>2018-02-18T15:29:10Z</time>
      </trkpt>
      <trkpt lat="47.80701" lon="5.40252">
        <ele>470.5</ele>
        <time>2018-02-18T15:29:15Z</time>
      </trkpt>
      <trkpt lat="47.80696" lon="5.40261">
        <ele>470.7</ele>
        <time>2018-02-18T15:29:20Z</time>
      </trkpt>
      <trkpt lat="47.80692" lon="5.40269">
        <ele>470.8</ele>
        <time>2018-02-18T15:29:25Z</time>
      </trkpt>
      <trkpt lat="47.80689" lon="5.40278">
        <ele>470.4</ele>
        <time>2018-02-18T15:29:30Z</time>
      </trkpt>
      <trkpt lat="47.80685" lon="5.40286">
        <ele>471.3</ele>
        <time>2018-02-18T15:29:35Z</time>
      </trkpt>
      <trkpt lat="47.80683" lon="5.40292">
        <ele>473</ele>
        <time>2018-02-18T15:29:40Z</time>
      </trkpt>
      <trkpt lat="47.8068" lon="5.403">
        <ele>473.2</ele>
        <time>2018-02-18T15:29:45Z</time>
      </trkpt>
      <trkpt lat="47.80678" lon="5.40305">
        <ele>474</ele>
        <time>2018-02-18T15:29:50Z</time>
      </trkpt>
      <trkpt lat="47.80675" lon="5.40311">
        <ele>475.6</ele>
        <time>2018-02-18T15:29:55Z</time>
      </trkpt>
      <trkpt lat="47.80674" lon="5.40318">
        <ele>474.5</ele>
        <time>2018-02-18T15:30:00Z</time>
      </trkpt>
      <trkpt lat="47.80672" lon="5.40325">
        <ele>476.2</ele>
        <time>2018-02-18T15:30:05Z</time>
      </trkpt>
      <trkpt lat="47.80671" lon="5.40333">
        <ele>475.8</ele>
        <time>2018-02-18T15:30:10Z</time>
      </trkpt>
      <trkpt lat="47.80669" lon="5.40341">
        <ele>476.8</ele>
        <time>2018-02-18T15:30:15Z</time>
      </trkpt>
      <trkpt lat="47.80666" lon="5.4035">
        <ele>477.8</ele>
        <time>2018-02-18T15:30:20Z</time>
      </trkpt>
      <trkpt lat="47.80666" lon="5.40357">
        <ele>476.7</ele>
        <time>2018-02-18T15:30:25Z</time>
      </trkpt>
      <trkpt lat="47.80666" lon="5.40354">
        <ele>475.9</ele>
        <time>2018-02-18T15:30:30Z</time>
      </trkpt>
      <trkpt lat="47.80666" lon="5.4036">
        <ele>476.1</ele>
        <time>2018-02-18T15:30:35Z</time>
      </trkpt>
      <trkpt lat="47.80664" lon="5.40369">
        <ele>476.5</ele>
        <time>2018-02-18T15:30:40Z</time>
      </trkpt>
      <trkpt lat="47.80661" lon="5.40378">
        <ele>477.5</ele>
        <time>2018-02-18T15:30:45Z</time>
      </trkpt>
      <trkpt lat="47.8066" lon="5.40387">
        <ele>478.6</ele>
        <time>2018-02-18T15:30:50Z</time>
      </trkpt>
      <trkpt lat="47.80655" lon="5.40397">
        <ele>478.2</ele>
        <time>2018-02-18T15:30:55Z</time>
      </trkpt>
      <trkpt lat="47.80651" lon="5.40406">
        <ele>477.7</ele>
        <time>2018-02-18T15:31:00Z</time>
      </trkpt>
      <trkpt lat="47.80647" lon="5.40414">
        <ele>477.2</ele>
        <time>2018-02-18T15:31:05Z</time>
      </trkpt>
      <trkpt lat="47.80645" lon="5.4042">
        <ele>476.7</ele>
        <time>2018-02-18T15:31:10Z</time>
      </trkpt>
      <trkpt lat="47.80641" lon="5.40428">
        <ele>477.6</ele>
        <time>2018-02-18T15:31:15Z</time>
      </trkpt>
      <trkpt lat="47.80639" lon="5.40433">
        <ele>477</ele>
        <time>2018-02-18T15:31:20Z</time>
      </trkpt>
      <trkpt lat="47.80639" lon="5.40439">
        <ele>477.3</ele>
        <time>2018-02-18T15:31:25Z</time>
      </trkpt>
      <trkpt lat="47.80637" lon="5.40441">
        <ele>475.2</ele>
        <time>2018-02-18T15:31:30Z</time>
      </trkpt>
      <trkpt lat="47.80634" lon="5.40446">
        <ele>476</ele>
        <time>2018-02-18T15:31:35Z</time>
      </trkpt>
      <trkpt lat="47.8063" lon="5.4045">
        <ele>475.3</ele>
        <time>2018-02-18T15:31:40Z</time>
      </trkpt>
      <trkpt lat="47.80626" lon="5.40455">
        <ele>475.3</ele>
        <time>2018-02-18T15:31:45Z</time>
      </trkpt>
      <trkpt lat="47.80623" lon="5.40459">
        <ele>475.3</ele>
        <time>2018-02-18T15:31:50Z</time>
      </trkpt>
      <trkpt lat="47.8062" lon="5.40462">
        <ele>476.1</ele>
        <time>2018-02-18T15:31:55Z</time>
      </trkpt>
      <trkpt lat="47.8062" lon="5.40462">
        <ele>476.1</ele>
        <time>2018-02-18T15:32:00Z</time>
      </trkpt>
      <trkpt lat="47.80623" lon="5.4046">
        <ele>474.7</ele>
        <time>2018-02-18T15:32:05Z</time>
      </trkpt>
      <trkpt lat="47.80627" lon="5.40456">
        <ele>474</ele>
        <time>2018-02-18T15:32:10Z</time>
      </trkpt>
      <trkpt lat="47.80631" lon="5.40453">
        <ele>473.3</ele>
        <time>2018-02-18T15:32:15Z</time>
      </trkpt>
      <trkpt lat="47.80631" lon="5.40452">
        <ele>471.8</ele>
        <time>2018-02-18T15:32:20Z</time>
      </trkpt>
      <trkpt lat="47.80632" lon="5.40449">
        <ele>471</ele>
        <time>2018-02-18T15:32:25Z</time>
      </trkpt>
      <trkpt lat="47.80633" lon="5.40445">
        <ele>469.5</ele>
        <time>2018-02-18T15:32:30Z</time>
      </trkpt>
      <trkpt lat="47.80635" lon="5.40439">
        <ele>468.6</ele>
        <time>2018-02-18T15:32:35Z</time>
      </trkpt>
      <trkpt lat="47.80636" lon="5.40431">
        <ele>469</ele>
        <time>2018-02-18T15:32:40Z</time>
      </trkpt>
      <trkpt lat="47.80639" lon="5.40424">
        <ele>469.5</ele>
        <time>2018-02-18T15:32:45Z</time>
      </trkpt>
      <trkpt lat="47.80639" lon="5.40424">
        <ele>469.5</ele>
        <time>2018-02-18T15:32:50Z</time>
      </trkpt>
      <trkpt lat="47.80642" lon="5.40422">
        <ele>470.2</ele>
        <time>2018-02-18T15:32:55Z</time>
      </trkpt>
      <trkpt lat="47.80646" lon="5.40418">
        <ele>471.6</ele>
        <time>2018-02-18T15:33:00Z</time>
      </trkpt>
      <trkpt lat="47.80649" lon="5.40418">
        <ele>472.5</ele>
        <time>2018-02-18T15:33:05Z</time>
      </trkpt>
      <trkpt lat="47.80648" lon="5.40417">
        <ele>471</ele>
        <time>2018-02-18T15:33:10Z</time>
      </trkpt>
      <trkpt lat="47.80648" lon="5.40417">
        <ele>471</ele>
        <time>2018-02-18T15:33:15Z</time>
      </trkpt>
      <trkpt lat="47.80647" lon="5.40417">
        <ele>470.2</ele>
        <time>2018-02-18T15:33:20Z</time>
      </trkpt>
      <trkpt lat="47.80647" lon="5.40417">
        <ele>470.2</ele>
        <time>2018-02-18T15:33:25Z</time>
      </trkpt>
      <trkpt lat="47.80647" lon="5.40417">
        <ele>470.2</ele>
        <time>2018-02-18T15:33:30Z</time>
      </trkpt>
      <trkpt lat="47.80647" lon="5.40417">
        <ele>470.2</ele>
        <time>2018-02-18T15:33:35Z</time>
      </trkpt>
      <trkpt lat="47.80647" lon="5.40417">
        <ele>471.7</ele>
        <time>2018-02-18T15:33:40Z</time>
      </trkpt>
      <trkpt lat="47.80647" lon="5.40416">
        <ele>473</ele>
        <time>2018-02-18T15:33:45Z</time>
      </trkpt>
      <trkpt lat="47.80647" lon="5.40411">
        <ele>474.9</ele>
        <time>2018-02-18T15:33:50Z</time>
      </trkpt>
      <trkpt lat="47.80646" lon="5.4041">
        <ele>475.5</ele>
        <time>2018-02-18T15:33:55Z</time>
      </trkpt>
      <trkpt lat="47.80646" lon="5.40407">
        <ele>476</ele>
        <time>2018-02-18T15:34:00Z</time>
      </trkpt>
      <trkpt lat="47.80646" lon="5.40407">
        <ele>476</ele>
        <time>2018-02-18T15:34:05Z</time>
      </trkpt>
      <trkpt lat="47.80645" lon="5.40403">
        <ele>476.5</ele>
        <time>2018-02-18T15:34:10Z</time>
      </trkpt>
      <trkpt lat="47.80646" lon="5.40396">
        <ele>478.4</ele>
        <time>2018-02-18T15:34:15Z</time>
      </trkpt>
      <trkpt lat="47.80647" lon="5.4039">
        <ele>479.5</ele>
        <time>2018-02-18T15:34:20Z</time>
      </trkpt>
      <trkpt lat="47.80648" lon="5.40384">
        <ele>480</ele>
        <time>2018-02-18T15:34:25Z</time>
      </trkpt>
      <trkpt lat="47.8065" lon="5.40379">
        <ele>479.8</ele>
        <time>2018-02-18T15:34:30Z</time>
      </trkpt>
      <trkpt lat="47.80652" lon="5.40375">
        <ele>477.6</ele>
        <time>2018-02-18T15:34:35Z</time>
      </trkpt>
      <trkpt lat="47.80653" lon="5.4037">
        <ele>476.7</ele>
        <time>2018-02-18T15:34:40Z</time>
      </trkpt>
      <trkpt lat="47.80653" lon="5.40366">
        <ele>475.1</ele>
        <time>2018-02-18T15:34:45Z</time>
      </trkpt>
      <trkpt lat="47.80654" lon="5.40361">
        <ele>474.2</ele>
        <time>2018-02-18T15:34:50Z</time>
      </trkpt>
      <trkpt lat="47.80657" lon="5.40355">
        <ele>474</ele>
        <time>2018-02-18T15:34:55Z</time>
      </trkpt>
      <trkpt lat="47.80658" lon="5.40352">
        <ele>474</ele>
        <time>2018-02-18T15:35:00Z</time>
      </trkpt>
      <trkpt lat="47.80661" lon="5.40348">
        <ele>475.3</ele>
        <time>2018-02-18T15:35:05Z</time>
      </trkpt>
      <trkpt lat="47.80663" lon="5.40342">
        <ele>475.8</ele>
        <time>2018-02-18T15:35:10Z</time>
      </trkpt>
      <trkpt lat="47.80667" lon="5.40333">
        <ele>475.6</ele>
        <time>2018-02-18T15:35:15Z</time>
      </trkpt>
      <trkpt lat="47.8067" lon="5.40327">
        <ele>475.4</ele>
        <time>2018-02-18T15:35:20Z</time>
      </trkpt>
      <trkpt lat="47.80674" lon="5.4032">
        <ele>475.3</ele>
        <time>2018-02-18T15:35:25Z</time>
      </trkpt>
      <trkpt lat="47.80676" lon="5.40312">
        <ele>475</ele>
        <time>2018-02-18T15:35:30Z</time>
      </trkpt>
      <trkpt lat="47.80676" lon="5.40307">
        <ele>473.4</ele>
        <time>2018-02-18T15:35:35Z</time>
      </trkpt>
      <trkpt lat="47.80676" lon="5.40303">
        <ele>472.4</ele>
        <time>2018-02-18T15:35:40Z</time>
      </trkpt>
      <trkpt lat="47.80677" lon="5.40299">
        <ele>472.3</ele>
        <time>2018-02-18T15:35:45Z</time>
      </trkpt>
      <trkpt lat="47.80679" lon="5.40291">
        <ele>473.4</ele>
        <time>2018-02-18T15:35:50Z</time>
      </trkpt>
      <trkpt lat="47.80682" lon="5.40284">
        <ele>473.2</ele>
        <time>2018-02-18T15:35:55Z</time>
      </trkpt>
      <trkpt lat="47.80685" lon="5.40276">
        <ele>472.9</ele>
        <time>2018-02-18T15:36:00Z</time>
      </trkpt>
      <trkpt lat="47.80687" lon="5.40267">
        <ele>471.9</ele>
        <time>2018-02-18T15:36:05Z</time>
      </trkpt>
      <trkpt lat="47.80691" lon="5.40261">
        <ele>472.5</ele>
        <time>2018-02-18T15:36:10Z</time>
      </trkpt>
      <trkpt lat="47.80694" lon="5.40254">
        <ele>471.6</ele>
        <time>2018-02-18T15:36:15Z</time>
      </trkpt>
      <trkpt lat="47.80697" lon="5.40248">
        <ele>470</ele>
        <time>2018-02-18T15:36:20Z</time>
      </trkpt>
      <trkpt lat="47.80695" lon="5.40248">
        <ele>469.2</ele>
        <time>2018-02-18T15:36:25Z</time>
      </trkpt>
      <trkpt lat="47.80693" lon="5.40252">
        <ele>470</ele>
        <time>2018-02-18T15:36:30Z</time>
      </trkpt>
      <trkpt lat="47.80691" lon="5.40256">
        <ele>469.4</ele>
        <time>2018-02-18T15:36:35Z</time>
      </trkpt>
      <trkpt lat="47.80686" lon="5.4026">
        <ele>470.1</ele>
        <time>2018-02-18T15:36:40Z</time>
      </trkpt>
      <trkpt lat="47.80681" lon="5.40262">
        <ele>469.9</ele>
        <time>2018-02-18T15:36:45Z</time>
      </trkpt>
      <trkpt lat="47.80678" lon="5.40266">
        <ele>470.7</ele>
        <time>2018-02-18T15:36:50Z</time>
      </trkpt>
      <trkpt lat="47.80671" lon="5.40269">
        <ele>471.9</ele>
        <time>2018-02-18T15:36:55Z</time>
      </trkpt>
      <trkpt lat="47.80666" lon="5.40271">
        <ele>471.7</ele>
        <time>2018-02-18T15:37:00Z</time>
      </trkpt>
      <trkpt lat="47.80661" lon="5.40274">
        <ele>472.3</ele>
        <time>2018-02-18T15:37:05Z</time>
      </trkpt>
      <trkpt lat="47.80657" lon="5.40276">
        <ele>471.5</ele>
        <time>2018-02-18T15:37:10Z</time>
      </trkpt>
      <trkpt lat="47.80652" lon="5.40279">
        <ele>472.1</ele>
        <time>2018-02-18T15:37:15Z</time>
      </trkpt>
      <trkpt lat="47.80648" lon="5.40282">
        <ele>472</ele>
        <time>2018-02-18T15:37:20Z</time>
      </trkpt>
      <trkpt lat="47.80644" lon="5.40284">
        <ele>471.2</ele>
        <time>2018-02-18T15:37:25Z</time>
      </trkpt>
      <trkpt lat="47.80639" lon="5.40288">
        <ele>470.4</ele>
        <time>2018-02-18T15:37:30Z</time>
      </trkpt>
      <trkpt lat="47.80634" lon="5.40292">
        <ele>471.1</ele>
        <time>2018-02-18T15:37:35Z</time>
      </trkpt>
      <trkpt lat="47.80632" lon="5.40295">
        <ele>471.1</ele>
        <time>2018-02-18T15:37:40Z</time>
      </trkpt>
      <trkpt lat="47.80627" lon="5.40292">
        <ele>471.4</ele>
        <time>2018-02-18T15:37:45Z</time>
      </trkpt>
      <trkpt lat="47.80623" lon="5.40294">
        <ele>470.6</ele>
        <time>2018-02-18T15:37:50Z</time>
      </trkpt>
      <trkpt lat="47.80618" lon="5.40296">
        <ele>469.8</ele>
        <time>2018-02-18T15:37:55Z</time>
      </trkpt>
      <trkpt lat="47.80614" lon="5.403">
        <ele>469</ele>
        <time>2018-02-18T15:38:00Z</time>
      </trkpt>
      <trkpt lat="47.80609" lon="5.40305">
        <ele>469.7</ele>
        <time>2018-02-18T15:38:05Z</time>
      </trkpt>
      <trkpt lat="47.80604" lon="5.40308">
        <ele>469</ele>
        <time>2018-02-18T15:38:10Z</time>
      </trkpt>
      <trkpt lat="47.80599" lon="5.4031">
        <ele>468.8</ele>
        <time>2018-02-18T15:38:15Z</time>
      </trkpt>
      <trkpt lat="47.80594" lon="5.40314">
        <ele>468.7</ele>
        <time>2018-02-18T15:38:20Z</time>
      </trkpt>
      <trkpt lat="47.8059" lon="5.40319">
        <ele>468.7</ele>
        <time>2018-02-18T15:38:25Z</time>
      </trkpt>
      <trkpt lat="47.80586" lon="5.40325">
        <ele>468.8</ele>
        <time>2018-02-18T15:38:30Z</time>
      </trkpt>
      <trkpt lat="47.80581" lon="5.4033">
        <ele>469.5</ele>
        <time>2018-02-18T15:38:35Z</time>
      </trkpt>
      <trkpt lat="47.80576" lon="5.40333">
        <ele>469.4</ele>
        <time>2018-02-18T15:38:40Z</time>
      </trkpt>
      <trkpt lat="47.80571" lon="5.40334">
        <ele>469.2</ele>
        <time>2018-02-18T15:38:45Z</time>
      </trkpt>
      <trkpt lat="47.80569" lon="5.40335">
        <ele>469.2</ele>
        <time>2018-02-18T15:38:50Z</time>
      </trkpt>
      <trkpt lat="47.80566" lon="5.40338">
        <ele>469.8</ele>
        <time>2018-02-18T15:38:55Z</time>
      </trkpt>
      <trkpt lat="47.80563" lon="5.40343">
        <ele>470</ele>
        <time>2018-02-18T15:39:00Z</time>
      </trkpt>
      <trkpt lat="47.8056" lon="5.40348">
        <ele>470.1</ele>
        <time>2018-02-18T15:39:05Z</time>
      </trkpt>
      <trkpt lat="47.80559" lon="5.40354">
        <ele>470.3</ele>
        <time>2018-02-18T15:39:10Z</time>
      </trkpt>
      <trkpt lat="47.80557" lon="5.40361">
        <ele>471.2</ele>
        <time>2018-02-18T15:39:15Z</time>
      </trkpt>
      <trkpt lat="47.80554" lon="5.40369">
        <ele>470.8</ele>
        <time>2018-02-18T15:39:20Z</time>
      </trkpt>
      <trkpt lat="47.80555" lon="5.40375">
        <ele>470.4</ele>
        <time>2018-02-18T15:39:25Z</time>
      </trkpt>
      <trkpt lat="47.80556" lon="5.40383">
        <ele>470.9</ele>
        <time>2018-02-18T15:39:30Z</time>
      </trkpt>
      <trkpt lat="47.80557" lon="5.40392">
        <ele>470.7</ele>
        <time>2018-02-18T15:39:35Z</time>
      </trkpt>
      <trkpt lat="47.80559" lon="5.40399">
        <ele>470.4</ele>
        <time>2018-02-18T15:39:40Z</time>
      </trkpt>
      <trkpt lat="47.8056" lon="5.40407">
        <ele>470.8</ele>
        <time>2018-02-18T15:39:45Z</time>
      </trkpt>
      <trkpt lat="47.80562" lon="5.40415">
        <ele>471.4</ele>
        <time>2018-02-18T15:39:50Z</time>
      </trkpt>
      <trkpt lat="47.80563" lon="5.40423">
        <ele>471.1</ele>
        <time>2018-02-18T15:39:55Z</time>
      </trkpt>
      <trkpt lat="47.80564" lon="5.4043">
        <ele>471.5</ele>
        <time>2018-02-18T15:40:00Z</time>
      </trkpt>
      <trkpt lat="47.80566" lon="5.40437">
        <ele>471.3</ele>
        <time>2018-02-18T15:40:05Z</time>
      </trkpt>
      <trkpt lat="47.80567" lon="5.40444">
        <ele>472.4</ele>
        <time>2018-02-18T15:40:10Z</time>
      </trkpt>
      <trkpt lat="47.80569" lon="5.4045">
        <ele>472.1</ele>
        <time>2018-02-18T15:40:15Z</time>
      </trkpt>
      <trkpt lat="47.80569" lon="5.40456">
        <ele>471.7</ele>
        <time>2018-02-18T15:40:20Z</time>
      </trkpt>
      <trkpt lat="47.80574" lon="5.40458">
        <ele>472</ele>
        <time>2018-02-18T15:40:25Z</time>
      </trkpt>
      <trkpt lat="47.80578" lon="5.40462">
        <ele>472.4</ele>
        <time>2018-02-18T15:40:30Z</time>
      </trkpt>
      <trkpt lat="47.80578" lon="5.40462">
        <ele>472.4</ele>
        <time>2018-02-18T15:40:35Z</time>
      </trkpt>
      <trkpt lat="47.80574" lon="5.40466">
        <ele>471.7</ele>
        <time>2018-02-18T15:40:40Z</time>
      </trkpt>
      <trkpt lat="47.80569" lon="5.40469">
        <ele>470.9</ele>
        <time>2018-02-18T15:40:45Z</time>
      </trkpt>
      <trkpt lat="47.80563" lon="5.40467">
        <ele>471.2</ele>
        <time>2018-02-18T15:40:50Z</time>
      </trkpt>
      <trkpt lat="47.80559" lon="5.40464">
        <ele>470.1</ele>
        <time>2018-02-18T15:40:55Z</time>
      </trkpt>
      <trkpt lat="47.80555" lon="5.40464">
        <ele>469.9</ele>
        <time>2018-02-18T15:41:00Z</time>
      </trkpt>
      <trkpt lat="47.8055" lon="5.40466">
        <ele>469.8</ele>
        <time>2018-02-18T15:41:05Z</time>
      </trkpt>
      <trkpt lat="47.80548" lon="5.4047">
        <ele>470.6</ele>
        <time>2018-02-18T15:41:10Z</time>
      </trkpt>
      <trkpt lat="47.80545" lon="5.40478">
        <ele>470.8</ele>
        <time>2018-02-18T15:41:15Z</time>
      </trkpt>
      <trkpt lat="47.80542" lon="5.40481">
        <ele>470.8</ele>
        <time>2018-02-18T15:41:20Z</time>
      </trkpt>
      <trkpt lat="47.8054" lon="5.40486">
        <ele>471.7</ele>
        <time>2018-02-18T15:41:25Z</time>
      </trkpt>
      <trkpt lat="47.80537" lon="5.40489">
        <ele>470.9</ele>
        <time>2018-02-18T15:41:30Z</time>
      </trkpt>
      <trkpt lat="47.80531" lon="5.40487">
        <ele>469.8</ele>
        <time>2018-02-18T15:41:35Z</time>
      </trkpt>
      <trkpt lat="47.80526" lon="5.40489">
        <ele>469.7</ele>
        <time>2018-02-18T15:41:40Z</time>
      </trkpt>
      <trkpt lat="47.80521" lon="5.40493">
        <ele>470.3</ele>
        <time>2018-02-18T15:41:45Z</time>
      </trkpt>
      <trkpt lat="47.80521" lon="5.40495">
        <ele>470.4</ele>
        <time>2018-02-18T15:41:50Z</time>
      </trkpt>
      <trkpt lat="47.80521" lon="5.40497">
        <ele>469.8</ele>
        <time>2018-02-18T15:41:55Z</time>
      </trkpt>
      <trkpt lat="47.80521" lon="5.40497">
        <ele>469.8</ele>
        <time>2018-02-18T15:42:00Z</time>
      </trkpt>
      <trkpt lat="47.80521" lon="5.40497">
        <ele>469.8</ele>
        <time>2018-02-18T15:42:05Z</time>
      </trkpt>
      <trkpt lat="47.80521" lon="5.40497">
        <ele>469.8</ele>
        <time>2018-02-18T15:42:10Z</time>
      </trkpt>
      <trkpt lat="47.80521" lon="5.40497">
        <ele>469.8</ele>
        <time>2018-02-18T15:42:15Z</time>
      </trkpt>
      <trkpt lat="47.80521" lon="5.40497">
        <ele>469.8</ele>
        <time>2018-02-18T15:42:20Z</time>
      </trkpt>
      <trkpt lat="47.80521" lon="5.40497">
        <ele>469.8</ele>
        <time>2018-02-18T15:42:25Z</time>
      </trkpt>
      <trkpt lat="47.80522" lon="5.40495">
        <ele>471.2</ele>
        <time>2018-02-18T15:42:30Z</time>
      </trkpt>
      <trkpt lat="47.80521" lon="5.40495">
        <ele>471.8</ele>
        <time>2018-02-18T15:42:35Z</time>
      </trkpt>
      <trkpt lat="47.80521" lon="5.40495">
        <ele>471.8</ele>
        <time>2018-02-18T15:42:40Z</time>
      </trkpt>
      <trkpt lat="47.80521" lon="5.40495">
        <ele>471.8</ele>
        <time>2018-02-18T15:42:45Z</time>
      </trkpt>
      <trkpt lat="47.80521" lon="5.40495">
        <ele>471.8</ele>
        <time>2018-02-18T15:42:50Z</time>
      </trkpt>
      <trkpt lat="47.80521" lon="5.40495">
        <ele>471.8</ele>
        <time>2018-02-18T15:42:55Z</time>
      </trkpt>
      <trkpt lat="47.80521" lon="5.40495">
        <ele>471.8</ele>
        <time>2018-02-18T15:43:00Z</time>
      </trkpt>
      <trkpt lat="47.80521" lon="5.40495">
        <ele>471.8</ele>
        <time>2018-02-18T15:43:05Z</time>
      </trkpt>
      <trkpt lat="47.80521" lon="5.40494">
        <ele>471.8</ele>
        <time>2018-02-18T15:43:10Z</time>
      </trkpt>
      <trkpt lat="47.80521" lon="5.4049">
        <ele>469.4</ele>
        <time>2018-02-18T15:43:15Z</time>
      </trkpt>
      <trkpt lat="47.80519" lon="5.40484">
        <ele>468.4</ele>
        <time>2018-02-18T15:43:20Z</time>
      </trkpt>
      <trkpt lat="47.80519" lon="5.40484">
        <ele>469</ele>
        <time>2018-02-18T15:43:25Z</time>
      </trkpt>
      <trkpt lat="47.80514" lon="5.40481">
        <ele>468.6</ele>
        <time>2018-02-18T15:43:30Z</time>
      </trkpt>
      <trkpt lat="47.80511" lon="5.40476">
        <ele>468.2</ele>
        <time>2018-02-18T15:43:35Z</time>
      </trkpt>
      <trkpt lat="47.80506" lon="5.40471">
        <ele>467.8</ele>
        <time>2018-02-18T15:43:40Z</time>
      </trkpt>
      <trkpt lat="47.80501" lon="5.4047">
        <ele>468.1</ele>
        <time>2018-02-18T15:43:45Z</time>
      </trkpt>
      <trkpt lat="47.80494" lon="5.40469">
        <ele>467.7</ele>
        <time>2018-02-18T15:43:50Z</time>
      </trkpt>
      <trkpt lat="47.80489" lon="5.40467">
        <ele>468</ele>
        <time>2018-02-18T15:43:55Z</time>
      </trkpt>
      <trkpt lat="47.80483" lon="5.40463">
        <ele>468.3</ele>
        <time>2018-02-18T15:44:00Z</time>
      </trkpt>
      <trkpt lat="47.80478" lon="5.40459">
        <ele>467.8</ele>
        <time>2018-02-18T15:44:05Z</time>
      </trkpt>
      <trkpt lat="47.80472" lon="5.40456">
        <ele>467.3</ele>
        <time>2018-02-18T15:44:10Z</time>
      </trkpt>
      <trkpt lat="47.80467" lon="5.40451">
        <ele>466.8</ele>
        <time>2018-02-18T15:44:15Z</time>
      </trkpt>
      <trkpt lat="47.80461" lon="5.4045">
        <ele>467.2</ele>
        <time>2018-02-18T15:44:20Z</time>
      </trkpt>
      <trkpt lat="47.80456" lon="5.40447">
        <ele>467.5</ele>
        <time>2018-02-18T15:44:25Z</time>
      </trkpt>
      <trkpt lat="47.8045" lon="5.40445">
        <ele>467.8</ele>
        <time>2018-02-18T15:44:30Z</time>
      </trkpt>
      <trkpt lat="47.80445" lon="5.40442">
        <ele>467.4</ele>
        <time>2018-02-18T15:44:35Z</time>
      </trkpt>
      <trkpt lat="47.80441" lon="5.40436">
        <ele>467.6</ele>
        <time>2018-02-18T15:44:40Z</time>
      </trkpt>
      <trkpt lat="47.80438" lon="5.40429">
        <ele>467.8</ele>
        <time>2018-02-18T15:44:45Z</time>
      </trkpt>
      <trkpt lat="47.80436" lon="5.40425">
        <ele>466.8</ele>
        <time>2018-02-18T15:44:50Z</time>
      </trkpt>
      <trkpt lat="47.80435" lon="5.40421">
        <ele>465.8</ele>
        <time>2018-02-18T15:44:55Z</time>
      </trkpt>
      <trkpt lat="47.80431" lon="5.40418">
        <ele>465.4</ele>
        <time>2018-02-18T15:45:00Z</time>
      </trkpt>
      <trkpt lat="47.80428" lon="5.40416">
        <ele>465.9</ele>
        <time>2018-02-18T15:45:05Z</time>
      </trkpt>
      <trkpt lat="47.80427" lon="5.40416">
        <ele>465.8</ele>
        <time>2018-02-18T15:45:10Z</time>
      </trkpt>
      <trkpt lat="47.80425" lon="5.40416">
        <ele>465.7</ele>
        <time>2018-02-18T15:45:15Z</time>
      </trkpt>
      <trkpt lat="47.80425" lon="5.40414">
        <ele>466.4</ele>
        <time>2018-02-18T15:45:20Z</time>
      </trkpt>
      <trkpt lat="47.80424" lon="5.40413">
        <ele>465.5</ele>
        <time>2018-02-18T15:45:25Z</time>
      </trkpt>
      <trkpt lat="47.80424" lon="5.40412">
        <ele>465.5</ele>
        <time>2018-02-18T15:45:30Z</time>
      </trkpt>
      <trkpt lat="47.80424" lon="5.40409">
        <ele>464.6</ele>
        <time>2018-02-18T15:45:35Z</time>
      </trkpt>
      <trkpt lat="47.80419" lon="5.40407">
        <ele>464.3</ele>
        <time>2018-02-18T15:45:40Z</time>
      </trkpt>
      <trkpt lat="47.80414" lon="5.40408">
        <ele>464.8</ele>
        <time>2018-02-18T15:45:45Z</time>
      </trkpt>
      <trkpt lat="47.80409" lon="5.4041">
        <ele>464.6</ele>
        <time>2018-02-18T15:45:50Z</time>
      </trkpt>
      <trkpt lat="47.80406" lon="5.40414">
        <ele>464.7</ele>
        <time>2018-02-18T15:45:55Z</time>
      </trkpt>
      <trkpt lat="47.80403" lon="5.40418">
        <ele>464</ele>
        <time>2018-02-18T15:46:00Z</time>
      </trkpt>
      <trkpt lat="47.80401" lon="5.40426">
        <ele>464.3</ele>
        <time>2018-02-18T15:46:05Z</time>
      </trkpt>
      <trkpt lat="47.80402" lon="5.40431">
        <ele>463.9</ele>
        <time>2018-02-18T15:46:10Z</time>
      </trkpt>
      <trkpt lat="47.80405" lon="5.40437">
        <ele>463.6</ele>
        <time>2018-02-18T15:46:15Z</time>
      </trkpt>
      <trkpt lat="47.80406" lon="5.40444">
        <ele>464</ele>
        <time>2018-02-18T15:46:20Z</time>
      </trkpt>
      <trkpt lat="47.80409" lon="5.40447">
        <ele>464.3</ele>
        <time>2018-02-18T15:46:25Z</time>
      </trkpt>
      <trkpt lat="47.80413" lon="5.4045">
        <ele>464.7</ele>
        <time>2018-02-18T15:46:30Z</time>
      </trkpt>
      <trkpt lat="47.80414" lon="5.40452">
        <ele>464.9</ele>
        <time>2018-02-18T15:46:35Z</time>
      </trkpt>
      <trkpt lat="47.80415" lon="5.40455">
        <ele>465.7</ele>
        <time>2018-02-18T15:46:40Z</time>
      </trkpt>
      <trkpt lat="47.8042" lon="5.4046">
        <ele>466.9</ele>
        <time>2018-02-18T15:46:45Z</time>
      </trkpt>
      <trkpt lat="47.80425" lon="5.40465">
        <ele>468.9</ele>
        <time>2018-02-18T15:46:50Z</time>
      </trkpt>
      <trkpt lat="47.80428" lon="5.40472">
        <ele>470.1</ele>
        <time>2018-02-18T15:46:55Z</time>
      </trkpt>
      <trkpt lat="47.80428" lon="5.40476">
        <ele>469.6</ele>
        <time>2018-02-18T15:47:00Z</time>
      </trkpt>
      <trkpt lat="47.80429" lon="5.40483">
        <ele>468.6</ele>
        <time>2018-02-18T15:47:05Z</time>
      </trkpt>
      <trkpt lat="47.80432" lon="5.40489">
        <ele>468.3</ele>
        <time>2018-02-18T15:47:10Z</time>
      </trkpt>
      <trkpt lat="47.80438" lon="5.40496">
        <ele>469</ele>
        <time>2018-02-18T15:47:15Z</time>
      </trkpt>
      <trkpt lat="47.80441" lon="5.40503">
        <ele>468.8</ele>
        <time>2018-02-18T15:47:20Z</time>
      </trkpt>
      <trkpt lat="47.80444" lon="5.40509">
        <ele>468.5</ele>
        <time>2018-02-18T15:47:25Z</time>
      </trkpt>
      <trkpt lat="47.80449" lon="5.40516">
        <ele>469.1</ele>
        <time>2018-02-18T15:47:30Z</time>
      </trkpt>
      <trkpt lat="47.80454" lon="5.40526">
        <ele>469.2</ele>
        <time>2018-02-18T15:47:35Z</time>
      </trkpt>
      <trkpt lat="47.80458" lon="5.40533">
        <ele>469.7</ele>
        <time>2018-02-18T15:47:40Z</time>
      </trkpt>
      <trkpt lat="47.8046" lon="5.4054">
        <ele>468.8</ele>
        <time>2018-02-18T15:47:45Z</time>
      </trkpt>
      <trkpt lat="47.80463" lon="5.40544">
        <ele>468.4</ele>
        <time>2018-02-18T15:47:50Z</time>
      </trkpt>
      <trkpt lat="47.80466" lon="5.40549">
        <ele>468.1</ele>
        <time>2018-02-18T15:47:55Z</time>
      </trkpt>
      <trkpt lat="47.80469" lon="5.40554">
        <ele>468.6</ele>
        <time>2018-02-18T15:48:00Z</time>
      </trkpt>
      <trkpt lat="47.80473" lon="5.40556">
        <ele>468.1</ele>
        <time>2018-02-18T15:48:05Z</time>
      </trkpt>
      <trkpt lat="47.80476" lon="5.40559">
        <ele>469.9</ele>
        <time>2018-02-18T15:48:10Z</time>
      </trkpt>
      <trkpt lat="47.80481" lon="5.40562">
        <ele>469.5</ele>
        <time>2018-02-18T15:48:15Z</time>
      </trkpt>
      <trkpt lat="47.80484" lon="5.40567">
        <ele>468.5</ele>
        <time>2018-02-18T15:48:20Z</time>
      </trkpt>
      <trkpt lat="47.80489" lon="5.40572">
        <ele>469.1</ele>
        <time>2018-02-18T15:48:25Z</time>
      </trkpt>
      <trkpt lat="47.80494" lon="5.40578">
        <ele>469.6</ele>
        <time>2018-02-18T15:48:30Z</time>
      </trkpt>
      <trkpt lat="47.80499" lon="5.40585">
        <ele>470.2</ele>
        <time>2018-02-18T15:48:35Z</time>
      </trkpt>
      <trkpt lat="47.80503" lon="5.40591">
        <ele>471.4</ele>
        <time>2018-02-18T15:48:40Z</time>
      </trkpt>
      <trkpt lat="47.80506" lon="5.40594">
        <ele>471.8</ele>
        <time>2018-02-18T15:48:45Z</time>
      </trkpt>
      <trkpt lat="47.80511" lon="5.406">
        <ele>471.6</ele>
        <time>2018-02-18T15:48:50Z</time>
      </trkpt>
      <trkpt lat="47.80513" lon="5.40603">
        <ele>471.9</ele>
        <time>2018-02-18T15:48:55Z</time>
      </trkpt>
      <trkpt lat="47.80517" lon="5.40609">
        <ele>473.1</ele>
        <time>2018-02-18T15:49:00Z</time>
      </trkpt>
      <trkpt lat="47.80521" lon="5.40614">
        <ele>472.9</ele>
        <time>2018-02-18T15:49:05Z</time>
      </trkpt>
      <trkpt lat="47.80525" lon="5.40623">
        <ele>473.5</ele>
        <time>2018-02-18T15:49:10Z</time>
      </trkpt>
      <trkpt lat="47.80526" lon="5.4063">
        <ele>473.9</ele>
        <time>2018-02-18T15:49:15Z</time>
      </trkpt>
      <trkpt lat="47.80526" lon="5.40638">
        <ele>470.7</ele>
        <time>2018-02-18T15:49:20Z</time>
      </trkpt>
      <trkpt lat="47.80527" lon="5.40643">
        <ele>471.1</ele>
        <time>2018-02-18T15:49:25Z</time>
      </trkpt>
      <trkpt lat="47.80529" lon="5.4065">
        <ele>471.5</ele>
        <time>2018-02-18T15:49:30Z</time>
      </trkpt>
      <trkpt lat="47.80533" lon="5.40655">
        <ele>471.9</ele>
        <time>2018-02-18T15:49:35Z</time>
      </trkpt>
      <trkpt lat="47.80538" lon="5.4066">
        <ele>471.1</ele>
        <time>2018-02-18T15:49:40Z</time>
      </trkpt>
      <trkpt lat="47.80539" lon="5.40665">
        <ele>471.3</ele>
        <time>2018-02-18T15:49:45Z</time>
      </trkpt>
      <trkpt lat="47.80542" lon="5.40673">
        <ele>471.9</ele>
        <time>2018-02-18T15:49:50Z</time>
      </trkpt>
      <trkpt lat="47.80547" lon="5.4068">
        <ele>472.5</ele>
        <time>2018-02-18T15:49:55Z</time>
      </trkpt>
      <trkpt lat="47.80553" lon="5.40685">
        <ele>473.8</ele>
        <time>2018-02-18T15:50:00Z</time>
      </trkpt>
      <trkpt lat="47.80558" lon="5.40689">
        <ele>472.2</ele>
        <time>2018-02-18T15:50:05Z</time>
      </trkpt>
      <trkpt lat="47.80563" lon="5.40693">
        <ele>471.8</ele>
        <time>2018-02-18T15:50:10Z</time>
      </trkpt>
      <trkpt lat="47.80568" lon="5.40696">
        <ele>472.2</ele>
        <time>2018-02-18T15:50:15Z</time>
      </trkpt>
      <trkpt lat="47.8057" lon="5.40701">
        <ele>473.4</ele>
        <time>2018-02-18T15:50:20Z</time>
      </trkpt>
      <trkpt lat="47.80573" lon="5.40707">
        <ele>474.5</ele>
        <time>2018-02-18T15:50:25Z</time>
      </trkpt>
      <trkpt lat="47.80575" lon="5.40712">
        <ele>475.6</ele>
        <time>2018-02-18T15:50:30Z</time>
      </trkpt>
      <trkpt lat="47.80575" lon="5.40715">
        <ele>476.5</ele>
        <time>2018-02-18T15:50:35Z</time>
      </trkpt>
      <trkpt lat="47.80577" lon="5.4072">
        <ele>475.4</ele>
        <time>2018-02-18T15:50:40Z</time>
      </trkpt>
      <trkpt lat="47.8058" lon="5.40725">
        <ele>475</ele>
        <time>2018-02-18T15:50:45Z</time>
      </trkpt>
      <trkpt lat="47.80582" lon="5.40729">
        <ele>475.4</ele>
        <time>2018-02-18T15:50:50Z</time>
      </trkpt>
      <trkpt lat="47.80586" lon="5.40735">
        <ele>475.2</ele>
        <time>2018-02-18T15:50:55Z</time>
      </trkpt>
      <trkpt lat="47.80588" lon="5.40742">
        <ele>474.2</ele>
        <time>2018-02-18T15:51:00Z</time>
      </trkpt>
      <trkpt lat="47.80589" lon="5.40747">
        <ele>474.5</ele>
        <time>2018-02-18T15:51:05Z</time>
      </trkpt>
      <trkpt lat="47.80591" lon="5.40754">
        <ele>472.9</ele>
        <time>2018-02-18T15:51:10Z</time>
      </trkpt>
      <trkpt lat="47.80589" lon="5.40762">
        <ele>473.2</ele>
        <time>2018-02-18T15:51:15Z</time>
      </trkpt>
      <trkpt lat="47.8059" lon="5.4077">
        <ele>474.3</ele>
        <time>2018-02-18T15:51:20Z</time>
      </trkpt>
      <trkpt lat="47.80593" lon="5.40777">
        <ele>472</ele>
        <time>2018-02-18T15:51:25Z</time>
      </trkpt>
      <trkpt lat="47.80595" lon="5.40786">
        <ele>471.1</ele>
        <time>2018-02-18T15:51:30Z</time>
      </trkpt>
      <trkpt lat="47.80597" lon="5.40795">
        <ele>471</ele>
        <time>2018-02-18T15:51:35Z</time>
      </trkpt>
      <trkpt lat="47.80596" lon="5.40803">
        <ele>470.6</ele>
        <time>2018-02-18T15:51:40Z</time>
      </trkpt>
      <trkpt lat="47.80598" lon="5.4081">
        <ele>469.7</ele>
        <time>2018-02-18T15:51:45Z</time>
      </trkpt>
      <trkpt lat="47.80601" lon="5.40816">
        <ele>470.1</ele>
        <time>2018-02-18T15:51:50Z</time>
      </trkpt>
      <trkpt lat="47.80602" lon="5.40824">
        <ele>469.8</ele>
        <time>2018-02-18T15:51:55Z</time>
      </trkpt>
      <trkpt lat="47.80602" lon="5.40831">
        <ele>470.2</ele>
        <time>2018-02-18T15:52:00Z</time>
      </trkpt>
      <trkpt lat="47.80601" lon="5.40837">
        <ele>469.7</ele>
        <time>2018-02-18T15:52:05Z</time>
      </trkpt>
      <trkpt lat="47.80601" lon="5.40844">
        <ele>469.4</ele>
        <time>2018-02-18T15:52:10Z</time>
      </trkpt>
      <trkpt lat="47.80602" lon="5.4085">
        <ele>469</ele>
        <time>2018-02-18T15:52:15Z</time>
      </trkpt>
      <trkpt lat="47.806" lon="5.40856">
        <ele>467.1</ele>
        <time>2018-02-18T15:52:20Z</time>
      </trkpt>
      <trkpt lat="47.80599" lon="5.40865">
        <ele>464.6</ele>
        <time>2018-02-18T15:52:25Z</time>
      </trkpt>
      <trkpt lat="47.80598" lon="5.40873">
        <ele>463.5</ele>
        <time>2018-02-18T15:52:30Z</time>
      </trkpt>
      <trkpt lat="47.80596" lon="5.40879">
        <ele>462.3</ele>
        <time>2018-02-18T15:52:35Z</time>
      </trkpt>
      <trkpt lat="47.80595" lon="5.40883">
        <ele>461.8</ele>
        <time>2018-02-18T15:52:40Z</time>
      </trkpt>
      <trkpt lat="47.80592" lon="5.40892">
        <ele>460.7</ele>
        <time>2018-02-18T15:52:45Z</time>
      </trkpt>
      <trkpt lat="47.80591" lon="5.40903">
        <ele>459.7</ele>
        <time>2018-02-18T15:52:50Z</time>
      </trkpt>
      <trkpt lat="47.80592" lon="5.40909">
        <ele>458</ele>
        <time>2018-02-18T15:52:55Z</time>
      </trkpt>
      <trkpt lat="47.80596" lon="5.40914">
        <ele>457</ele>
        <time>2018-02-18T15:53:00Z</time>
      </trkpt>
      <trkpt lat="47.80598" lon="5.40919">
        <ele>455.9</ele>
        <time>2018-02-18T15:53:05Z</time>
      </trkpt>
      <trkpt lat="47.80602" lon="5.40923">
        <ele>456.3</ele>
        <time>2018-02-18T15:53:10Z</time>
      </trkpt>
      <trkpt lat="47.80607" lon="5.40926">
        <ele>456.8</ele>
        <time>2018-02-18T15:53:15Z</time>
      </trkpt>
      <trkpt lat="47.80611" lon="5.40931">
        <ele>458.6</ele>
        <time>2018-02-18T15:53:20Z</time>
      </trkpt>
      <trkpt lat="47.80614" lon="5.40934">
        <ele>458.9</ele>
        <time>2018-02-18T15:53:25Z</time>
      </trkpt>
      <trkpt lat="47.8062" lon="5.40937">
        <ele>458.7</ele>
        <time>2018-02-18T15:53:30Z</time>
      </trkpt>
      <trkpt lat="47.80624" lon="5.4094">
        <ele>457.6</ele>
        <time>2018-02-18T15:53:35Z</time>
      </trkpt>
      <trkpt lat="47.80628" lon="5.40939">
        <ele>457.1</ele>
        <time>2018-02-18T15:53:40Z</time>
      </trkpt>
      <trkpt lat="47.80632" lon="5.4094">
        <ele>457.3</ele>
        <time>2018-02-18T15:53:45Z</time>
      </trkpt>
      <trkpt lat="47.80638" lon="5.40939">
        <ele>456.9</ele>
        <time>2018-02-18T15:53:50Z</time>
      </trkpt>
      <trkpt lat="47.80645" lon="5.40938">
        <ele>457.9</ele>
        <time>2018-02-18T15:53:55Z</time>
      </trkpt>
      <trkpt lat="47.80649" lon="5.40939">
        <ele>458.1</ele>
        <time>2018-02-18T15:54:00Z</time>
      </trkpt>
      <trkpt lat="47.80654" lon="5.40939">
        <ele>458.4</ele>
        <time>2018-02-18T15:54:05Z</time>
      </trkpt>
      <trkpt lat="47.80658" lon="5.40941">
        <ele>460.8</ele>
        <time>2018-02-18T15:54:10Z</time>
      </trkpt>
      <trkpt lat="47.80664" lon="5.40943">
        <ele>461.3</ele>
        <time>2018-02-18T15:54:15Z</time>
      </trkpt>
      <trkpt lat="47.80669" lon="5.40943">
        <ele>460.8</ele>
        <time>2018-02-18T15:54:20Z</time>
      </trkpt>
      <trkpt lat="47.80673" lon="5.40944">
        <ele>461.8</ele>
        <time>2018-02-18T15:54:25Z</time>
      </trkpt>
      <trkpt lat="47.80678" lon="5.40943">
        <ele>461.3</ele>
        <time>2018-02-18T15:54:30Z</time>
      </trkpt>
      <trkpt lat="47.80681" lon="5.40942">
        <ele>461.4</ele>
        <time>2018-02-18T15:54:35Z</time>
      </trkpt>
      <trkpt lat="47.80686" lon="5.40942">
        <ele>462.4</ele>
        <time>2018-02-18T15:54:40Z</time>
      </trkpt>
      <trkpt lat="47.8069" lon="5.4094">
        <ele>461.8</ele>
        <time>2018-02-18T15:54:45Z</time>
      </trkpt>
      <trkpt lat="47.80694" lon="5.4094">
        <ele>461.3</ele>
        <time>2018-02-18T15:54:50Z</time>
      </trkpt>
      <trkpt lat="47.80696" lon="5.40941">
        <ele>461.4</ele>
        <time>2018-02-18T15:54:55Z</time>
      </trkpt>
      <trkpt lat="47.80696" lon="5.40941">
        <ele>461.4</ele>
        <time>2018-02-18T15:55:00Z</time>
      </trkpt>
      <trkpt lat="47.80696" lon="5.40941">
        <ele>461.4</ele>
        <time>2018-02-18T15:55:05Z</time>
      </trkpt>
      <trkpt lat="47.80696" lon="5.40941">
        <ele>461.4</ele>
        <time>2018-02-18T15:55:10Z</time>
      </trkpt>
      <trkpt lat="47.80696" lon="5.40941">
        <ele>461.4</ele>
        <time>2018-02-18T15:55:15Z</time>
      </trkpt>
      <trkpt lat="47.80696" lon="5.40939">
        <ele>462.8</ele>
        <time>2018-02-18T15:55:20Z</time>
      </trkpt>
      <trkpt lat="47.80698" lon="5.40938">
        <ele>462.8</ele>
        <time>2018-02-18T15:55:25Z</time>
      </trkpt>
      <trkpt lat="47.80698" lon="5.40937">
        <ele>462</ele>
        <time>2018-02-18T15:55:30Z</time>
      </trkpt>
      <trkpt lat="47.80702" lon="5.40936">
        <ele>462.2</ele>
        <time>2018-02-18T15:55:35Z</time>
      </trkpt>
      <trkpt lat="47.80709" lon="5.40935">
        <ele>461.1</ele>
        <time>2018-02-18T15:55:40Z</time>
      </trkpt>
      <trkpt lat="47.80713" lon="5.40936">
        <ele>459.2</ele>
        <time>2018-02-18T15:55:45Z</time>
      </trkpt>
      <trkpt lat="47.80717" lon="5.40939">
        <ele>457.5</ele>
        <time>2018-02-18T15:55:50Z</time>
      </trkpt>
      <trkpt lat="47.80721" lon="5.40942">
        <ele>456.4</ele>
        <time>2018-02-18T15:55:55Z</time>
      </trkpt>
      <trkpt lat="47.80725" lon="5.40945">
        <ele>455.3</ele>
        <time>2018-02-18T15:56:00Z</time>
      </trkpt>
      <trkpt lat="47.80729" lon="5.4095">
        <ele>455.1</ele>
        <time>2018-02-18T15:56:05Z</time>
      </trkpt>
      <trkpt lat="47.80735" lon="5.40953">
        <ele>457</ele>
        <time>2018-02-18T15:56:10Z</time>
      </trkpt>
      <trkpt lat="47.80736" lon="5.40953">
        <ele>457.7</ele>
        <time>2018-02-18T15:56:15Z</time>
      </trkpt>
      <trkpt lat="47.80737" lon="5.40955">
        <ele>457.9</ele>
        <time>2018-02-18T15:56:20Z</time>
      </trkpt>
      <trkpt lat="47.80744" lon="5.40959">
        <ele>459.1</ele>
        <time>2018-02-18T15:56:25Z</time>
      </trkpt>
      <trkpt lat="47.80749" lon="5.40964">
        <ele>458.2</ele>
        <time>2018-02-18T15:56:30Z</time>
      </trkpt>
      <trkpt lat="47.80751" lon="5.40967">
        <ele>457.1</ele>
        <time>2018-02-18T15:56:35Z</time>
      </trkpt>
      <trkpt lat="47.80754" lon="5.40963">
        <ele>454.9</ele>
        <time>2018-02-18T15:56:40Z</time>
      </trkpt>
      <trkpt lat="47.80756" lon="5.40958">
        <ele>452</ele>
        <time>2018-02-18T15:56:45Z</time>
      </trkpt>
      <trkpt lat="47.8076" lon="5.40954">
        <ele>449.8</ele>
        <time>2018-02-18T15:56:50Z</time>
      </trkpt>
      <trkpt lat="47.80765" lon="5.4095">
        <ele>449.1</ele>
        <time>2018-02-18T15:56:55Z</time>
      </trkpt>
      <trkpt lat="47.80769" lon="5.40944">
        <ele>448.4</ele>
        <time>2018-02-18T15:57:00Z</time>
      </trkpt>
      <trkpt lat="47.80774" lon="5.40939">
        <ele>447.7</ele>
        <time>2018-02-18T15:57:05Z</time>
      </trkpt>
      <trkpt lat="47.80778" lon="5.40934">
        <ele>447.6</ele>
        <time>2018-02-18T15:57:10Z</time>
      </trkpt>
      <trkpt lat="47.80783" lon="5.40929">
        <ele>448.3</ele>
        <time>2018-02-18T15:57:15Z</time>
      </trkpt>
      <trkpt lat="47.80787" lon="5.40924">
        <ele>446.9</ele>
        <time>2018-02-18T15:57:20Z</time>
      </trkpt>
      <trkpt lat="47.80792" lon="5.40918">
        <ele>446.8</ele>
        <time>2018-02-18T15:57:25Z</time>
      </trkpt>
      <trkpt lat="47.80798" lon="5.40912">
        <ele>446.8</ele>
        <time>2018-02-18T15:57:30Z</time>
      </trkpt>
      <trkpt lat="47.80801" lon="5.40907">
        <ele>446</ele>
        <time>2018-02-18T15:57:35Z</time>
      </trkpt>
      <trkpt lat="47.80806" lon="5.40902">
        <ele>445.3</ele>
        <time>2018-02-18T15:57:40Z</time>
      </trkpt>
      <trkpt lat="47.80811" lon="5.40898">
        <ele>446.8</ele>
        <time>2018-02-18T15:57:45Z</time>
      </trkpt>
      <trkpt lat="47.80815" lon="5.40893">
        <ele>445.3</ele>
        <time>2018-02-18T15:57:50Z</time>
      </trkpt>
      <trkpt lat="47.80819" lon="5.40891">
        <ele>444</ele>
        <time>2018-02-18T15:57:55Z</time>
      </trkpt>
      <trkpt lat="47.80823" lon="5.40896">
        <ele>442.4</ele>
        <time>2018-02-18T15:58:00Z</time>
      </trkpt>
      <trkpt lat="47.80827" lon="5.40902">
        <ele>441.5</ele>
        <time>2018-02-18T15:58:05Z</time>
      </trkpt>
      <trkpt lat="47.80832" lon="5.40908">
        <ele>440.6</ele>
        <time>2018-02-18T15:58:10Z</time>
      </trkpt>
      <trkpt lat="47.80837" lon="5.40914">
        <ele>439.7</ele>
        <time>2018-02-18T15:58:15Z</time>
      </trkpt>
      <trkpt lat="47.8084" lon="5.4092">
        <ele>438.8</ele>
        <time>2018-02-18T15:58:20Z</time>
      </trkpt>
      <trkpt lat="47.80844" lon="5.40927">
        <ele>437.9</ele>
        <time>2018-02-18T15:58:25Z</time>
      </trkpt>
      <trkpt lat="47.80847" lon="5.40934">
        <ele>437.7</ele>
        <time>2018-02-18T15:58:30Z</time>
      </trkpt>
      <trkpt lat="47.8085" lon="5.40941">
        <ele>436.8</ele>
        <time>2018-02-18T15:58:35Z</time>
      </trkpt>
      <trkpt lat="47.80853" lon="5.4095">
        <ele>435.3</ele>
        <time>2018-02-18T15:58:40Z</time>
      </trkpt>
      <trkpt lat="47.80854" lon="5.40958">
        <ele>434.3</ele>
        <time>2018-02-18T15:58:45Z</time>
      </trkpt>
      <trkpt lat="47.80855" lon="5.40966">
        <ele>433.4</ele>
        <time>2018-02-18T15:58:50Z</time>
      </trkpt>
      <trkpt lat="47.80856" lon="5.40973">
        <ele>431.6</ele>
        <time>2018-02-18T15:58:55Z</time>
      </trkpt>
      <trkpt lat="47.80856" lon="5.40984">
        <ele>430.8</ele>
        <time>2018-02-18T15:59:00Z</time>
      </trkpt>
      <trkpt lat="47.80857" lon="5.40992">
        <ele>429.1</ele>
        <time>2018-02-18T15:59:05Z</time>
      </trkpt>
      <trkpt lat="47.80858" lon="5.40999">
        <ele>428.1</ele>
        <time>2018-02-18T15:59:10Z</time>
      </trkpt>
      <trkpt lat="47.80857" lon="5.41007">
        <ele>427</ele>
        <time>2018-02-18T15:59:15Z</time>
      </trkpt>
      <trkpt lat="47.80858" lon="5.41015">
        <ele>425.3</ele>
        <time>2018-02-18T15:59:20Z</time>
      </trkpt>
      <trkpt lat="47.80855" lon="5.41021">
        <ele>424</ele>
        <time>2018-02-18T15:59:25Z</time>
      </trkpt>
      <trkpt lat="47.80855" lon="5.41023">
        <ele>424.2</ele>
        <time>2018-02-18T15:59:30Z</time>
      </trkpt>
      <trkpt lat="47.80859" lon="5.41031">
        <ele>422.6</ele>
        <time>2018-02-18T15:59:35Z</time>
      </trkpt>
      <trkpt lat="47.80859" lon="5.41039">
        <ele>421.6</ele>
        <time>2018-02-18T15:59:40Z</time>
      </trkpt>
      <trkpt lat="47.80859" lon="5.41048">
        <ele>420.6</ele>
        <time>2018-02-18T15:59:45Z</time>
      </trkpt>
      <trkpt lat="47.80858" lon="5.41058">
        <ele>419.6</ele>
        <time>2018-02-18T15:59:50Z</time>
      </trkpt>
      <trkpt lat="47.80858" lon="5.41067">
        <ele>418.7</ele>
        <time>2018-02-18T15:59:55Z</time>
      </trkpt>
      <trkpt lat="47.80857" lon="5.41078">
        <ele>417.8</ele>
        <time>2018-02-18T16:00:00Z</time>
      </trkpt>
      <trkpt lat="47.80858" lon="5.41087">
        <ele>417.6</ele>
        <time>2018-02-18T16:00:05Z</time>
      </trkpt>
      <trkpt lat="47.80857" lon="5.41097">
        <ele>416.6</ele>
        <time>2018-02-18T16:00:10Z</time>
      </trkpt>
      <trkpt lat="47.80857" lon="5.41107">
        <ele>415.7</ele>
        <time>2018-02-18T16:00:15Z</time>
      </trkpt>
      <trkpt lat="47.80856" lon="5.41117">
        <ele>415.4</ele>
        <time>2018-02-18T16:00:20Z</time>
      </trkpt>
      <trkpt lat="47.80855" lon="5.41127">
        <ele>415.9</ele>
        <time>2018-02-18T16:00:25Z</time>
      </trkpt>
      <trkpt lat="47.80853" lon="5.41136">
        <ele>415.5</ele>
        <time>2018-02-18T16:00:30Z</time>
      </trkpt>
      <trkpt lat="47.8085" lon="5.41147">
        <ele>414.5</ele>
        <time>2018-02-18T16:00:36Z</time>
      </trkpt>
      <trkpt lat="47.80846" lon="5.41155">
        <ele>413.2</ele>
        <time>2018-02-18T16:00:41Z</time>
      </trkpt>
      <trkpt lat="47.80842" lon="5.41162">
        <ele>412</ele>
        <time>2018-02-18T16:00:46Z</time>
      </trkpt>
      <trkpt lat="47.80838" lon="5.41169">
        <ele>411.4</ele>
        <time>2018-02-18T16:00:51Z</time>
      </trkpt>
      <trkpt lat="47.80834" lon="5.41178">
        <ele>410.2</ele>
        <time>2018-02-18T16:00:56Z</time>
      </trkpt>
      <trkpt lat="47.8083" lon="5.41186">
        <ele>409</ele>
        <time>2018-02-18T16:01:01Z</time>
      </trkpt>
      <trkpt lat="47.80826" lon="5.41193">
        <ele>408.5</ele>
        <time>2018-02-18T16:01:06Z</time>
      </trkpt>
      <trkpt lat="47.80822" lon="5.41201">
        <ele>407.9</ele>
        <time>2018-02-18T16:01:11Z</time>
      </trkpt>
      <trkpt lat="47.80818" lon="5.41209">
        <ele>407.4</ele>
        <time>2018-02-18T16:01:16Z</time>
      </trkpt>
      <trkpt lat="47.80815" lon="5.41216">
        <ele>405.5</ele>
        <time>2018-02-18T16:01:21Z</time>
      </trkpt>
      <trkpt lat="47.80811" lon="5.41224">
        <ele>405</ele>
        <time>2018-02-18T16:01:26Z</time>
      </trkpt>
      <trkpt lat="47.80807" lon="5.41232">
        <ele>405.1</ele>
        <time>2018-02-18T16:01:31Z</time>
      </trkpt>
      <trkpt lat="47.80803" lon="5.41241">
        <ele>404.7</ele>
        <time>2018-02-18T16:01:36Z</time>
      </trkpt>
      <trkpt lat="47.808" lon="5.41249">
        <ele>403.5</ele>
        <time>2018-02-18T16:01:41Z</time>
      </trkpt>
      <trkpt lat="47.80797" lon="5.41258">
        <ele>403.8</ele>
        <time>2018-02-18T16:01:46Z</time>
      </trkpt>
      <trkpt lat="47.80795" lon="5.41266">
        <ele>402.6</ele>
        <time>2018-02-18T16:01:51Z</time>
      </trkpt>
      <trkpt lat="47.80792" lon="5.41275">
        <ele>402.9</ele>
        <time>2018-02-18T16:01:56Z</time>
      </trkpt>
      <trkpt lat="47.80789" lon="5.41285">
        <ele>402.6</ele>
        <time>2018-02-18T16:02:01Z</time>
      </trkpt>
      <trkpt lat="47.80787" lon="5.41293">
        <ele>402.2</ele>
        <time>2018-02-18T16:02:06Z</time>
      </trkpt>
      <trkpt lat="47.80785" lon="5.41302">
        <ele>401.8</ele>
        <time>2018-02-18T16:02:11Z</time>
      </trkpt>
      <trkpt lat="47.80783" lon="5.41311">
        <ele>402.2</ele>
        <time>2018-02-18T16:02:16Z</time>
      </trkpt>
      <trkpt lat="47.80782" lon="5.41322">
        <ele>402</ele>
        <time>2018-02-18T16:02:21Z</time>
      </trkpt>
      <trkpt lat="47.8078" lon="5.41331">
        <ele>401.6</ele>
        <time>2018-02-18T16:02:26Z</time>
      </trkpt>
      <trkpt lat="47.80779" lon="5.4134">
        <ele>401.3</ele>
        <time>2018-02-18T16:02:31Z</time>
      </trkpt>
      <trkpt lat="47.80778" lon="5.4135">
        <ele>401</ele>
        <time>2018-02-18T16:02:36Z</time>
      </trkpt>
      <trkpt lat="47.80776" lon="5.41359">
        <ele>401.4</ele>
        <time>2018-02-18T16:02:41Z</time>
      </trkpt>
      <trkpt lat="47.80775" lon="5.41368">
        <ele>401.1</ele>
        <time>2018-02-18T16:02:46Z</time>
      </trkpt>
      <trkpt lat="47.80774" lon="5.41378">
        <ele>400.8</ele>
        <time>2018-02-18T16:02:51Z</time>
      </trkpt>
      <trkpt lat="47.80773" lon="5.41388">
        <ele>402</ele>
        <time>2018-02-18T16:02:56Z</time>
      </trkpt>
      <trkpt lat="47.80772" lon="5.41397">
        <ele>401.7</ele>
        <time>2018-02-18T16:03:01Z</time>
      </trkpt>
      <trkpt lat="47.8077" lon="5.41407">
        <ele>401.4</ele>
        <time>2018-02-18T16:03:06Z</time>
      </trkpt>
      <trkpt lat="47.80769" lon="5.41417">
        <ele>401.1</ele>
        <time>2018-02-18T16:03:11Z</time>
      </trkpt>
      <trkpt lat="47.80769" lon="5.41427">
        <ele>401.6</ele>
        <time>2018-02-18T16:03:16Z</time>
      </trkpt>
      <trkpt lat="47.80769" lon="5.41437">
        <ele>401.4</ele>
        <time>2018-02-18T16:03:21Z</time>
      </trkpt>
      <trkpt lat="47.80768" lon="5.41447">
        <ele>401.1</ele>
        <time>2018-02-18T16:03:26Z</time>
      </trkpt>
      <trkpt lat="47.80768" lon="5.41456">
        <ele>400.9</ele>
        <time>2018-02-18T16:03:31Z</time>
      </trkpt>
      <trkpt lat="47.80768" lon="5.41466">
        <ele>399.9</ele>
        <time>2018-02-18T16:03:36Z</time>
      </trkpt>
      <trkpt lat="47.80767" lon="5.41474">
        <ele>399.6</ele>
        <time>2018-02-18T16:03:41Z</time>
      </trkpt>
      <trkpt lat="47.80767" lon="5.41482">
        <ele>399.3</ele>
        <time>2018-02-18T16:03:46Z</time>
      </trkpt>
      <trkpt lat="47.80767" lon="5.41491">
        <ele>398.3</ele>
        <time>2018-02-18T16:03:51Z</time>
      </trkpt>
      <trkpt lat="47.80767" lon="5.41499">
        <ele>398</ele>
        <time>2018-02-18T16:03:56Z</time>
      </trkpt>
      <trkpt lat="47.80767" lon="5.41509">
        <ele>397.1</ele>
        <time>2018-02-18T16:04:01Z</time>
      </trkpt>
      <trkpt lat="47.80766" lon="5.41517">
        <ele>397.4</ele>
        <time>2018-02-18T16:04:06Z</time>
      </trkpt>
      <trkpt lat="47.80767" lon="5.41526">
        <ele>397.2</ele>
        <time>2018-02-18T16:04:11Z</time>
      </trkpt>
      <trkpt lat="47.80767" lon="5.41534">
        <ele>396.9</ele>
        <time>2018-02-18T16:04:16Z</time>
      </trkpt>
      <trkpt lat="47.80767" lon="5.41542">
        <ele>395.9</ele>
        <time>2018-02-18T16:04:21Z</time>
      </trkpt>
      <trkpt lat="47.80768" lon="5.41549">
        <ele>394.9</ele>
        <time>2018-02-18T16:04:26Z</time>
      </trkpt>
      <trkpt lat="47.80767" lon="5.41553">
        <ele>395.1</ele>
        <time>2018-02-18T16:04:31Z</time>
      </trkpt>
      <trkpt lat="47.80768" lon="5.4156">
        <ele>394.7</ele>
        <time>2018-02-18T16:04:36Z</time>
      </trkpt>
      <trkpt lat="47.80767" lon="5.41569">
        <ele>393.8</ele>
        <time>2018-02-18T16:04:41Z</time>
      </trkpt>
      <trkpt lat="47.80768" lon="5.41577">
        <ele>393.5</ele>
        <time>2018-02-18T16:04:46Z</time>
      </trkpt>
      <trkpt lat="47.80768" lon="5.41587">
        <ele>392.6</ele>
        <time>2018-02-18T16:04:51Z</time>
      </trkpt>
      <trkpt lat="47.80769" lon="5.41595">
        <ele>392.3</ele>
        <time>2018-02-18T16:04:56Z</time>
      </trkpt>
      <trkpt lat="47.8077" lon="5.41605">
        <ele>392.1</ele>
        <time>2018-02-18T16:05:01Z</time>
      </trkpt>
      <trkpt lat="47.80771" lon="5.41614">
        <ele>391.2</ele>
        <time>2018-02-18T16:05:06Z</time>
      </trkpt>
      <trkpt lat="47.80773" lon="5.41624">
        <ele>390.4</ele>
        <time>2018-02-18T16:05:11Z</time>
      </trkpt>
      <trkpt lat="47.80775" lon="5.41632">
        <ele>390.2</ele>
        <time>2018-02-18T16:05:16Z</time>
      </trkpt>
      <trkpt lat="47.80776" lon="5.41642">
        <ele>390</ele>
        <time>2018-02-18T16:05:21Z</time>
      </trkpt>
      <trkpt lat="47.80777" lon="5.4165">
        <ele>389.1</ele>
        <time>2018-02-18T16:05:26Z</time>
      </trkpt>
      <trkpt lat="47.8078" lon="5.4166">
        <ele>389</ele>
        <time>2018-02-18T16:05:31Z</time>
      </trkpt>
      <trkpt lat="47.80782" lon="5.41668">
        <ele>388.8</ele>
        <time>2018-02-18T16:05:36Z</time>
      </trkpt>
      <trkpt lat="47.80782" lon="5.41677">
        <ele>387.9</ele>
        <time>2018-02-18T16:05:41Z</time>
      </trkpt>
      <trkpt lat="47.80784" lon="5.41687">
        <ele>387.7</ele>
        <time>2018-02-18T16:05:46Z</time>
      </trkpt>
      <trkpt lat="47.80784" lon="5.41696">
        <ele>387.5</ele>
        <time>2018-02-18T16:05:51Z</time>
      </trkpt>
      <trkpt lat="47.80786" lon="5.41706">
        <ele>387.4</ele>
        <time>2018-02-18T16:05:56Z</time>
      </trkpt>
      <trkpt lat="47.80788" lon="5.41716">
        <ele>386.5</ele>
        <time>2018-02-18T16:06:01Z</time>
      </trkpt>
      <trkpt lat="47.80789" lon="5.41724">
        <ele>386.3</ele>
        <time>2018-02-18T16:06:06Z</time>
      </trkpt>
      <trkpt lat="47.8079" lon="5.41731">
        <ele>386</ele>
        <time>2018-02-18T16:06:11Z</time>
      </trkpt>
      <trkpt lat="47.80788" lon="5.41733">
        <ele>386</ele>
        <time>2018-02-18T16:06:16Z</time>
      </trkpt>
      <trkpt lat="47.80789" lon="5.41738">
        <ele>386.4</ele>
        <time>2018-02-18T16:06:21Z</time>
      </trkpt>
      <trkpt lat="47.80791" lon="5.41745">
        <ele>386.1</ele>
        <time>2018-02-18T16:06:26Z</time>
      </trkpt>
      <trkpt lat="47.80792" lon="5.41747">
        <ele>385.5</ele>
        <time>2018-02-18T16:06:31Z</time>
      </trkpt>
      <trkpt lat="47.80793" lon="5.41747">
        <ele>385.5</ele>
        <time>2018-02-18T16:06:36Z</time>
      </trkpt>
      <trkpt lat="47.80795" lon="5.41751">
        <ele>385.9</ele>
        <time>2018-02-18T16:06:41Z</time>
      </trkpt>
      <trkpt lat="47.80796" lon="5.41758">
        <ele>386.3</ele>
        <time>2018-02-18T16:06:46Z</time>
      </trkpt>
      <trkpt lat="47.80797" lon="5.41765">
        <ele>385.9</ele>
        <time>2018-02-18T16:06:51Z</time>
      </trkpt>
      <trkpt lat="47.80796" lon="5.4177">
        <ele>386.2</ele>
        <time>2018-02-18T16:06:56Z</time>
      </trkpt>
      <trkpt lat="47.80796" lon="5.41777">
        <ele>385.1</ele>
        <time>2018-02-18T16:07:01Z</time>
      </trkpt>
      <trkpt lat="47.80798" lon="5.41782">
        <ele>384.7</ele>
        <time>2018-02-18T16:07:06Z</time>
      </trkpt>
      <trkpt lat="47.80798" lon="5.41785">
        <ele>384.9</ele>
        <time>2018-02-18T16:07:11Z</time>
      </trkpt>
      <trkpt lat="47.80796" lon="5.4179">
        <ele>385</ele>
        <time>2018-02-18T16:07:16Z</time>
      </trkpt>
      <trkpt lat="47.80798" lon="5.41794">
        <ele>385.4</ele>
        <time>2018-02-18T16:07:21Z</time>
      </trkpt>
      <trkpt lat="47.80799" lon="5.41801">
        <ele>385</ele>
        <time>2018-02-18T16:07:26Z</time>
      </trkpt>
      <trkpt lat="47.80799" lon="5.41809">
        <ele>384.7</ele>
        <time>2018-02-18T16:07:31Z</time>
      </trkpt>
      <trkpt lat="47.808" lon="5.41819">
        <ele>385.3</ele>
        <time>2018-02-18T16:07:36Z</time>
      </trkpt>
      <trkpt lat="47.80801" lon="5.41827">
        <ele>385</ele>
        <time>2018-02-18T16:07:41Z</time>
      </trkpt>
      <trkpt lat="47.80803" lon="5.41835">
        <ele>384.8</ele>
        <time>2018-02-18T16:07:46Z</time>
      </trkpt>
      <trkpt lat="47.80804" lon="5.41843">
        <ele>385.3</ele>
        <time>2018-02-18T16:07:51Z</time>
      </trkpt>
      <trkpt lat="47.80805" lon="5.41853">
        <ele>385.1</ele>
        <time>2018-02-18T16:07:56Z</time>
      </trkpt>
      <trkpt lat="47.80807" lon="5.41861">
        <ele>386.3</ele>
        <time>2018-02-18T16:08:01Z</time>
      </trkpt>
      <trkpt lat="47.80808" lon="5.41868">
        <ele>386</ele>
        <time>2018-02-18T16:08:06Z</time>
      </trkpt>
      <trkpt lat="47.80809" lon="5.41875">
        <ele>386.4</ele>
        <time>2018-02-18T16:08:11Z</time>
      </trkpt>
      <trkpt lat="47.80811" lon="5.41882">
        <ele>386.2</ele>
        <time>2018-02-18T16:08:16Z</time>
      </trkpt>
      <trkpt lat="47.80812" lon="5.4189">
        <ele>386.6</ele>
        <time>2018-02-18T16:08:21Z</time>
      </trkpt>
      <trkpt lat="47.80813" lon="5.41899">
        <ele>387.9</ele>
        <time>2018-02-18T16:08:26Z</time>
      </trkpt>
      <trkpt lat="47.80815" lon="5.41907">
        <ele>389.8</ele>
        <time>2018-02-18T16:08:31Z</time>
      </trkpt>
      <trkpt lat="47.80817" lon="5.41915">
        <ele>389.6</ele>
        <time>2018-02-18T16:08:36Z</time>
      </trkpt>
      <trkpt lat="47.80818" lon="5.41924">
        <ele>390</ele>
        <time>2018-02-18T16:08:41Z</time>
      </trkpt>
      <trkpt lat="47.8082" lon="5.41932">
        <ele>392</ele>
        <time>2018-02-18T16:08:46Z</time>
      </trkpt>
      <trkpt lat="47.80821" lon="5.4194">
        <ele>393.2</ele>
        <time>2018-02-18T16:08:51Z</time>
      </trkpt>
      <trkpt lat="47.80823" lon="5.41949">
        <ele>395.2</ele>
        <time>2018-02-18T16:08:56Z</time>
      </trkpt>
      <trkpt lat="47.80822" lon="5.41958">
        <ele>394.9</ele>
        <time>2018-02-18T16:09:01Z</time>
      </trkpt>
      <trkpt lat="47.80823" lon="5.41969">
        <ele>394.7</ele>
        <time>2018-02-18T16:09:06Z</time>
      </trkpt>
      <trkpt lat="47.80821" lon="5.41978">
        <ele>395.1</ele>
        <time>2018-02-18T16:09:11Z</time>
      </trkpt>
      <trkpt lat="47.80817" lon="5.41987">
        <ele>394.6</ele>
        <time>2018-02-18T16:09:16Z</time>
      </trkpt>
      <trkpt lat="47.80815" lon="5.41995">
        <ele>394.2</ele>
        <time>2018-02-18T16:09:21Z</time>
      </trkpt>
      <trkpt lat="47.80812" lon="5.42">
        <ele>395</ele>
        <time>2018-02-18T16:09:26Z</time>
      </trkpt>
      <trkpt lat="47.80808" lon="5.42005">
        <ele>394.3</ele>
        <time>2018-02-18T16:09:31Z</time>
      </trkpt>
      <trkpt lat="47.80804" lon="5.4201">
        <ele>394.4</ele>
        <time>2018-02-18T16:09:36Z</time>
      </trkpt>
      <trkpt lat="47.808" lon="5.42014">
        <ele>393.6</ele>
        <time>2018-02-18T16:09:41Z</time>
      </trkpt>
      <trkpt lat="47.80796" lon="5.42019">
        <ele>392.2</ele>
        <time>2018-02-18T16:09:46Z</time>
      </trkpt>
      <trkpt lat="47.8079" lon="5.42021">
        <ele>390.7</ele>
        <time>2018-02-18T16:09:51Z</time>
      </trkpt>
      <trkpt lat="47.80786" lon="5.42027">
        <ele>390.8</ele>
        <time>2018-02-18T16:09:56Z</time>
      </trkpt>
      <trkpt lat="47.80781" lon="5.4203">
        <ele>390.6</ele>
        <time>2018-02-18T16:10:01Z</time>
      </trkpt>
      <trkpt lat="47.80775" lon="5.42032">
        <ele>388.3</ele>
        <time>2018-02-18T16:10:06Z</time>
      </trkpt>
      <trkpt lat="47.80771" lon="5.42037">
        <ele>389</ele>
        <time>2018-02-18T16:10:11Z</time>
      </trkpt>
      <trkpt lat="47.80765" lon="5.42043">
        <ele>389</ele>
        <time>2018-02-18T16:10:16Z</time>
      </trkpt>
      <trkpt lat="47.80761" lon="5.42048">
        <ele>388.3</ele>
        <time>2018-02-18T16:10:21Z</time>
      </trkpt>
      <trkpt lat="47.80757" lon="5.42053">
        <ele>388.4</ele>
        <time>2018-02-18T16:10:26Z</time>
      </trkpt>
      <trkpt lat="47.80752" lon="5.42059">
        <ele>389.1</ele>
        <time>2018-02-18T16:10:31Z</time>
      </trkpt>
      <trkpt lat="47.8075" lon="5.42065">
        <ele>388.6</ele>
        <time>2018-02-18T16:10:36Z</time>
      </trkpt>
      <trkpt lat="47.80746" lon="5.4207">
        <ele>388</ele>
        <time>2018-02-18T16:10:41Z</time>
      </trkpt>
      <trkpt lat="47.80743" lon="5.42078">
        <ele>386.8</ele>
        <time>2018-02-18T16:10:46Z</time>
      </trkpt>
      <trkpt lat="47.80741" lon="5.42085">
        <ele>387</ele>
        <time>2018-02-18T16:10:51Z</time>
      </trkpt>
      <trkpt lat="47.80738" lon="5.42091">
        <ele>387.2</ele>
        <time>2018-02-18T16:10:56Z</time>
      </trkpt>
      <trkpt lat="47.80733" lon="5.42099">
        <ele>386.6</ele>
        <time>2018-02-18T16:11:01Z</time>
      </trkpt>
      <trkpt lat="47.80731" lon="5.42107">
        <ele>386.2</ele>
        <time>2018-02-18T16:11:06Z</time>
      </trkpt>
      <trkpt lat="47.80727" lon="5.42114">
        <ele>385.7</ele>
        <time>2018-02-18T16:11:11Z</time>
      </trkpt>
      <trkpt lat="47.80724" lon="5.42122">
        <ele>385.9</ele>
        <time>2018-02-18T16:11:16Z</time>
      </trkpt>
      <trkpt lat="47.80721" lon="5.42128">
        <ele>386.1</ele>
        <time>2018-02-18T16:11:21Z</time>
      </trkpt>
      <trkpt lat="47.80718" lon="5.42137">
        <ele>385.6</ele>
        <time>2018-02-18T16:11:26Z</time>
      </trkpt>
      <trkpt lat="47.80714" lon="5.42145">
        <ele>384.4</ele>
        <time>2018-02-18T16:11:31Z</time>
      </trkpt>
      <trkpt lat="47.8071" lon="5.42155">
        <ele>384</ele>
        <time>2018-02-18T16:11:36Z</time>
      </trkpt>
      <trkpt lat="47.80708" lon="5.42165">
        <ele>383.6</ele>
        <time>2018-02-18T16:11:41Z</time>
      </trkpt>
      <trkpt lat="47.80704" lon="5.42174">
        <ele>383.2</ele>
        <time>2018-02-18T16:11:46Z</time>
      </trkpt>
      <trkpt lat="47.80702" lon="5.42182">
        <ele>382.8</ele>
        <time>2018-02-18T16:11:51Z</time>
      </trkpt>
      <trkpt lat="47.807" lon="5.42191">
        <ele>382.4</ele>
        <time>2018-02-18T16:11:56Z</time>
      </trkpt>
      <trkpt lat="47.80696" lon="5.42198">
        <ele>381.9</ele>
        <time>2018-02-18T16:12:01Z</time>
      </trkpt>
      <trkpt lat="47.80693" lon="5.42208">
        <ele>382.2</ele>
        <time>2018-02-18T16:12:06Z</time>
      </trkpt>
      <trkpt lat="47.8069" lon="5.42217">
        <ele>382.5</ele>
        <time>2018-02-18T16:12:11Z</time>
      </trkpt>
      <trkpt lat="47.80686" lon="5.42227">
        <ele>382.1</ele>
        <time>2018-02-18T16:12:16Z</time>
      </trkpt>
      <trkpt lat="47.80684" lon="5.42235">
        <ele>381.7</ele>
        <time>2018-02-18T16:12:21Z</time>
      </trkpt>
      <trkpt lat="47.80683" lon="5.42245">
        <ele>381.4</ele>
        <time>2018-02-18T16:12:26Z</time>
      </trkpt>
      <trkpt lat="47.80681" lon="5.42256">
        <ele>382.6</ele>
        <time>2018-02-18T16:12:31Z</time>
      </trkpt>
      <trkpt lat="47.80678" lon="5.42264">
        <ele>382.1</ele>
        <time>2018-02-18T16:12:36Z</time>
      </trkpt>
      <trkpt lat="47.80675" lon="5.42273">
        <ele>382.4</ele>
        <time>2018-02-18T16:12:41Z</time>
      </trkpt>
      <trkpt lat="47.80673" lon="5.42281">
        <ele>381.2</ele>
        <time>2018-02-18T16:12:46Z</time>
      </trkpt>
      <trkpt lat="47.8067" lon="5.42287">
        <ele>380</ele>
        <time>2018-02-18T16:12:51Z</time>
      </trkpt>
      <trkpt lat="47.80666" lon="5.42295">
        <ele>379.5</ele>
        <time>2018-02-18T16:12:56Z</time>
      </trkpt>
      <trkpt lat="47.80662" lon="5.42299">
        <ele>378.1</ele>
        <time>2018-02-18T16:13:01Z</time>
      </trkpt>
      <trkpt lat="47.80658" lon="5.423">
        <ele>374.4</ele>
        <time>2018-02-18T16:13:06Z</time>
      </trkpt>
      <trkpt lat="47.80652" lon="5.42299">
        <ele>371.9</ele>
        <time>2018-02-18T16:13:11Z</time>
      </trkpt>
      <trkpt lat="47.80647" lon="5.423">
        <ele>370.9</ele>
        <time>2018-02-18T16:13:16Z</time>
      </trkpt>
      <trkpt lat="47.8064" lon="5.42298">
        <ele>369.1</ele>
        <time>2018-02-18T16:13:21Z</time>
      </trkpt>
      <trkpt lat="47.80635" lon="5.42298">
        <ele>368.1</ele>
        <time>2018-02-18T16:13:26Z</time>
      </trkpt>
      <trkpt lat="47.80632" lon="5.42296">
        <ele>368.5</ele>
        <time>2018-02-18T16:13:31Z</time>
      </trkpt>
      <trkpt lat="47.80627" lon="5.42294">
        <ele>367.5</ele>
        <time>2018-02-18T16:13:36Z</time>
      </trkpt>
      <trkpt lat="47.80622" lon="5.42294">
        <ele>366.5</ele>
        <time>2018-02-18T16:13:41Z</time>
      </trkpt>
      <trkpt lat="47.80617" lon="5.42293">
        <ele>366.2</ele>
        <time>2018-02-18T16:13:46Z</time>
      </trkpt>
      <trkpt lat="47.80611" lon="5.42293">
        <ele>365.2</ele>
        <time>2018-02-18T16:13:51Z</time>
      </trkpt>
      <trkpt lat="47.80604" lon="5.42292">
        <ele>365.5</ele>
        <time>2018-02-18T16:13:56Z</time>
      </trkpt>
      <trkpt lat="47.80598" lon="5.4229">
        <ele>365.1</ele>
        <time>2018-02-18T16:14:01Z</time>
      </trkpt>
      <trkpt lat="47.80591" lon="5.4229">
        <ele>364.7</ele>
        <time>2018-02-18T16:14:06Z</time>
      </trkpt>
      <trkpt lat="47.80586" lon="5.42289">
        <ele>364.4</ele>
        <time>2018-02-18T16:14:11Z</time>
      </trkpt>
      <trkpt lat="47.80581" lon="5.42289">
        <ele>362.7</ele>
        <time>2018-02-18T16:14:16Z</time>
      </trkpt>
      <trkpt lat="47.80576" lon="5.42288">
        <ele>362.4</ele>
        <time>2018-02-18T16:14:21Z</time>
      </trkpt>
      <trkpt lat="47.8057" lon="5.4229">
        <ele>361.5</ele>
        <time>2018-02-18T16:14:26Z</time>
      </trkpt>
      <trkpt lat="47.80565" lon="5.42294">
        <ele>361.4</ele>
        <time>2018-02-18T16:14:31Z</time>
      </trkpt>
      <trkpt lat="47.8056" lon="5.42299">
        <ele>362.1</ele>
        <time>2018-02-18T16:14:36Z</time>
      </trkpt>
      <trkpt lat="47.80556" lon="5.42302">
        <ele>361.4</ele>
        <time>2018-02-18T16:14:41Z</time>
      </trkpt>
      <trkpt lat="47.8055" lon="5.42307">
        <ele>361.3</ele>
        <time>2018-02-18T16:14:46Z</time>
      </trkpt>
      <trkpt lat="47.80545" lon="5.42311">
        <ele>361.2</ele>
        <time>2018-02-18T16:14:51Z</time>
      </trkpt>
      <trkpt lat="47.80539" lon="5.42314">
        <ele>360.4</ele>
        <time>2018-02-18T16:14:56Z</time>
      </trkpt>
      <trkpt lat="47.80533" lon="5.42319">
        <ele>360.3</ele>
        <time>2018-02-18T16:15:01Z</time>
      </trkpt>
      <trkpt lat="47.80527" lon="5.42322">
        <ele>358</ele>
        <time>2018-02-18T16:15:06Z</time>
      </trkpt>
      <trkpt lat="47.80521" lon="5.42323">
        <ele>357.7</ele>
        <time>2018-02-18T16:15:11Z</time>
      </trkpt>
      <trkpt lat="47.80515" lon="5.42324">
        <ele>357.5</ele>
        <time>2018-02-18T16:15:16Z</time>
      </trkpt>
      <trkpt lat="47.80509" lon="5.42323">
        <ele>357.1</ele>
        <time>2018-02-18T16:15:21Z</time>
      </trkpt>
      <trkpt lat="47.80503" lon="5.42323">
        <ele>356.8</ele>
        <time>2018-02-18T16:15:26Z</time>
      </trkpt>
      <trkpt lat="47.80498" lon="5.42321">
        <ele>356.4</ele>
        <time>2018-02-18T16:15:31Z</time>
      </trkpt>
      <trkpt lat="47.80493" lon="5.42319">
        <ele>356.1</ele>
        <time>2018-02-18T16:15:36Z</time>
      </trkpt>
      <trkpt lat="47.80487" lon="5.42317">
        <ele>356.4</ele>
        <time>2018-02-18T16:15:41Z</time>
      </trkpt>
      <trkpt lat="47.80483" lon="5.42315">
        <ele>355.4</ele>
        <time>2018-02-18T16:15:46Z</time>
      </trkpt>
      <trkpt lat="47.80477" lon="5.42313">
        <ele>354.3</ele>
        <time>2018-02-18T16:15:51Z</time>
      </trkpt>
      <trkpt lat="47.80472" lon="5.42313">
        <ele>354</ele>
        <time>2018-02-18T16:15:56Z</time>
      </trkpt>
      <trkpt lat="47.80466" lon="5.42311">
        <ele>352.9</ele>
        <time>2018-02-18T16:16:01Z</time>
      </trkpt>
      <trkpt lat="47.80461" lon="5.42309">
        <ele>351.8</ele>
        <time>2018-02-18T16:16:06Z</time>
      </trkpt>
      <trkpt lat="47.80456" lon="5.42307">
        <ele>351.5</ele>
        <time>2018-02-18T16:16:11Z</time>
      </trkpt>
      <trkpt lat="47.80451" lon="5.42306">
        <ele>349.7</ele>
        <time>2018-02-18T16:16:16Z</time>
      </trkpt>
      <trkpt lat="47.8045" lon="5.42306">
        <ele>349.6</ele>
        <time>2018-02-18T16:16:21Z</time>
      </trkpt>
    </trkseg>
  </trk>
</gpx>